<?xml version="1.0" encoding="UTF-8" standalone="no" ?>
<gpx xmlns="http://www.topografix.com/GPX/1/1" xmlns:xsi="http://www.w3.org/2001/XMLSchema-instance" xsi:schemaLocation="http://www.topografix.com/GPX/1/1 http://www.topografix.com/GPX/1/1/gpx.xsd" version="1.1" creator="VisuGPX - https://www.visugpx.com">
  <metadata>
    <name>Saint Genes de Lombeaud - Madirac</name>
    <desc><![CDATA[Randonnée VTT]]></desc>
  </metadata>
  <trk>
    <name><![CDATA[Colineau st genes lombaud madirac]]></name>
    <trkseg>
      <trkpt lat="44.7553" lon="-0.31243">
        <ele>102</ele>
        <time>2012-09-09T12:24:58Z</time>
      </trkpt>
      <trkpt lat="44.75553" lon="-0.31247">
        <ele>103</ele>
        <time>2012-09-09T12:25:12Z</time>
      </trkpt>
      <trkpt lat="44.75562" lon="-0.31269">
        <ele>102</ele>
        <time>2012-09-09T12:25:21Z</time>
      </trkpt>
      <trkpt lat="44.75607" lon="-0.31285">
        <ele>102</ele>
        <time>2012-09-09T12:25:35Z</time>
      </trkpt>
      <trkpt lat="44.75612" lon="-0.31287">
        <ele>102</ele>
        <time>2012-09-09T12:25:36Z</time>
      </trkpt>
      <trkpt lat="44.75646" lon="-0.31306">
        <ele>102</ele>
        <time>2012-09-09T12:25:42Z</time>
      </trkpt>
      <trkpt lat="44.75652" lon="-0.31308">
        <ele>102</ele>
        <time>2012-09-09T12:25:43Z</time>
      </trkpt>
      <trkpt lat="44.75658" lon="-0.31309">
        <ele>102</ele>
        <time>2012-09-09T12:25:44Z</time>
      </trkpt>
      <trkpt lat="44.75664" lon="-0.31309">
        <ele>102</ele>
        <time>2012-09-09T12:25:45Z</time>
      </trkpt>
      <trkpt lat="44.75669" lon="-0.31309">
        <ele>102</ele>
        <time>2012-09-09T12:25:46Z</time>
      </trkpt>
      <trkpt lat="44.75717" lon="-0.31315">
        <ele>104</ele>
        <time>2012-09-09T12:25:58Z</time>
      </trkpt>
      <trkpt lat="44.7576" lon="-0.31323">
        <ele>106</ele>
        <time>2012-09-09T12:26:08Z</time>
      </trkpt>
      <trkpt lat="44.75789" lon="-0.31327">
        <ele>107</ele>
        <time>2012-09-09T12:26:17Z</time>
      </trkpt>
      <trkpt lat="44.75821" lon="-0.31333">
        <ele>108</ele>
        <time>2012-09-09T12:26:27Z</time>
      </trkpt>
      <trkpt lat="44.75875" lon="-0.31344">
        <ele>110</ele>
        <time>2012-09-09T12:26:42Z</time>
      </trkpt>
      <trkpt lat="44.75943" lon="-0.31357">
        <ele>110</ele>
        <time>2012-09-09T12:26:59Z</time>
      </trkpt>
      <trkpt lat="44.76019" lon="-0.31372">
        <ele>110</ele>
        <time>2012-09-09T12:27:19Z</time>
      </trkpt>
      <trkpt lat="44.76021" lon="-0.31375">
        <ele>110</ele>
        <time>2012-09-09T12:27:20Z</time>
      </trkpt>
      <trkpt lat="44.76021" lon="-0.31379">
        <ele>110</ele>
        <time>2012-09-09T12:27:21Z</time>
      </trkpt>
      <trkpt lat="44.7602" lon="-0.31383">
        <ele>109</ele>
        <time>2012-09-09T12:27:22Z</time>
      </trkpt>
      <trkpt lat="44.7602" lon="-0.31388">
        <ele>109</ele>
        <time>2012-09-09T12:27:23Z</time>
      </trkpt>
      <trkpt lat="44.76011" lon="-0.3146">
        <ele>108</ele>
        <time>2012-09-09T12:27:37Z</time>
      </trkpt>
      <trkpt lat="44.76005" lon="-0.31523">
        <ele>107</ele>
        <time>2012-09-09T12:27:52Z</time>
      </trkpt>
      <trkpt lat="44.75998" lon="-0.3159">
        <ele>108</ele>
        <time>2012-09-09T12:28:08Z</time>
      </trkpt>
      <trkpt lat="44.75987" lon="-0.31651">
        <ele>108</ele>
        <time>2012-09-09T12:28:22Z</time>
      </trkpt>
      <trkpt lat="44.75955" lon="-0.31707">
        <ele>109</ele>
        <time>2012-09-09T12:28:36Z</time>
      </trkpt>
      <trkpt lat="44.75933" lon="-0.31806">
        <ele>107</ele>
        <time>2012-09-09T12:28:54Z</time>
      </trkpt>
      <trkpt lat="44.7593" lon="-0.31907">
        <ele>107</ele>
        <time>2012-09-09T12:29:11Z</time>
      </trkpt>
      <trkpt lat="44.75931" lon="-0.31991">
        <ele>108</ele>
        <time>2012-09-09T12:29:25Z</time>
      </trkpt>
      <trkpt lat="44.75926" lon="-0.32107">
        <ele>107</ele>
        <time>2012-09-09T12:29:44Z</time>
      </trkpt>
      <trkpt lat="44.75903" lon="-0.3223">
        <ele>107</ele>
        <time>2012-09-09T12:30:02Z</time>
      </trkpt>
      <trkpt lat="44.75868" lon="-0.32341">
        <ele>105</ele>
        <time>2012-09-09T12:30:18Z</time>
      </trkpt>
      <trkpt lat="44.75848" lon="-0.32454">
        <ele>105</ele>
        <time>2012-09-09T12:30:32Z</time>
      </trkpt>
      <trkpt lat="44.75843" lon="-0.32478">
        <ele>105</ele>
        <time>2012-09-09T12:30:35Z</time>
      </trkpt>
      <trkpt lat="44.7581" lon="-0.32584">
        <ele>103</ele>
        <time>2012-09-09T12:30:49Z</time>
      </trkpt>
      <trkpt lat="44.7577" lon="-0.32703">
        <ele>101</ele>
        <time>2012-09-09T12:31:06Z</time>
      </trkpt>
      <trkpt lat="44.75756" lon="-0.32742">
        <ele>102</ele>
        <time>2012-09-09T12:31:12Z</time>
      </trkpt>
      <trkpt lat="44.75706" lon="-0.32806">
        <ele>105</ele>
        <time>2012-09-09T12:31:26Z</time>
      </trkpt>
      <trkpt lat="44.75694" lon="-0.32815">
        <ele>106</ele>
        <time>2012-09-09T12:31:29Z</time>
      </trkpt>
      <trkpt lat="44.75691" lon="-0.32819">
        <ele>106</ele>
        <time>2012-09-09T12:31:30Z</time>
      </trkpt>
      <trkpt lat="44.75688" lon="-0.32823">
        <ele>106</ele>
        <time>2012-09-09T12:31:31Z</time>
      </trkpt>
      <trkpt lat="44.75687" lon="-0.32828">
        <ele>106</ele>
        <time>2012-09-09T12:31:32Z</time>
      </trkpt>
      <trkpt lat="44.75686" lon="-0.32834">
        <ele>106</ele>
        <time>2012-09-09T12:31:33Z</time>
      </trkpt>
      <trkpt lat="44.75687" lon="-0.3284">
        <ele>107</ele>
        <time>2012-09-09T12:31:34Z</time>
      </trkpt>
      <trkpt lat="44.75689" lon="-0.32846">
        <ele>107</ele>
        <time>2012-09-09T12:31:35Z</time>
      </trkpt>
      <trkpt lat="44.75691" lon="-0.3285">
        <ele>107</ele>
        <time>2012-09-09T12:31:36Z</time>
      </trkpt>
      <trkpt lat="44.75695" lon="-0.32854">
        <ele>107</ele>
        <time>2012-09-09T12:31:37Z</time>
      </trkpt>
      <trkpt lat="44.75698" lon="-0.32857">
        <ele>107</ele>
        <time>2012-09-09T12:31:38Z</time>
      </trkpt>
      <trkpt lat="44.7575" lon="-0.3291">
        <ele>107</ele>
        <time>2012-09-09T12:31:53Z</time>
      </trkpt>
      <trkpt lat="44.75758" lon="-0.32915">
        <ele>107</ele>
        <time>2012-09-09T12:31:55Z</time>
      </trkpt>
      <trkpt lat="44.75763" lon="-0.32917">
        <ele>107</ele>
        <time>2012-09-09T12:31:56Z</time>
      </trkpt>
      <trkpt lat="44.75771" lon="-0.3292">
        <ele>107</ele>
        <time>2012-09-09T12:31:58Z</time>
      </trkpt>
      <trkpt lat="44.75802" lon="-0.32924">
        <ele>107</ele>
        <time>2012-09-09T12:32:05Z</time>
      </trkpt>
      <trkpt lat="44.75806" lon="-0.32926">
        <ele>107</ele>
        <time>2012-09-09T12:32:06Z</time>
      </trkpt>
      <trkpt lat="44.7581" lon="-0.32929">
        <ele>107</ele>
        <time>2012-09-09T12:32:07Z</time>
      </trkpt>
      <trkpt lat="44.75812" lon="-0.32934">
        <ele>107</ele>
        <time>2012-09-09T12:32:08Z</time>
      </trkpt>
      <trkpt lat="44.75814" lon="-0.32941">
        <ele>107</ele>
        <time>2012-09-09T12:32:09Z</time>
      </trkpt>
      <trkpt lat="44.75814" lon="-0.32947">
        <ele>107</ele>
        <time>2012-09-09T12:32:10Z</time>
      </trkpt>
      <trkpt lat="44.75815" lon="-0.32953">
        <ele>107</ele>
        <time>2012-09-09T12:32:11Z</time>
      </trkpt>
      <trkpt lat="44.75816" lon="-0.32959">
        <ele>107</ele>
        <time>2012-09-09T12:32:12Z</time>
      </trkpt>
      <trkpt lat="44.75819" lon="-0.32975">
        <ele>107</ele>
        <time>2012-09-09T12:32:15Z</time>
      </trkpt>
      <trkpt lat="44.75844" lon="-0.3304">
        <ele>106</ele>
        <time>2012-09-09T12:32:28Z</time>
      </trkpt>
      <trkpt lat="44.7586" lon="-0.33052">
        <ele>106</ele>
        <time>2012-09-09T12:32:32Z</time>
      </trkpt>
      <trkpt lat="44.75863" lon="-0.33056">
        <ele>106</ele>
        <time>2012-09-09T12:32:33Z</time>
      </trkpt>
      <trkpt lat="44.75866" lon="-0.3306">
        <ele>106</ele>
        <time>2012-09-09T12:32:34Z</time>
      </trkpt>
      <trkpt lat="44.75869" lon="-0.33064">
        <ele>106</ele>
        <time>2012-09-09T12:32:35Z</time>
      </trkpt>
      <trkpt lat="44.75873" lon="-0.33069">
        <ele>106</ele>
        <time>2012-09-09T12:32:36Z</time>
      </trkpt>
      <trkpt lat="44.75877" lon="-0.33073">
        <ele>106</ele>
        <time>2012-09-09T12:32:37Z</time>
      </trkpt>
      <trkpt lat="44.7588" lon="-0.33077">
        <ele>106</ele>
        <time>2012-09-09T12:32:38Z</time>
      </trkpt>
      <trkpt lat="44.75884" lon="-0.33082">
        <ele>106</ele>
        <time>2012-09-09T12:32:39Z</time>
      </trkpt>
      <trkpt lat="44.75887" lon="-0.33086">
        <ele>106</ele>
        <time>2012-09-09T12:32:40Z</time>
      </trkpt>
      <trkpt lat="44.75891" lon="-0.33091">
        <ele>106</ele>
        <time>2012-09-09T12:32:41Z</time>
      </trkpt>
      <trkpt lat="44.75894" lon="-0.33096">
        <ele>106</ele>
        <time>2012-09-09T12:32:42Z</time>
      </trkpt>
      <trkpt lat="44.75897" lon="-0.331">
        <ele>106</ele>
        <time>2012-09-09T12:32:43Z</time>
      </trkpt>
      <trkpt lat="44.759" lon="-0.33105">
        <ele>106</ele>
        <time>2012-09-09T12:32:44Z</time>
      </trkpt>
      <trkpt lat="44.75903" lon="-0.33109">
        <ele>106</ele>
        <time>2012-09-09T12:32:45Z</time>
      </trkpt>
      <trkpt lat="44.75913" lon="-0.33129">
        <ele>106</ele>
        <time>2012-09-09T12:32:49Z</time>
      </trkpt>
      <trkpt lat="44.75931" lon="-0.3319">
        <ele>105</ele>
        <time>2012-09-09T12:33:00Z</time>
      </trkpt>
      <trkpt lat="44.75933" lon="-0.33202">
        <ele>105</ele>
        <time>2012-09-09T12:33:02Z</time>
      </trkpt>
      <trkpt lat="44.75935" lon="-0.33208">
        <ele>105</ele>
        <time>2012-09-09T12:33:03Z</time>
      </trkpt>
      <trkpt lat="44.75949" lon="-0.33252">
        <ele>105</ele>
        <time>2012-09-09T12:33:10Z</time>
      </trkpt>
      <trkpt lat="44.7595" lon="-0.33258">
        <ele>105</ele>
        <time>2012-09-09T12:33:11Z</time>
      </trkpt>
      <trkpt lat="44.75952" lon="-0.33272">
        <ele>105</ele>
        <time>2012-09-09T12:33:13Z</time>
      </trkpt>
      <trkpt lat="44.75953" lon="-0.33279">
        <ele>105</ele>
        <time>2012-09-09T12:33:14Z</time>
      </trkpt>
      <trkpt lat="44.75953" lon="-0.33363">
        <ele>104</ele>
        <time>2012-09-09T12:33:25Z</time>
      </trkpt>
      <trkpt lat="44.75952" lon="-0.33485">
        <ele>101</ele>
        <time>2012-09-09T12:33:40Z</time>
      </trkpt>
      <trkpt lat="44.75942" lon="-0.336">
        <ele>100</ele>
        <time>2012-09-09T12:33:55Z</time>
      </trkpt>
      <trkpt lat="44.75935" lon="-0.3369">
        <ele>98</ele>
        <time>2012-09-09T12:34:10Z</time>
      </trkpt>
      <trkpt lat="44.75934" lon="-0.33714">
        <ele>98</ele>
        <time>2012-09-09T12:34:16Z</time>
      </trkpt>
      <trkpt lat="44.75937" lon="-0.33743">
        <ele>98</ele>
        <time>2012-09-09T12:34:25Z</time>
      </trkpt>
      <trkpt lat="44.75931" lon="-0.33759">
        <ele>97</ele>
        <time>2012-09-09T12:34:37Z</time>
      </trkpt>
      <trkpt lat="44.75929" lon="-0.33761">
        <ele>97</ele>
        <time>2012-09-09T12:34:41Z</time>
      </trkpt>
      <trkpt lat="44.7591" lon="-0.33757">
        <ele>96</ele>
        <time>2012-09-09T12:34:50Z</time>
      </trkpt>
      <trkpt lat="44.75893" lon="-0.3376">
        <ele>93</ele>
        <time>2012-09-09T12:34:54Z</time>
      </trkpt>
      <trkpt lat="44.75868" lon="-0.33769">
        <ele>89</ele>
        <time>2012-09-09T12:35:00Z</time>
      </trkpt>
      <trkpt lat="44.75845" lon="-0.3378">
        <ele>85</ele>
        <time>2012-09-09T12:35:06Z</time>
      </trkpt>
      <trkpt lat="44.7583" lon="-0.33784">
        <ele>82</ele>
        <time>2012-09-09T12:35:10Z</time>
      </trkpt>
      <trkpt lat="44.75814" lon="-0.3379">
        <ele>79</ele>
        <time>2012-09-09T12:35:15Z</time>
      </trkpt>
      <trkpt lat="44.7581" lon="-0.33791">
        <ele>79</ele>
        <time>2012-09-09T12:35:17Z</time>
      </trkpt>
      <trkpt lat="44.75805" lon="-0.3379">
        <ele>78</ele>
        <time>2012-09-09T12:35:21Z</time>
      </trkpt>
      <trkpt lat="44.75797" lon="-0.33827">
        <ele>76</ele>
        <time>2012-09-09T12:35:31Z</time>
      </trkpt>
      <trkpt lat="44.75793" lon="-0.33857">
        <ele>75</ele>
        <time>2012-09-09T12:35:37Z</time>
      </trkpt>
      <trkpt lat="44.75791" lon="-0.33874">
        <ele>75</ele>
        <time>2012-09-09T12:35:41Z</time>
      </trkpt>
      <trkpt lat="44.75788" lon="-0.33887">
        <ele>74</ele>
        <time>2012-09-09T12:35:44Z</time>
      </trkpt>
      <trkpt lat="44.7578" lon="-0.33915">
        <ele>73</ele>
        <time>2012-09-09T12:35:50Z</time>
      </trkpt>
      <trkpt lat="44.7577" lon="-0.3397">
        <ele>71</ele>
        <time>2012-09-09T12:36:01Z</time>
      </trkpt>
      <trkpt lat="44.75771" lon="-0.33986">
        <ele>71</ele>
        <time>2012-09-09T12:36:04Z</time>
      </trkpt>
      <trkpt lat="44.75775" lon="-0.34032">
        <ele>70</ele>
        <time>2012-09-09T12:36:14Z</time>
      </trkpt>
      <trkpt lat="44.75772" lon="-0.34057">
        <ele>69</ele>
        <time>2012-09-09T12:36:18Z</time>
      </trkpt>
      <trkpt lat="44.75777" lon="-0.34094">
        <ele>68</ele>
        <time>2012-09-09T12:36:30Z</time>
      </trkpt>
      <trkpt lat="44.75777" lon="-0.34095">
        <ele>68</ele>
        <time>2012-09-09T12:36:31Z</time>
      </trkpt>
      <trkpt lat="44.7578" lon="-0.34099">
        <ele>69</ele>
        <time>2012-09-09T12:36:34Z</time>
      </trkpt>
      <trkpt lat="44.75786" lon="-0.34114">
        <ele>69</ele>
        <time>2012-09-09T12:36:39Z</time>
      </trkpt>
      <trkpt lat="44.7579" lon="-0.34133">
        <ele>68</ele>
        <time>2012-09-09T12:36:43Z</time>
      </trkpt>
      <trkpt lat="44.75788" lon="-0.34171">
        <ele>66</ele>
        <time>2012-09-09T12:36:49Z</time>
      </trkpt>
      <trkpt lat="44.75788" lon="-0.34199">
        <ele>65</ele>
        <time>2012-09-09T12:36:54Z</time>
      </trkpt>
      <trkpt lat="44.75791" lon="-0.34249">
        <ele>65</ele>
        <time>2012-09-09T12:37:07Z</time>
      </trkpt>
      <trkpt lat="44.75797" lon="-0.34268">
        <ele>66</ele>
        <time>2012-09-09T12:37:14Z</time>
      </trkpt>
      <trkpt lat="44.75797" lon="-0.34286">
        <ele>67</ele>
        <time>2012-09-09T12:37:19Z</time>
      </trkpt>
      <trkpt lat="44.75793" lon="-0.34303">
        <ele>67</ele>
        <time>2012-09-09T12:37:23Z</time>
      </trkpt>
      <trkpt lat="44.75795" lon="-0.34316">
        <ele>67</ele>
        <time>2012-09-09T12:37:26Z</time>
      </trkpt>
      <trkpt lat="44.75793" lon="-0.34349">
        <ele>67</ele>
        <time>2012-09-09T12:37:32Z</time>
      </trkpt>
      <trkpt lat="44.75784" lon="-0.34413">
        <ele>64</ele>
        <time>2012-09-09T12:37:42Z</time>
      </trkpt>
      <trkpt lat="44.75786" lon="-0.34436">
        <ele>63</ele>
        <time>2012-09-09T12:37:47Z</time>
      </trkpt>
      <trkpt lat="44.75778" lon="-0.34486">
        <ele>62</ele>
        <time>2012-09-09T12:37:58Z</time>
      </trkpt>
      <trkpt lat="44.75778" lon="-0.34497">
        <ele>62</ele>
        <time>2012-09-09T12:38:02Z</time>
      </trkpt>
      <trkpt lat="44.75785" lon="-0.34541">
        <ele>61</ele>
        <time>2012-09-09T12:38:14Z</time>
      </trkpt>
      <trkpt lat="44.758" lon="-0.34586">
        <ele>60</ele>
        <time>2012-09-09T12:38:25Z</time>
      </trkpt>
      <trkpt lat="44.75796" lon="-0.34596">
        <ele>60</ele>
        <time>2012-09-09T12:38:36Z</time>
      </trkpt>
      <trkpt lat="44.75794" lon="-0.34597">
        <ele>60</ele>
        <time>2012-09-09T12:38:52Z</time>
      </trkpt>
      <trkpt lat="44.75789" lon="-0.34603">
        <ele>61</ele>
        <time>2012-09-09T12:39:03Z</time>
      </trkpt>
      <trkpt lat="44.75787" lon="-0.34606">
        <ele>61</ele>
        <time>2012-09-09T12:39:10Z</time>
      </trkpt>
      <trkpt lat="44.75787" lon="-0.34614">
        <ele>61</ele>
        <time>2012-09-09T12:39:16Z</time>
      </trkpt>
      <trkpt lat="44.75791" lon="-0.34622">
        <ele>61</ele>
        <time>2012-09-09T12:39:20Z</time>
      </trkpt>
      <trkpt lat="44.75805" lon="-0.34646">
        <ele>60</ele>
        <time>2012-09-09T12:39:29Z</time>
      </trkpt>
      <trkpt lat="44.75826" lon="-0.34703">
        <ele>59</ele>
        <time>2012-09-09T12:39:42Z</time>
      </trkpt>
      <trkpt lat="44.75843" lon="-0.34742">
        <ele>59</ele>
        <time>2012-09-09T12:39:52Z</time>
      </trkpt>
      <trkpt lat="44.75863" lon="-0.34781">
        <ele>58</ele>
        <time>2012-09-09T12:40:02Z</time>
      </trkpt>
      <trkpt lat="44.75871" lon="-0.34797">
        <ele>57</ele>
        <time>2012-09-09T12:40:05Z</time>
      </trkpt>
      <trkpt lat="44.75873" lon="-0.34825">
        <ele>57</ele>
        <time>2012-09-09T12:40:09Z</time>
      </trkpt>
      <trkpt lat="44.75849" lon="-0.34876">
        <ele>58</ele>
        <time>2012-09-09T12:40:20Z</time>
      </trkpt>
      <trkpt lat="44.75814" lon="-0.34933">
        <ele>57</ele>
        <time>2012-09-09T12:40:37Z</time>
      </trkpt>
      <trkpt lat="44.75809" lon="-0.3498">
        <ele>57</ele>
        <time>2012-09-09T12:40:47Z</time>
      </trkpt>
      <trkpt lat="44.75809" lon="-0.35056">
        <ele>58</ele>
        <time>2012-09-09T12:41:01Z</time>
      </trkpt>
      <trkpt lat="44.75819" lon="-0.35096">
        <ele>55</ele>
        <time>2012-09-09T12:41:10Z</time>
      </trkpt>
      <trkpt lat="44.7583" lon="-0.35108">
        <ele>54</ele>
        <time>2012-09-09T12:41:13Z</time>
      </trkpt>
      <trkpt lat="44.75842" lon="-0.35126">
        <ele>53</ele>
        <time>2012-09-09T12:41:17Z</time>
      </trkpt>
      <trkpt lat="44.7584" lon="-0.3517">
        <ele>52</ele>
        <time>2012-09-09T12:41:27Z</time>
      </trkpt>
      <trkpt lat="44.75819" lon="-0.35216">
        <ele>52</ele>
        <time>2012-09-09T12:41:39Z</time>
      </trkpt>
      <trkpt lat="44.7581" lon="-0.35238">
        <ele>52</ele>
        <time>2012-09-09T12:41:46Z</time>
      </trkpt>
      <trkpt lat="44.75805" lon="-0.35252">
        <ele>52</ele>
        <time>2012-09-09T12:41:56Z</time>
      </trkpt>
      <trkpt lat="44.75792" lon="-0.35281">
        <ele>52</ele>
        <time>2012-09-09T12:42:06Z</time>
      </trkpt>
      <trkpt lat="44.75788" lon="-0.35285">
        <ele>52</ele>
        <time>2012-09-09T12:42:07Z</time>
      </trkpt>
      <trkpt lat="44.7577" lon="-0.35301">
        <ele>53</ele>
        <time>2012-09-09T12:42:11Z</time>
      </trkpt>
      <trkpt lat="44.75765" lon="-0.35304">
        <ele>53</ele>
        <time>2012-09-09T12:42:12Z</time>
      </trkpt>
      <trkpt lat="44.75721" lon="-0.35338">
        <ele>54</ele>
        <time>2012-09-09T12:42:23Z</time>
      </trkpt>
      <trkpt lat="44.75693" lon="-0.35377">
        <ele>53</ele>
        <time>2012-09-09T12:42:33Z</time>
      </trkpt>
      <trkpt lat="44.75682" lon="-0.35387">
        <ele>52</ele>
        <time>2012-09-09T12:42:36Z</time>
      </trkpt>
      <trkpt lat="44.75635" lon="-0.35422">
        <ele>52</ele>
        <time>2012-09-09T12:42:47Z</time>
      </trkpt>
      <trkpt lat="44.7563" lon="-0.35424">
        <ele>52</ele>
        <time>2012-09-09T12:42:48Z</time>
      </trkpt>
      <trkpt lat="44.756" lon="-0.35448">
        <ele>51</ele>
        <time>2012-09-09T12:42:55Z</time>
      </trkpt>
      <trkpt lat="44.75596" lon="-0.35451">
        <ele>51</ele>
        <time>2012-09-09T12:42:56Z</time>
      </trkpt>
      <trkpt lat="44.75576" lon="-0.35484">
        <ele>51</ele>
        <time>2012-09-09T12:43:05Z</time>
      </trkpt>
      <trkpt lat="44.7557" lon="-0.35516">
        <ele>51</ele>
        <time>2012-09-09T12:43:10Z</time>
      </trkpt>
      <trkpt lat="44.75567" lon="-0.35561">
        <ele>51</ele>
        <time>2012-09-09T12:43:18Z</time>
      </trkpt>
      <trkpt lat="44.75568" lon="-0.35568">
        <ele>51</ele>
        <time>2012-09-09T12:43:19Z</time>
      </trkpt>
      <trkpt lat="44.75567" lon="-0.35574">
        <ele>51</ele>
        <time>2012-09-09T12:43:20Z</time>
      </trkpt>
      <trkpt lat="44.75567" lon="-0.35581">
        <ele>50</ele>
        <time>2012-09-09T12:43:21Z</time>
      </trkpt>
      <trkpt lat="44.75567" lon="-0.35588">
        <ele>50</ele>
        <time>2012-09-09T12:43:22Z</time>
      </trkpt>
      <trkpt lat="44.75567" lon="-0.35594">
        <ele>50</ele>
        <time>2012-09-09T12:43:23Z</time>
      </trkpt>
      <trkpt lat="44.75567" lon="-0.35601">
        <ele>50</ele>
        <time>2012-09-09T12:43:24Z</time>
      </trkpt>
      <trkpt lat="44.75566" lon="-0.35609">
        <ele>50</ele>
        <time>2012-09-09T12:43:25Z</time>
      </trkpt>
      <trkpt lat="44.75565" lon="-0.35618">
        <ele>50</ele>
        <time>2012-09-09T12:43:26Z</time>
      </trkpt>
      <trkpt lat="44.75562" lon="-0.35652">
        <ele>49</ele>
        <time>2012-09-09T12:43:31Z</time>
      </trkpt>
      <trkpt lat="44.75559" lon="-0.3566">
        <ele>49</ele>
        <time>2012-09-09T12:43:32Z</time>
      </trkpt>
      <trkpt lat="44.75556" lon="-0.35666">
        <ele>49</ele>
        <time>2012-09-09T12:43:33Z</time>
      </trkpt>
      <trkpt lat="44.75552" lon="-0.35672">
        <ele>49</ele>
        <time>2012-09-09T12:43:34Z</time>
      </trkpt>
      <trkpt lat="44.75548" lon="-0.35677">
        <ele>49</ele>
        <time>2012-09-09T12:43:35Z</time>
      </trkpt>
      <trkpt lat="44.75544" lon="-0.35683">
        <ele>49</ele>
        <time>2012-09-09T12:43:36Z</time>
      </trkpt>
      <trkpt lat="44.7554" lon="-0.35687">
        <ele>49</ele>
        <time>2012-09-09T12:43:37Z</time>
      </trkpt>
      <trkpt lat="44.75538" lon="-0.35692">
        <ele>49</ele>
        <time>2012-09-09T12:43:38Z</time>
      </trkpt>
      <trkpt lat="44.75535" lon="-0.35698">
        <ele>49</ele>
        <time>2012-09-09T12:43:39Z</time>
      </trkpt>
      <trkpt lat="44.75533" lon="-0.35703">
        <ele>49</ele>
        <time>2012-09-09T12:43:40Z</time>
      </trkpt>
      <trkpt lat="44.7553" lon="-0.35707">
        <ele>49</ele>
        <time>2012-09-09T12:43:41Z</time>
      </trkpt>
      <trkpt lat="44.75528" lon="-0.3571">
        <ele>49</ele>
        <time>2012-09-09T12:43:42Z</time>
      </trkpt>
      <trkpt lat="44.75513" lon="-0.35755">
        <ele>49</ele>
        <time>2012-09-09T12:43:52Z</time>
      </trkpt>
      <trkpt lat="44.75495" lon="-0.35829">
        <ele>46</ele>
        <time>2012-09-09T12:44:03Z</time>
      </trkpt>
      <trkpt lat="44.75489" lon="-0.3586">
        <ele>46</ele>
        <time>2012-09-09T12:44:07Z</time>
      </trkpt>
      <trkpt lat="44.75485" lon="-0.35873">
        <ele>46</ele>
        <time>2012-09-09T12:44:09Z</time>
      </trkpt>
      <trkpt lat="44.75456" lon="-0.35972">
        <ele>45</ele>
        <time>2012-09-09T12:44:22Z</time>
      </trkpt>
      <trkpt lat="44.75452" lon="-0.35993">
        <ele>45</ele>
        <time>2012-09-09T12:44:25Z</time>
      </trkpt>
      <trkpt lat="44.75448" lon="-0.36014">
        <ele>45</ele>
        <time>2012-09-09T12:44:28Z</time>
      </trkpt>
      <trkpt lat="44.75447" lon="-0.36021">
        <ele>45</ele>
        <time>2012-09-09T12:44:29Z</time>
      </trkpt>
      <trkpt lat="44.75445" lon="-0.36028">
        <ele>45</ele>
        <time>2012-09-09T12:44:30Z</time>
      </trkpt>
      <trkpt lat="44.75443" lon="-0.36034">
        <ele>45</ele>
        <time>2012-09-09T12:44:31Z</time>
      </trkpt>
      <trkpt lat="44.75441" lon="-0.3604">
        <ele>45</ele>
        <time>2012-09-09T12:44:32Z</time>
      </trkpt>
      <trkpt lat="44.75439" lon="-0.36047">
        <ele>45</ele>
        <time>2012-09-09T12:44:33Z</time>
      </trkpt>
      <trkpt lat="44.75432" lon="-0.36065">
        <ele>45</ele>
        <time>2012-09-09T12:44:36Z</time>
      </trkpt>
      <trkpt lat="44.75429" lon="-0.36072">
        <ele>45</ele>
        <time>2012-09-09T12:44:37Z</time>
      </trkpt>
      <trkpt lat="44.75425" lon="-0.36079">
        <ele>45</ele>
        <time>2012-09-09T12:44:38Z</time>
      </trkpt>
      <trkpt lat="44.75412" lon="-0.36103">
        <ele>45</ele>
        <time>2012-09-09T12:44:42Z</time>
      </trkpt>
      <trkpt lat="44.75405" lon="-0.36113">
        <ele>45</ele>
        <time>2012-09-09T12:44:44Z</time>
      </trkpt>
      <trkpt lat="44.75381" lon="-0.36154">
        <ele>45</ele>
        <time>2012-09-09T12:44:51Z</time>
      </trkpt>
      <trkpt lat="44.75339" lon="-0.36226">
        <ele>45</ele>
        <time>2012-09-09T12:45:03Z</time>
      </trkpt>
      <trkpt lat="44.75337" lon="-0.36232">
        <ele>45</ele>
        <time>2012-09-09T12:45:04Z</time>
      </trkpt>
      <trkpt lat="44.75334" lon="-0.36237">
        <ele>45</ele>
        <time>2012-09-09T12:45:05Z</time>
      </trkpt>
      <trkpt lat="44.75319" lon="-0.36256">
        <ele>44</ele>
        <time>2012-09-09T12:45:09Z</time>
      </trkpt>
      <trkpt lat="44.75315" lon="-0.3626">
        <ele>44</ele>
        <time>2012-09-09T12:45:10Z</time>
      </trkpt>
      <trkpt lat="44.7531" lon="-0.36264">
        <ele>44</ele>
        <time>2012-09-09T12:45:11Z</time>
      </trkpt>
      <trkpt lat="44.75306" lon="-0.36266">
        <ele>44</ele>
        <time>2012-09-09T12:45:12Z</time>
      </trkpt>
      <trkpt lat="44.75301" lon="-0.36269">
        <ele>44</ele>
        <time>2012-09-09T12:45:13Z</time>
      </trkpt>
      <trkpt lat="44.75296" lon="-0.3627">
        <ele>44</ele>
        <time>2012-09-09T12:45:14Z</time>
      </trkpt>
      <trkpt lat="44.75264" lon="-0.36282">
        <ele>45</ele>
        <time>2012-09-09T12:45:22Z</time>
      </trkpt>
      <trkpt lat="44.75261" lon="-0.36284">
        <ele>45</ele>
        <time>2012-09-09T12:45:23Z</time>
      </trkpt>
      <trkpt lat="44.75257" lon="-0.36285">
        <ele>45</ele>
        <time>2012-09-09T12:45:24Z</time>
      </trkpt>
      <trkpt lat="44.7524" lon="-0.3629">
        <ele>45</ele>
        <time>2012-09-09T12:45:29Z</time>
      </trkpt>
      <trkpt lat="44.75236" lon="-0.36292">
        <ele>45</ele>
        <time>2012-09-09T12:45:30Z</time>
      </trkpt>
      <trkpt lat="44.75233" lon="-0.36295">
        <ele>45</ele>
        <time>2012-09-09T12:45:31Z</time>
      </trkpt>
      <trkpt lat="44.75226" lon="-0.36305">
        <ele>45</ele>
        <time>2012-09-09T12:45:36Z</time>
      </trkpt>
      <trkpt lat="44.75218" lon="-0.36309">
        <ele>45</ele>
        <time>2012-09-09T12:45:42Z</time>
      </trkpt>
      <trkpt lat="44.75216" lon="-0.36308">
        <ele>45</ele>
        <time>2012-09-09T12:45:43Z</time>
      </trkpt>
      <trkpt lat="44.75214" lon="-0.36307">
        <ele>46</ele>
        <time>2012-09-09T12:45:44Z</time>
      </trkpt>
      <trkpt lat="44.75212" lon="-0.36306">
        <ele>46</ele>
        <time>2012-09-09T12:45:45Z</time>
      </trkpt>
      <trkpt lat="44.7521" lon="-0.36306">
        <ele>46</ele>
        <time>2012-09-09T12:45:46Z</time>
      </trkpt>
      <trkpt lat="44.75208" lon="-0.36306">
        <ele>46</ele>
        <time>2012-09-09T12:45:47Z</time>
      </trkpt>
      <trkpt lat="44.75206" lon="-0.36306">
        <ele>46</ele>
        <time>2012-09-09T12:45:48Z</time>
      </trkpt>
      <trkpt lat="44.75198" lon="-0.36313">
        <ele>46</ele>
        <time>2012-09-09T12:45:54Z</time>
      </trkpt>
      <trkpt lat="44.75192" lon="-0.36315">
        <ele>46</ele>
        <time>2012-09-09T12:45:58Z</time>
      </trkpt>
      <trkpt lat="44.7519" lon="-0.36316">
        <ele>46</ele>
        <time>2012-09-09T12:46:11Z</time>
      </trkpt>
      <trkpt lat="44.75191" lon="-0.36319">
        <ele>46</ele>
        <time>2012-09-09T12:46:39Z</time>
      </trkpt>
      <trkpt lat="44.7519" lon="-0.36319">
        <ele>46</ele>
        <time>2012-09-09T12:47:12Z</time>
      </trkpt>
      <trkpt lat="44.7519" lon="-0.36319">
        <ele>46</ele>
        <time>2012-09-09T12:47:42Z</time>
      </trkpt>
      <trkpt lat="44.75191" lon="-0.36319">
        <ele>46</ele>
        <time>2012-09-09T12:47:59Z</time>
      </trkpt>
      <trkpt lat="44.7519" lon="-0.36318">
        <ele>46</ele>
        <time>2012-09-09T12:48:29Z</time>
      </trkpt>
      <trkpt lat="44.75191" lon="-0.36318">
        <ele>46</ele>
        <time>2012-09-09T12:49:05Z</time>
      </trkpt>
      <trkpt lat="44.75191" lon="-0.36318">
        <ele>46</ele>
        <time>2012-09-09T12:49:21Z</time>
      </trkpt>
      <trkpt lat="44.75191" lon="-0.36321">
        <ele>46</ele>
        <time>2012-09-09T12:49:26Z</time>
      </trkpt>
      <trkpt lat="44.75186" lon="-0.36334">
        <ele>46</ele>
        <time>2012-09-09T12:49:32Z</time>
      </trkpt>
      <trkpt lat="44.75184" lon="-0.36336">
        <ele>46</ele>
        <time>2012-09-09T12:49:33Z</time>
      </trkpt>
      <trkpt lat="44.75181" lon="-0.36339">
        <ele>46</ele>
        <time>2012-09-09T12:49:34Z</time>
      </trkpt>
      <trkpt lat="44.7518" lon="-0.36343">
        <ele>46</ele>
        <time>2012-09-09T12:49:35Z</time>
      </trkpt>
      <trkpt lat="44.75178" lon="-0.36347">
        <ele>46</ele>
        <time>2012-09-09T12:49:36Z</time>
      </trkpt>
      <trkpt lat="44.75172" lon="-0.36386">
        <ele>46</ele>
        <time>2012-09-09T12:49:46Z</time>
      </trkpt>
      <trkpt lat="44.75171" lon="-0.36391">
        <ele>46</ele>
        <time>2012-09-09T12:49:47Z</time>
      </trkpt>
      <trkpt lat="44.75169" lon="-0.36396">
        <ele>46</ele>
        <time>2012-09-09T12:49:48Z</time>
      </trkpt>
      <trkpt lat="44.75167" lon="-0.364">
        <ele>46</ele>
        <time>2012-09-09T12:49:49Z</time>
      </trkpt>
      <trkpt lat="44.75165" lon="-0.36405">
        <ele>46</ele>
        <time>2012-09-09T12:49:50Z</time>
      </trkpt>
      <trkpt lat="44.75163" lon="-0.36411">
        <ele>46</ele>
        <time>2012-09-09T12:49:51Z</time>
      </trkpt>
      <trkpt lat="44.75147" lon="-0.36472">
        <ele>45</ele>
        <time>2012-09-09T12:50:01Z</time>
      </trkpt>
      <trkpt lat="44.75145" lon="-0.36478">
        <ele>45</ele>
        <time>2012-09-09T12:50:02Z</time>
      </trkpt>
      <trkpt lat="44.75143" lon="-0.36483">
        <ele>45</ele>
        <time>2012-09-09T12:50:03Z</time>
      </trkpt>
      <trkpt lat="44.75142" lon="-0.3649">
        <ele>45</ele>
        <time>2012-09-09T12:50:04Z</time>
      </trkpt>
      <trkpt lat="44.75141" lon="-0.36496">
        <ele>45</ele>
        <time>2012-09-09T12:50:05Z</time>
      </trkpt>
      <trkpt lat="44.75139" lon="-0.36502">
        <ele>45</ele>
        <time>2012-09-09T12:50:06Z</time>
      </trkpt>
      <trkpt lat="44.75137" lon="-0.36509">
        <ele>45</ele>
        <time>2012-09-09T12:50:07Z</time>
      </trkpt>
      <trkpt lat="44.75111" lon="-0.36607">
        <ele>45</ele>
        <time>2012-09-09T12:50:22Z</time>
      </trkpt>
      <trkpt lat="44.75109" lon="-0.36613">
        <ele>45</ele>
        <time>2012-09-09T12:50:23Z</time>
      </trkpt>
      <trkpt lat="44.75105" lon="-0.36632">
        <ele>45</ele>
        <time>2012-09-09T12:50:26Z</time>
      </trkpt>
      <trkpt lat="44.75105" lon="-0.36638">
        <ele>45</ele>
        <time>2012-09-09T12:50:27Z</time>
      </trkpt>
      <trkpt lat="44.75107" lon="-0.36644">
        <ele>45</ele>
        <time>2012-09-09T12:50:28Z</time>
      </trkpt>
      <trkpt lat="44.7511" lon="-0.3665">
        <ele>45</ele>
        <time>2012-09-09T12:50:29Z</time>
      </trkpt>
      <trkpt lat="44.75114" lon="-0.36656">
        <ele>44</ele>
        <time>2012-09-09T12:50:30Z</time>
      </trkpt>
      <trkpt lat="44.75179" lon="-0.36733">
        <ele>43</ele>
        <time>2012-09-09T12:50:43Z</time>
      </trkpt>
      <trkpt lat="44.75199" lon="-0.36758">
        <ele>43</ele>
        <time>2012-09-09T12:50:48Z</time>
      </trkpt>
      <trkpt lat="44.75209" lon="-0.36772">
        <ele>43</ele>
        <time>2012-09-09T12:50:51Z</time>
      </trkpt>
      <trkpt lat="44.75212" lon="-0.36777">
        <ele>43</ele>
        <time>2012-09-09T12:50:52Z</time>
      </trkpt>
      <trkpt lat="44.75214" lon="-0.36782">
        <ele>43</ele>
        <time>2012-09-09T12:50:53Z</time>
      </trkpt>
      <trkpt lat="44.75216" lon="-0.36787">
        <ele>44</ele>
        <time>2012-09-09T12:50:54Z</time>
      </trkpt>
      <trkpt lat="44.75218" lon="-0.36792">
        <ele>44</ele>
        <time>2012-09-09T12:50:55Z</time>
      </trkpt>
      <trkpt lat="44.75219" lon="-0.36797">
        <ele>44</ele>
        <time>2012-09-09T12:50:56Z</time>
      </trkpt>
      <trkpt lat="44.7523" lon="-0.36864">
        <ele>47</ele>
        <time>2012-09-09T12:51:09Z</time>
      </trkpt>
      <trkpt lat="44.75214" lon="-0.36931">
        <ele>49</ele>
        <time>2012-09-09T12:51:22Z</time>
      </trkpt>
      <trkpt lat="44.75197" lon="-0.36956">
        <ele>49</ele>
        <time>2012-09-09T12:51:28Z</time>
      </trkpt>
      <trkpt lat="44.75145" lon="-0.37019">
        <ele>49</ele>
        <time>2012-09-09T12:51:44Z</time>
      </trkpt>
      <trkpt lat="44.75142" lon="-0.37024">
        <ele>49</ele>
        <time>2012-09-09T12:51:45Z</time>
      </trkpt>
      <trkpt lat="44.75137" lon="-0.37034">
        <ele>50</ele>
        <time>2012-09-09T12:51:47Z</time>
      </trkpt>
      <trkpt lat="44.75135" lon="-0.3704">
        <ele>50</ele>
        <time>2012-09-09T12:51:48Z</time>
      </trkpt>
      <trkpt lat="44.75134" lon="-0.37046">
        <ele>51</ele>
        <time>2012-09-09T12:51:49Z</time>
      </trkpt>
      <trkpt lat="44.75132" lon="-0.37052">
        <ele>51</ele>
        <time>2012-09-09T12:51:50Z</time>
      </trkpt>
      <trkpt lat="44.75131" lon="-0.37059">
        <ele>52</ele>
        <time>2012-09-09T12:51:51Z</time>
      </trkpt>
      <trkpt lat="44.7513" lon="-0.37065">
        <ele>53</ele>
        <time>2012-09-09T12:51:52Z</time>
      </trkpt>
      <trkpt lat="44.75127" lon="-0.37092">
        <ele>53</ele>
        <time>2012-09-09T12:51:56Z</time>
      </trkpt>
      <trkpt lat="44.75121" lon="-0.37164">
        <ele>53</ele>
        <time>2012-09-09T12:52:07Z</time>
      </trkpt>
      <trkpt lat="44.75116" lon="-0.37175">
        <ele>53</ele>
        <time>2012-09-09T12:52:09Z</time>
      </trkpt>
      <trkpt lat="44.75114" lon="-0.3718">
        <ele>53</ele>
        <time>2012-09-09T12:52:10Z</time>
      </trkpt>
      <trkpt lat="44.75075" lon="-0.37237">
        <ele>53</ele>
        <time>2012-09-09T12:52:22Z</time>
      </trkpt>
      <trkpt lat="44.75026" lon="-0.3731">
        <ele>55</ele>
        <time>2012-09-09T12:52:37Z</time>
      </trkpt>
      <trkpt lat="44.75015" lon="-0.37325">
        <ele>55</ele>
        <time>2012-09-09T12:52:40Z</time>
      </trkpt>
      <trkpt lat="44.74967" lon="-0.37391">
        <ele>53</ele>
        <time>2012-09-09T12:52:56Z</time>
      </trkpt>
      <trkpt lat="44.74962" lon="-0.37398">
        <ele>52</ele>
        <time>2012-09-09T12:52:58Z</time>
      </trkpt>
      <trkpt lat="44.74961" lon="-0.37402">
        <ele>52</ele>
        <time>2012-09-09T12:52:59Z</time>
      </trkpt>
      <trkpt lat="44.74968" lon="-0.37406">
        <ele>53</ele>
        <time>2012-09-09T12:53:05Z</time>
      </trkpt>
      <trkpt lat="44.74968" lon="-0.37408">
        <ele>53</ele>
        <time>2012-09-09T12:53:19Z</time>
      </trkpt>
      <trkpt lat="44.74968" lon="-0.37408">
        <ele>53</ele>
        <time>2012-09-09T12:53:26Z</time>
      </trkpt>
      <trkpt lat="44.74973" lon="-0.37401">
        <ele>53</ele>
        <time>2012-09-09T12:53:32Z</time>
      </trkpt>
      <trkpt lat="44.74992" lon="-0.37373">
        <ele>55</ele>
        <time>2012-09-09T12:53:47Z</time>
      </trkpt>
      <trkpt lat="44.75009" lon="-0.37355">
        <ele>56</ele>
        <time>2012-09-09T12:53:57Z</time>
      </trkpt>
      <trkpt lat="44.75016" lon="-0.37348">
        <ele>56</ele>
        <time>2012-09-09T12:54:02Z</time>
      </trkpt>
      <trkpt lat="44.75042" lon="-0.37317">
        <ele>58</ele>
        <time>2012-09-09T12:54:18Z</time>
      </trkpt>
      <trkpt lat="44.75067" lon="-0.37289">
        <ele>58</ele>
        <time>2012-09-09T12:54:33Z</time>
      </trkpt>
      <trkpt lat="44.75076" lon="-0.37299">
        <ele>60</ele>
        <time>2012-09-09T12:54:40Z</time>
      </trkpt>
      <trkpt lat="44.75077" lon="-0.37302">
        <ele>61</ele>
        <time>2012-09-09T12:54:42Z</time>
      </trkpt>
      <trkpt lat="44.75086" lon="-0.37311">
        <ele>63</ele>
        <time>2012-09-09T12:54:49Z</time>
      </trkpt>
      <trkpt lat="44.75105" lon="-0.37335">
        <ele>66</ele>
        <time>2012-09-09T12:55:05Z</time>
      </trkpt>
      <trkpt lat="44.75109" lon="-0.37339">
        <ele>67</ele>
        <time>2012-09-09T12:55:08Z</time>
      </trkpt>
      <trkpt lat="44.75116" lon="-0.37334">
        <ele>67</ele>
        <time>2012-09-09T12:55:13Z</time>
      </trkpt>
      <trkpt lat="44.75125" lon="-0.37333">
        <ele>68</ele>
        <time>2012-09-09T12:55:18Z</time>
      </trkpt>
      <trkpt lat="44.75142" lon="-0.37359">
        <ele>71</ele>
        <time>2012-09-09T12:55:33Z</time>
      </trkpt>
      <trkpt lat="44.75159" lon="-0.3739">
        <ele>74</ele>
        <time>2012-09-09T12:55:48Z</time>
      </trkpt>
      <trkpt lat="44.75181" lon="-0.37422">
        <ele>74</ele>
        <time>2012-09-09T12:56:03Z</time>
      </trkpt>
      <trkpt lat="44.75183" lon="-0.37424">
        <ele>75</ele>
        <time>2012-09-09T12:56:14Z</time>
      </trkpt>
      <trkpt lat="44.75189" lon="-0.37432">
        <ele>75</ele>
        <time>2012-09-09T12:56:19Z</time>
      </trkpt>
      <trkpt lat="44.75207" lon="-0.37447">
        <ele>75</ele>
        <time>2012-09-09T12:56:27Z</time>
      </trkpt>
      <trkpt lat="44.7524" lon="-0.37457">
        <ele>77</ele>
        <time>2012-09-09T12:56:39Z</time>
      </trkpt>
      <trkpt lat="44.75269" lon="-0.37459">
        <ele>79</ele>
        <time>2012-09-09T12:56:50Z</time>
      </trkpt>
      <trkpt lat="44.75292" lon="-0.37447">
        <ele>80</ele>
        <time>2012-09-09T12:57:04Z</time>
      </trkpt>
      <trkpt lat="44.7531" lon="-0.37426">
        <ele>79</ele>
        <time>2012-09-09T12:57:16Z</time>
      </trkpt>
      <trkpt lat="44.75319" lon="-0.37434">
        <ele>79</ele>
        <time>2012-09-09T12:57:25Z</time>
      </trkpt>
      <trkpt lat="44.75322" lon="-0.37437">
        <ele>79</ele>
        <time>2012-09-09T12:57:36Z</time>
      </trkpt>
      <trkpt lat="44.75345" lon="-0.37465">
        <ele>79</ele>
        <time>2012-09-09T12:57:48Z</time>
      </trkpt>
      <trkpt lat="44.75348" lon="-0.37469">
        <ele>79</ele>
        <time>2012-09-09T12:57:49Z</time>
      </trkpt>
      <trkpt lat="44.75359" lon="-0.37486">
        <ele>79</ele>
        <time>2012-09-09T12:57:53Z</time>
      </trkpt>
      <trkpt lat="44.75361" lon="-0.37491">
        <ele>79</ele>
        <time>2012-09-09T12:57:54Z</time>
      </trkpt>
      <trkpt lat="44.75363" lon="-0.37497">
        <ele>79</ele>
        <time>2012-09-09T12:57:55Z</time>
      </trkpt>
      <trkpt lat="44.75364" lon="-0.37502">
        <ele>79</ele>
        <time>2012-09-09T12:57:56Z</time>
      </trkpt>
      <trkpt lat="44.75366" lon="-0.37507">
        <ele>80</ele>
        <time>2012-09-09T12:57:57Z</time>
      </trkpt>
      <trkpt lat="44.75376" lon="-0.37579">
        <ele>80</ele>
        <time>2012-09-09T12:58:12Z</time>
      </trkpt>
      <trkpt lat="44.75388" lon="-0.3766">
        <ele>79</ele>
        <time>2012-09-09T12:58:28Z</time>
      </trkpt>
      <trkpt lat="44.75394" lon="-0.37731">
        <ele>81</ele>
        <time>2012-09-09T12:58:42Z</time>
      </trkpt>
      <trkpt lat="44.75396" lon="-0.37812">
        <ele>83</ele>
        <time>2012-09-09T12:58:58Z</time>
      </trkpt>
      <trkpt lat="44.75404" lon="-0.37889">
        <ele>85</ele>
        <time>2012-09-09T12:59:14Z</time>
      </trkpt>
      <trkpt lat="44.75423" lon="-0.37944">
        <ele>87</ele>
        <time>2012-09-09T12:59:29Z</time>
      </trkpt>
      <trkpt lat="44.75453" lon="-0.37993">
        <ele>89</ele>
        <time>2012-09-09T12:59:44Z</time>
      </trkpt>
      <trkpt lat="44.75481" lon="-0.38041">
        <ele>88</ele>
        <time>2012-09-09T13:00:01Z</time>
      </trkpt>
      <trkpt lat="44.75502" lon="-0.38082">
        <ele>87</ele>
        <time>2012-09-09T13:00:18Z</time>
      </trkpt>
      <trkpt lat="44.75505" lon="-0.38095">
        <ele>86</ele>
        <time>2012-09-09T13:00:23Z</time>
      </trkpt>
      <trkpt lat="44.75503" lon="-0.38099">
        <ele>86</ele>
        <time>2012-09-09T13:00:24Z</time>
      </trkpt>
      <trkpt lat="44.755" lon="-0.38102">
        <ele>86</ele>
        <time>2012-09-09T13:00:25Z</time>
      </trkpt>
      <trkpt lat="44.75497" lon="-0.38104">
        <ele>86</ele>
        <time>2012-09-09T13:00:26Z</time>
      </trkpt>
      <trkpt lat="44.75494" lon="-0.38107">
        <ele>87</ele>
        <time>2012-09-09T13:00:27Z</time>
      </trkpt>
      <trkpt lat="44.75455" lon="-0.38151">
        <ele>88</ele>
        <time>2012-09-09T13:00:42Z</time>
      </trkpt>
      <trkpt lat="44.75407" lon="-0.38202">
        <ele>90</ele>
        <time>2012-09-09T13:00:59Z</time>
      </trkpt>
      <trkpt lat="44.7536" lon="-0.38231">
        <ele>91</ele>
        <time>2012-09-09T13:01:14Z</time>
      </trkpt>
      <trkpt lat="44.75315" lon="-0.38263">
        <ele>91</ele>
        <time>2012-09-09T13:01:30Z</time>
      </trkpt>
      <trkpt lat="44.75311" lon="-0.38307">
        <ele>91</ele>
        <time>2012-09-09T13:01:40Z</time>
      </trkpt>
      <trkpt lat="44.75301" lon="-0.38399">
        <ele>89</ele>
        <time>2012-09-09T13:01:56Z</time>
      </trkpt>
      <trkpt lat="44.75295" lon="-0.38417">
        <ele>88</ele>
        <time>2012-09-09T13:01:59Z</time>
      </trkpt>
      <trkpt lat="44.75292" lon="-0.38423">
        <ele>88</ele>
        <time>2012-09-09T13:02:00Z</time>
      </trkpt>
      <trkpt lat="44.75289" lon="-0.38429">
        <ele>88</ele>
        <time>2012-09-09T13:02:01Z</time>
      </trkpt>
      <trkpt lat="44.75285" lon="-0.38435">
        <ele>88</ele>
        <time>2012-09-09T13:02:02Z</time>
      </trkpt>
      <trkpt lat="44.75282" lon="-0.3844">
        <ele>87</ele>
        <time>2012-09-09T13:02:03Z</time>
      </trkpt>
      <trkpt lat="44.75278" lon="-0.38444">
        <ele>87</ele>
        <time>2012-09-09T13:02:04Z</time>
      </trkpt>
      <trkpt lat="44.75273" lon="-0.38447">
        <ele>87</ele>
        <time>2012-09-09T13:02:05Z</time>
      </trkpt>
      <trkpt lat="44.75267" lon="-0.38449">
        <ele>87</ele>
        <time>2012-09-09T13:02:06Z</time>
      </trkpt>
      <trkpt lat="44.75261" lon="-0.38451">
        <ele>86</ele>
        <time>2012-09-09T13:02:07Z</time>
      </trkpt>
      <trkpt lat="44.75255" lon="-0.38452">
        <ele>86</ele>
        <time>2012-09-09T13:02:08Z</time>
      </trkpt>
      <trkpt lat="44.75233" lon="-0.38456">
        <ele>84</ele>
        <time>2012-09-09T13:02:11Z</time>
      </trkpt>
      <trkpt lat="44.75225" lon="-0.38458">
        <ele>83</ele>
        <time>2012-09-09T13:02:12Z</time>
      </trkpt>
      <trkpt lat="44.75217" lon="-0.38462">
        <ele>83</ele>
        <time>2012-09-09T13:02:13Z</time>
      </trkpt>
      <trkpt lat="44.75208" lon="-0.38468">
        <ele>82</ele>
        <time>2012-09-09T13:02:14Z</time>
      </trkpt>
      <trkpt lat="44.752" lon="-0.38475">
        <ele>81</ele>
        <time>2012-09-09T13:02:15Z</time>
      </trkpt>
      <trkpt lat="44.75193" lon="-0.38485">
        <ele>80</ele>
        <time>2012-09-09T13:02:16Z</time>
      </trkpt>
      <trkpt lat="44.75187" lon="-0.38497">
        <ele>79</ele>
        <time>2012-09-09T13:02:17Z</time>
      </trkpt>
      <trkpt lat="44.7518" lon="-0.38509">
        <ele>77</ele>
        <time>2012-09-09T13:02:18Z</time>
      </trkpt>
      <trkpt lat="44.75166" lon="-0.38535">
        <ele>74</ele>
        <time>2012-09-09T13:02:20Z</time>
      </trkpt>
      <trkpt lat="44.75146" lon="-0.38573">
        <ele>72</ele>
        <time>2012-09-09T13:02:23Z</time>
      </trkpt>
      <trkpt lat="44.75132" lon="-0.38599">
        <ele>70</ele>
        <time>2012-09-09T13:02:25Z</time>
      </trkpt>
      <trkpt lat="44.75123" lon="-0.38612">
        <ele>68</ele>
        <time>2012-09-09T13:02:26Z</time>
      </trkpt>
      <trkpt lat="44.75113" lon="-0.38622">
        <ele>67</ele>
        <time>2012-09-09T13:02:27Z</time>
      </trkpt>
      <trkpt lat="44.75095" lon="-0.3864">
        <ele>66</ele>
        <time>2012-09-09T13:02:29Z</time>
      </trkpt>
      <trkpt lat="44.75087" lon="-0.3865">
        <ele>65</ele>
        <time>2012-09-09T13:02:30Z</time>
      </trkpt>
      <trkpt lat="44.75081" lon="-0.38662">
        <ele>65</ele>
        <time>2012-09-09T13:02:31Z</time>
      </trkpt>
      <trkpt lat="44.7507" lon="-0.38686">
        <ele>63</ele>
        <time>2012-09-09T13:02:33Z</time>
      </trkpt>
      <trkpt lat="44.75041" lon="-0.38767">
        <ele>60</ele>
        <time>2012-09-09T13:02:39Z</time>
      </trkpt>
      <trkpt lat="44.75016" lon="-0.38815">
        <ele>54</ele>
        <time>2012-09-09T13:02:43Z</time>
      </trkpt>
      <trkpt lat="44.74992" lon="-0.3885">
        <ele>54</ele>
        <time>2012-09-09T13:02:46Z</time>
      </trkpt>
      <trkpt lat="44.74966" lon="-0.38887">
        <ele>51</ele>
        <time>2012-09-09T13:02:49Z</time>
      </trkpt>
      <trkpt lat="44.74941" lon="-0.38924">
        <ele>49</ele>
        <time>2012-09-09T13:02:52Z</time>
      </trkpt>
      <trkpt lat="44.74918" lon="-0.38959">
        <ele>44</ele>
        <time>2012-09-09T13:02:55Z</time>
      </trkpt>
      <trkpt lat="44.74895" lon="-0.38992">
        <ele>39</ele>
        <time>2012-09-09T13:02:58Z</time>
      </trkpt>
      <trkpt lat="44.74863" lon="-0.39041">
        <ele>34</ele>
        <time>2012-09-09T13:03:04Z</time>
      </trkpt>
      <trkpt lat="44.74861" lon="-0.39045">
        <ele>34</ele>
        <time>2012-09-09T13:03:05Z</time>
      </trkpt>
      <trkpt lat="44.74861" lon="-0.39049">
        <ele>34</ele>
        <time>2012-09-09T13:03:06Z</time>
      </trkpt>
      <trkpt lat="44.7486" lon="-0.39057">
        <ele>34</ele>
        <time>2012-09-09T13:03:14Z</time>
      </trkpt>
      <trkpt lat="44.74859" lon="-0.39058">
        <ele>34</ele>
        <time>2012-09-09T13:03:15Z</time>
      </trkpt>
      <trkpt lat="44.74857" lon="-0.3906">
        <ele>34</ele>
        <time>2012-09-09T13:03:16Z</time>
      </trkpt>
      <trkpt lat="44.74856" lon="-0.39061">
        <ele>34</ele>
        <time>2012-09-09T13:03:17Z</time>
      </trkpt>
      <trkpt lat="44.74855" lon="-0.39062">
        <ele>34</ele>
        <time>2012-09-09T13:03:18Z</time>
      </trkpt>
      <trkpt lat="44.74854" lon="-0.39062">
        <ele>34</ele>
        <time>2012-09-09T13:03:19Z</time>
      </trkpt>
      <trkpt lat="44.74852" lon="-0.39062">
        <ele>34</ele>
        <time>2012-09-09T13:03:20Z</time>
      </trkpt>
      <trkpt lat="44.74827" lon="-0.39096">
        <ele>35</ele>
        <time>2012-09-09T13:03:32Z</time>
      </trkpt>
      <trkpt lat="44.74799" lon="-0.39148">
        <ele>38</ele>
        <time>2012-09-09T13:03:45Z</time>
      </trkpt>
      <trkpt lat="44.74804" lon="-0.39198">
        <ele>42</ele>
        <time>2012-09-09T13:03:58Z</time>
      </trkpt>
      <trkpt lat="44.74832" lon="-0.3924">
        <ele>45</ele>
        <time>2012-09-09T13:04:13Z</time>
      </trkpt>
      <trkpt lat="44.74855" lon="-0.39268">
        <ele>47</ele>
        <time>2012-09-09T13:04:25Z</time>
      </trkpt>
      <trkpt lat="44.74873" lon="-0.39291">
        <ele>48</ele>
        <time>2012-09-09T13:04:36Z</time>
      </trkpt>
      <trkpt lat="44.74895" lon="-0.3932">
        <ele>50</ele>
        <time>2012-09-09T13:04:48Z</time>
      </trkpt>
      <trkpt lat="44.74909" lon="-0.39363">
        <ele>52</ele>
        <time>2012-09-09T13:05:01Z</time>
      </trkpt>
      <trkpt lat="44.74909" lon="-0.39376">
        <ele>52</ele>
        <time>2012-09-09T13:05:04Z</time>
      </trkpt>
      <trkpt lat="44.74912" lon="-0.39419">
        <ele>54</ele>
        <time>2012-09-09T13:05:15Z</time>
      </trkpt>
      <trkpt lat="44.74912" lon="-0.39423">
        <ele>54</ele>
        <time>2012-09-09T13:05:16Z</time>
      </trkpt>
      <trkpt lat="44.74911" lon="-0.39468">
        <ele>55</ele>
        <time>2012-09-09T13:05:28Z</time>
      </trkpt>
      <trkpt lat="44.74913" lon="-0.39521">
        <ele>55</ele>
        <time>2012-09-09T13:05:43Z</time>
      </trkpt>
      <trkpt lat="44.74914" lon="-0.39552">
        <ele>56</ele>
        <time>2012-09-09T13:05:53Z</time>
      </trkpt>
      <trkpt lat="44.74908" lon="-0.39591">
        <ele>58</ele>
        <time>2012-09-09T13:06:06Z</time>
      </trkpt>
      <trkpt lat="44.74908" lon="-0.39599">
        <ele>58</ele>
        <time>2012-09-09T13:06:09Z</time>
      </trkpt>
      <trkpt lat="44.74907" lon="-0.39602">
        <ele>58</ele>
        <time>2012-09-09T13:06:10Z</time>
      </trkpt>
      <trkpt lat="44.74906" lon="-0.39605">
        <ele>58</ele>
        <time>2012-09-09T13:06:11Z</time>
      </trkpt>
      <trkpt lat="44.74906" lon="-0.39607">
        <ele>58</ele>
        <time>2012-09-09T13:06:12Z</time>
      </trkpt>
      <trkpt lat="44.74904" lon="-0.3961">
        <ele>59</ele>
        <time>2012-09-09T13:06:13Z</time>
      </trkpt>
      <trkpt lat="44.74903" lon="-0.39613">
        <ele>59</ele>
        <time>2012-09-09T13:06:14Z</time>
      </trkpt>
      <trkpt lat="44.74902" lon="-0.39615">
        <ele>59</ele>
        <time>2012-09-09T13:06:15Z</time>
      </trkpt>
      <trkpt lat="44.74901" lon="-0.39617">
        <ele>59</ele>
        <time>2012-09-09T13:06:16Z</time>
      </trkpt>
      <trkpt lat="44.749" lon="-0.3962">
        <ele>59</ele>
        <time>2012-09-09T13:06:17Z</time>
      </trkpt>
      <trkpt lat="44.74898" lon="-0.39623">
        <ele>60</ele>
        <time>2012-09-09T13:06:18Z</time>
      </trkpt>
      <trkpt lat="44.74897" lon="-0.39626">
        <ele>60</ele>
        <time>2012-09-09T13:06:19Z</time>
      </trkpt>
      <trkpt lat="44.74895" lon="-0.39629">
        <ele>61</ele>
        <time>2012-09-09T13:06:20Z</time>
      </trkpt>
      <trkpt lat="44.74894" lon="-0.39632">
        <ele>61</ele>
        <time>2012-09-09T13:06:21Z</time>
      </trkpt>
      <trkpt lat="44.74893" lon="-0.39635">
        <ele>61</ele>
        <time>2012-09-09T13:06:22Z</time>
      </trkpt>
      <trkpt lat="44.74875" lon="-0.39667">
        <ele>66</ele>
        <time>2012-09-09T13:06:36Z</time>
      </trkpt>
      <trkpt lat="44.74858" lon="-0.3969">
        <ele>68</ele>
        <time>2012-09-09T13:06:46Z</time>
      </trkpt>
      <trkpt lat="44.74855" lon="-0.39692">
        <ele>68</ele>
        <time>2012-09-09T13:06:47Z</time>
      </trkpt>
      <trkpt lat="44.74853" lon="-0.39694">
        <ele>69</ele>
        <time>2012-09-09T13:06:48Z</time>
      </trkpt>
      <trkpt lat="44.74827" lon="-0.39708">
        <ele>70</ele>
        <time>2012-09-09T13:07:01Z</time>
      </trkpt>
      <trkpt lat="44.74825" lon="-0.39708">
        <ele>70</ele>
        <time>2012-09-09T13:07:02Z</time>
      </trkpt>
      <trkpt lat="44.74822" lon="-0.39708">
        <ele>70</ele>
        <time>2012-09-09T13:07:03Z</time>
      </trkpt>
      <trkpt lat="44.7482" lon="-0.39708">
        <ele>70</ele>
        <time>2012-09-09T13:07:04Z</time>
      </trkpt>
      <trkpt lat="44.74817" lon="-0.39709">
        <ele>70</ele>
        <time>2012-09-09T13:07:05Z</time>
      </trkpt>
      <trkpt lat="44.74814" lon="-0.39709">
        <ele>70</ele>
        <time>2012-09-09T13:07:06Z</time>
      </trkpt>
      <trkpt lat="44.74777" lon="-0.39707">
        <ele>70</ele>
        <time>2012-09-09T13:07:22Z</time>
      </trkpt>
      <trkpt lat="44.74772" lon="-0.39708">
        <ele>70</ele>
        <time>2012-09-09T13:07:26Z</time>
      </trkpt>
      <trkpt lat="44.74771" lon="-0.3971">
        <ele>70</ele>
        <time>2012-09-09T13:07:35Z</time>
      </trkpt>
      <trkpt lat="44.7477" lon="-0.39713">
        <ele>70</ele>
        <time>2012-09-09T13:07:47Z</time>
      </trkpt>
      <trkpt lat="44.74768" lon="-0.39707">
        <ele>70</ele>
        <time>2012-09-09T13:08:02Z</time>
      </trkpt>
      <trkpt lat="44.74765" lon="-0.39704">
        <ele>70</ele>
        <time>2012-09-09T13:08:12Z</time>
      </trkpt>
      <trkpt lat="44.74764" lon="-0.39704">
        <ele>70</ele>
        <time>2012-09-09T13:08:13Z</time>
      </trkpt>
      <trkpt lat="44.74761" lon="-0.39704">
        <ele>70</ele>
        <time>2012-09-09T13:08:14Z</time>
      </trkpt>
      <trkpt lat="44.74759" lon="-0.39703">
        <ele>70</ele>
        <time>2012-09-09T13:08:15Z</time>
      </trkpt>
      <trkpt lat="44.74757" lon="-0.39703">
        <ele>70</ele>
        <time>2012-09-09T13:08:16Z</time>
      </trkpt>
      <trkpt lat="44.74755" lon="-0.39703">
        <ele>70</ele>
        <time>2012-09-09T13:08:17Z</time>
      </trkpt>
      <trkpt lat="44.74753" lon="-0.39703">
        <ele>70</ele>
        <time>2012-09-09T13:08:18Z</time>
      </trkpt>
      <trkpt lat="44.74751" lon="-0.39703">
        <ele>71</ele>
        <time>2012-09-09T13:08:19Z</time>
      </trkpt>
      <trkpt lat="44.74748" lon="-0.39702">
        <ele>71</ele>
        <time>2012-09-09T13:08:20Z</time>
      </trkpt>
      <trkpt lat="44.74746" lon="-0.39702">
        <ele>71</ele>
        <time>2012-09-09T13:08:21Z</time>
      </trkpt>
      <trkpt lat="44.74743" lon="-0.39701">
        <ele>71</ele>
        <time>2012-09-09T13:08:22Z</time>
      </trkpt>
      <trkpt lat="44.7474" lon="-0.39701">
        <ele>71</ele>
        <time>2012-09-09T13:08:23Z</time>
      </trkpt>
      <trkpt lat="44.74738" lon="-0.397">
        <ele>71</ele>
        <time>2012-09-09T13:08:24Z</time>
      </trkpt>
      <trkpt lat="44.74713" lon="-0.39697">
        <ele>71</ele>
        <time>2012-09-09T13:08:39Z</time>
      </trkpt>
      <trkpt lat="44.7471" lon="-0.39697">
        <ele>71</ele>
        <time>2012-09-09T13:08:43Z</time>
      </trkpt>
      <trkpt lat="44.74711" lon="-0.39701">
        <ele>71</ele>
        <time>2012-09-09T13:08:45Z</time>
      </trkpt>
      <trkpt lat="44.74733" lon="-0.39721">
        <ele>70</ele>
        <time>2012-09-09T13:08:53Z</time>
      </trkpt>
      <trkpt lat="44.74775" lon="-0.39771">
        <ele>68</ele>
        <time>2012-09-09T13:09:04Z</time>
      </trkpt>
      <trkpt lat="44.74804" lon="-0.39805">
        <ele>66</ele>
        <time>2012-09-09T13:09:13Z</time>
      </trkpt>
      <trkpt lat="44.74812" lon="-0.39814">
        <ele>65</ele>
        <time>2012-09-09T13:09:15Z</time>
      </trkpt>
      <trkpt lat="44.74828" lon="-0.39829">
        <ele>64</ele>
        <time>2012-09-09T13:09:19Z</time>
      </trkpt>
      <trkpt lat="44.74834" lon="-0.39836">
        <ele>63</ele>
        <time>2012-09-09T13:09:21Z</time>
      </trkpt>
      <trkpt lat="44.74837" lon="-0.39844">
        <ele>62</ele>
        <time>2012-09-09T13:09:24Z</time>
      </trkpt>
      <trkpt lat="44.74861" lon="-0.39857">
        <ele>59</ele>
        <time>2012-09-09T13:09:33Z</time>
      </trkpt>
      <trkpt lat="44.74872" lon="-0.39848">
        <ele>58</ele>
        <time>2012-09-09T13:09:41Z</time>
      </trkpt>
      <trkpt lat="44.74875" lon="-0.3984">
        <ele>59</ele>
        <time>2012-09-09T13:09:44Z</time>
      </trkpt>
      <trkpt lat="44.74879" lon="-0.39829">
        <ele>59</ele>
        <time>2012-09-09T13:09:47Z</time>
      </trkpt>
      <trkpt lat="44.74884" lon="-0.3981">
        <ele>59</ele>
        <time>2012-09-09T13:09:53Z</time>
      </trkpt>
      <trkpt lat="44.74893" lon="-0.398">
        <ele>58</ele>
        <time>2012-09-09T13:09:56Z</time>
      </trkpt>
      <trkpt lat="44.74906" lon="-0.39769">
        <ele>56</ele>
        <time>2012-09-09T13:10:06Z</time>
      </trkpt>
      <trkpt lat="44.7491" lon="-0.39763">
        <ele>56</ele>
        <time>2012-09-09T13:10:08Z</time>
      </trkpt>
      <trkpt lat="44.74916" lon="-0.39752">
        <ele>55</ele>
        <time>2012-09-09T13:10:12Z</time>
      </trkpt>
      <trkpt lat="44.7492" lon="-0.39746">
        <ele>54</ele>
        <time>2012-09-09T13:10:15Z</time>
      </trkpt>
      <trkpt lat="44.7493" lon="-0.39734">
        <ele>52</ele>
        <time>2012-09-09T13:10:20Z</time>
      </trkpt>
      <trkpt lat="44.74933" lon="-0.39721">
        <ele>51</ele>
        <time>2012-09-09T13:10:22Z</time>
      </trkpt>
      <trkpt lat="44.74934" lon="-0.39646">
        <ele>52</ele>
        <time>2012-09-09T13:10:36Z</time>
      </trkpt>
      <trkpt lat="44.74928" lon="-0.39632">
        <ele>53</ele>
        <time>2012-09-09T13:10:48Z</time>
      </trkpt>
      <trkpt lat="44.7494" lon="-0.39622">
        <ele>51</ele>
        <time>2012-09-09T13:11:07Z</time>
      </trkpt>
      <trkpt lat="44.74947" lon="-0.39619">
        <ele>49</ele>
        <time>2012-09-09T13:11:10Z</time>
      </trkpt>
      <trkpt lat="44.74953" lon="-0.39625">
        <ele>48</ele>
        <time>2012-09-09T13:11:14Z</time>
      </trkpt>
      <trkpt lat="44.74955" lon="-0.39632">
        <ele>47</ele>
        <time>2012-09-09T13:11:16Z</time>
      </trkpt>
      <trkpt lat="44.74958" lon="-0.39648">
        <ele>47</ele>
        <time>2012-09-09T13:11:26Z</time>
      </trkpt>
      <trkpt lat="44.74963" lon="-0.39665">
        <ele>47</ele>
        <time>2012-09-09T13:11:32Z</time>
      </trkpt>
      <trkpt lat="44.74963" lon="-0.39668">
        <ele>46</ele>
        <time>2012-09-09T13:11:34Z</time>
      </trkpt>
      <trkpt lat="44.74961" lon="-0.39682">
        <ele>46</ele>
        <time>2012-09-09T13:11:49Z</time>
      </trkpt>
      <trkpt lat="44.7496" lon="-0.39679">
        <ele>46</ele>
        <time>2012-09-09T13:12:02Z</time>
      </trkpt>
      <trkpt lat="44.74951" lon="-0.39653">
        <ele>48</ele>
        <time>2012-09-09T13:12:12Z</time>
      </trkpt>
      <trkpt lat="44.7495" lon="-0.39651">
        <ele>48</ele>
        <time>2012-09-09T13:12:13Z</time>
      </trkpt>
      <trkpt lat="44.74946" lon="-0.39629">
        <ele>49</ele>
        <time>2012-09-09T13:12:19Z</time>
      </trkpt>
      <trkpt lat="44.74946" lon="-0.39626">
        <ele>49</ele>
        <time>2012-09-09T13:12:20Z</time>
      </trkpt>
      <trkpt lat="44.74945" lon="-0.3962">
        <ele>50</ele>
        <time>2012-09-09T13:12:22Z</time>
      </trkpt>
      <trkpt lat="44.74945" lon="-0.39616">
        <ele>50</ele>
        <time>2012-09-09T13:12:24Z</time>
      </trkpt>
      <trkpt lat="44.74952" lon="-0.39607">
        <ele>48</ele>
        <time>2012-09-09T13:12:39Z</time>
      </trkpt>
      <trkpt lat="44.74955" lon="-0.39605">
        <ele>47</ele>
        <time>2012-09-09T13:12:54Z</time>
      </trkpt>
      <trkpt lat="44.74955" lon="-0.396">
        <ele>47</ele>
        <time>2012-09-09T13:12:59Z</time>
      </trkpt>
      <trkpt lat="44.74967" lon="-0.3958">
        <ele>47</ele>
        <time>2012-09-09T13:13:09Z</time>
      </trkpt>
      <trkpt lat="44.74966" lon="-0.3957">
        <ele>47</ele>
        <time>2012-09-09T13:13:23Z</time>
      </trkpt>
      <trkpt lat="44.74969" lon="-0.39562">
        <ele>47</ele>
        <time>2012-09-09T13:13:37Z</time>
      </trkpt>
      <trkpt lat="44.7497" lon="-0.39559">
        <ele>47</ele>
        <time>2012-09-09T13:13:45Z</time>
      </trkpt>
      <trkpt lat="44.74971" lon="-0.39545">
        <ele>47</ele>
        <time>2012-09-09T13:14:00Z</time>
      </trkpt>
      <trkpt lat="44.74978" lon="-0.39542">
        <ele>46</ele>
        <time>2012-09-09T13:14:12Z</time>
      </trkpt>
      <trkpt lat="44.74978" lon="-0.39543">
        <ele>46</ele>
        <time>2012-09-09T13:14:24Z</time>
      </trkpt>
      <trkpt lat="44.74983" lon="-0.39541">
        <ele>46</ele>
        <time>2012-09-09T13:14:53Z</time>
      </trkpt>
      <trkpt lat="44.74984" lon="-0.39541">
        <ele>46</ele>
        <time>2012-09-09T13:15:26Z</time>
      </trkpt>
      <trkpt lat="44.74984" lon="-0.39539">
        <ele>46</ele>
        <time>2012-09-09T13:15:40Z</time>
      </trkpt>
      <trkpt lat="44.74987" lon="-0.39529">
        <ele>46</ele>
        <time>2012-09-09T13:15:52Z</time>
      </trkpt>
      <trkpt lat="44.74989" lon="-0.39525">
        <ele>45</ele>
        <time>2012-09-09T13:16:00Z</time>
      </trkpt>
      <trkpt lat="44.7499" lon="-0.3951">
        <ele>45</ele>
        <time>2012-09-09T13:16:07Z</time>
      </trkpt>
      <trkpt lat="44.74988" lon="-0.39485">
        <ele>45</ele>
        <time>2012-09-09T13:16:17Z</time>
      </trkpt>
      <trkpt lat="44.74988" lon="-0.39481">
        <ele>45</ele>
        <time>2012-09-09T13:16:19Z</time>
      </trkpt>
      <trkpt lat="44.74991" lon="-0.3947">
        <ele>44</ele>
        <time>2012-09-09T13:16:32Z</time>
      </trkpt>
      <trkpt lat="44.74988" lon="-0.39464">
        <ele>45</ele>
        <time>2012-09-09T13:16:56Z</time>
      </trkpt>
      <trkpt lat="44.74987" lon="-0.3946">
        <ele>45</ele>
        <time>2012-09-09T13:17:24Z</time>
      </trkpt>
      <trkpt lat="44.74991" lon="-0.39443">
        <ele>45</ele>
        <time>2012-09-09T13:17:31Z</time>
      </trkpt>
      <trkpt lat="44.74997" lon="-0.39435">
        <ele>44</ele>
        <time>2012-09-09T13:17:36Z</time>
      </trkpt>
      <trkpt lat="44.75006" lon="-0.39424">
        <ele>43</ele>
        <time>2012-09-09T13:17:42Z</time>
      </trkpt>
      <trkpt lat="44.75028" lon="-0.39402">
        <ele>42</ele>
        <time>2012-09-09T13:17:51Z</time>
      </trkpt>
      <trkpt lat="44.7506" lon="-0.39357">
        <ele>41</ele>
        <time>2012-09-09T13:18:02Z</time>
      </trkpt>
      <trkpt lat="44.75079" lon="-0.39321">
        <ele>40</ele>
        <time>2012-09-09T13:18:11Z</time>
      </trkpt>
      <trkpt lat="44.7508" lon="-0.39308">
        <ele>40</ele>
        <time>2012-09-09T13:18:14Z</time>
      </trkpt>
      <trkpt lat="44.75083" lon="-0.39287">
        <ele>40</ele>
        <time>2012-09-09T13:18:21Z</time>
      </trkpt>
      <trkpt lat="44.75079" lon="-0.39281">
        <ele>40</ele>
        <time>2012-09-09T13:18:25Z</time>
      </trkpt>
      <trkpt lat="44.75069" lon="-0.39268">
        <ele>40</ele>
        <time>2012-09-09T13:18:31Z</time>
      </trkpt>
      <trkpt lat="44.7506" lon="-0.39263">
        <ele>40</ele>
        <time>2012-09-09T13:18:42Z</time>
      </trkpt>
      <trkpt lat="44.75055" lon="-0.3926">
        <ele>40</ele>
        <time>2012-09-09T13:18:53Z</time>
      </trkpt>
      <trkpt lat="44.75049" lon="-0.39261">
        <ele>41</ele>
        <time>2012-09-09T13:19:07Z</time>
      </trkpt>
      <trkpt lat="44.75045" lon="-0.3926">
        <ele>41</ele>
        <time>2012-09-09T13:19:11Z</time>
      </trkpt>
      <trkpt lat="44.75037" lon="-0.39259">
        <ele>41</ele>
        <time>2012-09-09T13:19:24Z</time>
      </trkpt>
      <trkpt lat="44.75018" lon="-0.3926">
        <ele>41</ele>
        <time>2012-09-09T13:19:37Z</time>
      </trkpt>
      <trkpt lat="44.75011" lon="-0.39261">
        <ele>41</ele>
        <time>2012-09-09T13:19:52Z</time>
      </trkpt>
      <trkpt lat="44.75005" lon="-0.39262">
        <ele>42</ele>
        <time>2012-09-09T13:19:59Z</time>
      </trkpt>
      <trkpt lat="44.75001" lon="-0.39265">
        <ele>42</ele>
        <time>2012-09-09T13:20:08Z</time>
      </trkpt>
      <trkpt lat="44.74974" lon="-0.39257">
        <ele>42</ele>
        <time>2012-09-09T13:20:20Z</time>
      </trkpt>
      <trkpt lat="44.74961" lon="-0.39254">
        <ele>42</ele>
        <time>2012-09-09T13:20:33Z</time>
      </trkpt>
      <trkpt lat="44.74953" lon="-0.39254">
        <ele>42</ele>
        <time>2012-09-09T13:20:42Z</time>
      </trkpt>
      <trkpt lat="44.74931" lon="-0.39245">
        <ele>42</ele>
        <time>2012-09-09T13:20:56Z</time>
      </trkpt>
      <trkpt lat="44.74924" lon="-0.39241">
        <ele>42</ele>
        <time>2012-09-09T13:21:01Z</time>
      </trkpt>
      <trkpt lat="44.7492" lon="-0.39232">
        <ele>41</ele>
        <time>2012-09-09T13:21:05Z</time>
      </trkpt>
      <trkpt lat="44.74914" lon="-0.39221">
        <ele>40</ele>
        <time>2012-09-09T13:21:11Z</time>
      </trkpt>
      <trkpt lat="44.74894" lon="-0.39209">
        <ele>39</ele>
        <time>2012-09-09T13:21:21Z</time>
      </trkpt>
      <trkpt lat="44.74888" lon="-0.39205">
        <ele>39</ele>
        <time>2012-09-09T13:21:34Z</time>
      </trkpt>
      <trkpt lat="44.74877" lon="-0.39196">
        <ele>38</ele>
        <time>2012-09-09T13:21:46Z</time>
      </trkpt>
      <trkpt lat="44.74867" lon="-0.39178">
        <ele>37</ele>
        <time>2012-09-09T13:21:54Z</time>
      </trkpt>
      <trkpt lat="44.7486" lon="-0.39172">
        <ele>37</ele>
        <time>2012-09-09T13:21:58Z</time>
      </trkpt>
      <trkpt lat="44.74852" lon="-0.39149">
        <ele>35</ele>
        <time>2012-09-09T13:22:06Z</time>
      </trkpt>
      <trkpt lat="44.74844" lon="-0.39121">
        <ele>35</ele>
        <time>2012-09-09T13:22:17Z</time>
      </trkpt>
      <trkpt lat="44.74842" lon="-0.3911">
        <ele>34</ele>
        <time>2012-09-09T13:22:22Z</time>
      </trkpt>
      <trkpt lat="44.74839" lon="-0.39089">
        <ele>34</ele>
        <time>2012-09-09T13:22:34Z</time>
      </trkpt>
      <trkpt lat="44.74839" lon="-0.39081">
        <ele>34</ele>
        <time>2012-09-09T13:22:44Z</time>
      </trkpt>
      <trkpt lat="44.7484" lon="-0.39076">
        <ele>34</ele>
        <time>2012-09-09T13:22:59Z</time>
      </trkpt>
      <trkpt lat="44.7484" lon="-0.39075">
        <ele>34</ele>
        <time>2012-09-09T13:23:23Z</time>
      </trkpt>
      <trkpt lat="44.7484" lon="-0.39073">
        <ele>34</ele>
        <time>2012-09-09T13:23:50Z</time>
      </trkpt>
      <trkpt lat="44.74844" lon="-0.39064">
        <ele>34</ele>
        <time>2012-09-09T13:24:03Z</time>
      </trkpt>
      <trkpt lat="44.74861" lon="-0.39065">
        <ele>34</ele>
        <time>2012-09-09T13:24:11Z</time>
      </trkpt>
      <trkpt lat="44.74897" lon="-0.39071">
        <ele>35</ele>
        <time>2012-09-09T13:24:22Z</time>
      </trkpt>
      <trkpt lat="44.74901" lon="-0.39071">
        <ele>35</ele>
        <time>2012-09-09T13:24:30Z</time>
      </trkpt>
      <trkpt lat="44.74902" lon="-0.39072">
        <ele>35</ele>
        <time>2012-09-09T13:24:49Z</time>
      </trkpt>
      <trkpt lat="44.74925" lon="-0.3908">
        <ele>35</ele>
        <time>2012-09-09T13:25:00Z</time>
      </trkpt>
      <trkpt lat="44.74955" lon="-0.39089">
        <ele>36</ele>
        <time>2012-09-09T13:25:09Z</time>
      </trkpt>
      <trkpt lat="44.74968" lon="-0.39092">
        <ele>37</ele>
        <time>2012-09-09T13:25:12Z</time>
      </trkpt>
      <trkpt lat="44.74997" lon="-0.39101">
        <ele>39</ele>
        <time>2012-09-09T13:25:20Z</time>
      </trkpt>
      <trkpt lat="44.75022" lon="-0.39108">
        <ele>41</ele>
        <time>2012-09-09T13:25:26Z</time>
      </trkpt>
      <trkpt lat="44.75027" lon="-0.39109">
        <ele>41</ele>
        <time>2012-09-09T13:25:27Z</time>
      </trkpt>
      <trkpt lat="44.75031" lon="-0.3911">
        <ele>41</ele>
        <time>2012-09-09T13:25:28Z</time>
      </trkpt>
      <trkpt lat="44.75036" lon="-0.3911">
        <ele>41</ele>
        <time>2012-09-09T13:25:29Z</time>
      </trkpt>
      <trkpt lat="44.7504" lon="-0.39112">
        <ele>41</ele>
        <time>2012-09-09T13:25:30Z</time>
      </trkpt>
      <trkpt lat="44.75078" lon="-0.39126">
        <ele>42</ele>
        <time>2012-09-09T13:25:40Z</time>
      </trkpt>
      <trkpt lat="44.75112" lon="-0.39158">
        <ele>40</ele>
        <time>2012-09-09T13:25:50Z</time>
      </trkpt>
      <trkpt lat="44.75136" lon="-0.39182">
        <ele>42</ele>
        <time>2012-09-09T13:25:57Z</time>
      </trkpt>
      <trkpt lat="44.75179" lon="-0.39221">
        <ele>41</ele>
        <time>2012-09-09T13:26:10Z</time>
      </trkpt>
      <trkpt lat="44.75223" lon="-0.39237">
        <ele>41</ele>
        <time>2012-09-09T13:26:23Z</time>
      </trkpt>
      <trkpt lat="44.75257" lon="-0.39255">
        <ele>41</ele>
        <time>2012-09-09T13:26:35Z</time>
      </trkpt>
      <trkpt lat="44.75277" lon="-0.39279">
        <ele>42</ele>
        <time>2012-09-09T13:26:47Z</time>
      </trkpt>
      <trkpt lat="44.75277" lon="-0.39282">
        <ele>42</ele>
        <time>2012-09-09T13:26:48Z</time>
      </trkpt>
      <trkpt lat="44.75276" lon="-0.393">
        <ele>45</ele>
        <time>2012-09-09T13:26:56Z</time>
      </trkpt>
      <trkpt lat="44.75275" lon="-0.39302">
        <ele>45</ele>
        <time>2012-09-09T13:26:57Z</time>
      </trkpt>
      <trkpt lat="44.75274" lon="-0.39303">
        <ele>45</ele>
        <time>2012-09-09T13:26:58Z</time>
      </trkpt>
      <trkpt lat="44.75273" lon="-0.39304">
        <ele>45</ele>
        <time>2012-09-09T13:26:59Z</time>
      </trkpt>
      <trkpt lat="44.75272" lon="-0.39306">
        <ele>45</ele>
        <time>2012-09-09T13:27:00Z</time>
      </trkpt>
      <trkpt lat="44.75271" lon="-0.39308">
        <ele>45</ele>
        <time>2012-09-09T13:27:01Z</time>
      </trkpt>
      <trkpt lat="44.7527" lon="-0.39309">
        <ele>46</ele>
        <time>2012-09-09T13:27:02Z</time>
      </trkpt>
      <trkpt lat="44.75254" lon="-0.39335">
        <ele>48</ele>
        <time>2012-09-09T13:27:15Z</time>
      </trkpt>
      <trkpt lat="44.75247" lon="-0.39347">
        <ele>49</ele>
        <time>2012-09-09T13:27:20Z</time>
      </trkpt>
      <trkpt lat="44.75229" lon="-0.39386">
        <ele>51</ele>
        <time>2012-09-09T13:27:34Z</time>
      </trkpt>
      <trkpt lat="44.75227" lon="-0.39392">
        <ele>51</ele>
        <time>2012-09-09T13:27:36Z</time>
      </trkpt>
      <trkpt lat="44.75227" lon="-0.39395">
        <ele>51</ele>
        <time>2012-09-09T13:27:37Z</time>
      </trkpt>
      <trkpt lat="44.75225" lon="-0.39425">
        <ele>54</ele>
        <time>2012-09-09T13:27:47Z</time>
      </trkpt>
      <trkpt lat="44.75225" lon="-0.39428">
        <ele>54</ele>
        <time>2012-09-09T13:27:48Z</time>
      </trkpt>
      <trkpt lat="44.75225" lon="-0.39431">
        <ele>54</ele>
        <time>2012-09-09T13:27:49Z</time>
      </trkpt>
      <trkpt lat="44.75225" lon="-0.39434">
        <ele>54</ele>
        <time>2012-09-09T13:27:50Z</time>
      </trkpt>
      <trkpt lat="44.75225" lon="-0.39437">
        <ele>54</ele>
        <time>2012-09-09T13:27:51Z</time>
      </trkpt>
      <trkpt lat="44.75225" lon="-0.3944">
        <ele>54</ele>
        <time>2012-09-09T13:27:52Z</time>
      </trkpt>
      <trkpt lat="44.75225" lon="-0.39443">
        <ele>54</ele>
        <time>2012-09-09T13:27:53Z</time>
      </trkpt>
      <trkpt lat="44.75225" lon="-0.39446">
        <ele>54</ele>
        <time>2012-09-09T13:27:54Z</time>
      </trkpt>
      <trkpt lat="44.75225" lon="-0.39449">
        <ele>54</ele>
        <time>2012-09-09T13:27:55Z</time>
      </trkpt>
      <trkpt lat="44.75229" lon="-0.39461">
        <ele>55</ele>
        <time>2012-09-09T13:28:00Z</time>
      </trkpt>
      <trkpt lat="44.75242" lon="-0.39467">
        <ele>58</ele>
        <time>2012-09-09T13:28:10Z</time>
      </trkpt>
      <trkpt lat="44.75243" lon="-0.39466">
        <ele>58</ele>
        <time>2012-09-09T13:28:11Z</time>
      </trkpt>
      <trkpt lat="44.75244" lon="-0.39466">
        <ele>58</ele>
        <time>2012-09-09T13:28:12Z</time>
      </trkpt>
      <trkpt lat="44.75265" lon="-0.3945">
        <ele>61</ele>
        <time>2012-09-09T13:28:26Z</time>
      </trkpt>
      <trkpt lat="44.75266" lon="-0.39449">
        <ele>61</ele>
        <time>2012-09-09T13:28:27Z</time>
      </trkpt>
      <trkpt lat="44.75268" lon="-0.39448">
        <ele>61</ele>
        <time>2012-09-09T13:28:28Z</time>
      </trkpt>
      <trkpt lat="44.75269" lon="-0.39447">
        <ele>61</ele>
        <time>2012-09-09T13:28:29Z</time>
      </trkpt>
      <trkpt lat="44.75289" lon="-0.3943">
        <ele>63</ele>
        <time>2012-09-09T13:28:44Z</time>
      </trkpt>
      <trkpt lat="44.75294" lon="-0.39426">
        <ele>63</ele>
        <time>2012-09-09T13:28:47Z</time>
      </trkpt>
      <trkpt lat="44.75315" lon="-0.39416">
        <ele>64</ele>
        <time>2012-09-09T13:28:59Z</time>
      </trkpt>
      <trkpt lat="44.75336" lon="-0.39407">
        <ele>65</ele>
        <time>2012-09-09T13:29:11Z</time>
      </trkpt>
      <trkpt lat="44.75337" lon="-0.39406">
        <ele>65</ele>
        <time>2012-09-09T13:29:12Z</time>
      </trkpt>
      <trkpt lat="44.75339" lon="-0.39405">
        <ele>66</ele>
        <time>2012-09-09T13:29:13Z</time>
      </trkpt>
      <trkpt lat="44.75364" lon="-0.394">
        <ele>67</ele>
        <time>2012-09-09T13:29:26Z</time>
      </trkpt>
      <trkpt lat="44.7538" lon="-0.3941">
        <ele>68</ele>
        <time>2012-09-09T13:29:35Z</time>
      </trkpt>
      <trkpt lat="44.75381" lon="-0.39412">
        <ele>68</ele>
        <time>2012-09-09T13:29:36Z</time>
      </trkpt>
      <trkpt lat="44.75382" lon="-0.39414">
        <ele>68</ele>
        <time>2012-09-09T13:29:37Z</time>
      </trkpt>
      <trkpt lat="44.75382" lon="-0.39416">
        <ele>68</ele>
        <time>2012-09-09T13:29:38Z</time>
      </trkpt>
      <trkpt lat="44.75383" lon="-0.39418">
        <ele>68</ele>
        <time>2012-09-09T13:29:39Z</time>
      </trkpt>
      <trkpt lat="44.75384" lon="-0.3942">
        <ele>68</ele>
        <time>2012-09-09T13:29:40Z</time>
      </trkpt>
      <trkpt lat="44.75385" lon="-0.39422">
        <ele>69</ele>
        <time>2012-09-09T13:29:41Z</time>
      </trkpt>
      <trkpt lat="44.75385" lon="-0.39424">
        <ele>69</ele>
        <time>2012-09-09T13:29:42Z</time>
      </trkpt>
      <trkpt lat="44.75393" lon="-0.39459">
        <ele>72</ele>
        <time>2012-09-09T13:29:56Z</time>
      </trkpt>
      <trkpt lat="44.754" lon="-0.39507">
        <ele>76</ele>
        <time>2012-09-09T13:30:13Z</time>
      </trkpt>
      <trkpt lat="44.75413" lon="-0.39561">
        <ele>79</ele>
        <time>2012-09-09T13:30:33Z</time>
      </trkpt>
      <trkpt lat="44.75423" lon="-0.39578">
        <ele>80</ele>
        <time>2012-09-09T13:30:43Z</time>
      </trkpt>
      <trkpt lat="44.75429" lon="-0.39582">
        <ele>80</ele>
        <time>2012-09-09T13:30:50Z</time>
      </trkpt>
      <trkpt lat="44.7543" lon="-0.39584">
        <ele>80</ele>
        <time>2012-09-09T13:30:51Z</time>
      </trkpt>
      <trkpt lat="44.75428" lon="-0.39588">
        <ele>80</ele>
        <time>2012-09-09T13:30:55Z</time>
      </trkpt>
      <trkpt lat="44.75427" lon="-0.39591">
        <ele>80</ele>
        <time>2012-09-09T13:30:57Z</time>
      </trkpt>
      <trkpt lat="44.75427" lon="-0.39593">
        <ele>80</ele>
        <time>2012-09-09T13:30:58Z</time>
      </trkpt>
      <trkpt lat="44.75426" lon="-0.39594">
        <ele>80</ele>
        <time>2012-09-09T13:30:59Z</time>
      </trkpt>
      <trkpt lat="44.75425" lon="-0.39595">
        <ele>80</ele>
        <time>2012-09-09T13:31:00Z</time>
      </trkpt>
      <trkpt lat="44.75424" lon="-0.39622">
        <ele>80</ele>
        <time>2012-09-09T13:31:10Z</time>
      </trkpt>
      <trkpt lat="44.75433" lon="-0.39672">
        <ele>77</ele>
        <time>2012-09-09T13:31:21Z</time>
      </trkpt>
      <trkpt lat="44.75436" lon="-0.39684">
        <ele>76</ele>
        <time>2012-09-09T13:31:23Z</time>
      </trkpt>
      <trkpt lat="44.75448" lon="-0.39718">
        <ele>71</ele>
        <time>2012-09-09T13:31:30Z</time>
      </trkpt>
      <trkpt lat="44.75451" lon="-0.39727">
        <ele>70</ele>
        <time>2012-09-09T13:31:32Z</time>
      </trkpt>
      <trkpt lat="44.75442" lon="-0.39754">
        <ele>65</ele>
        <time>2012-09-09T13:31:37Z</time>
      </trkpt>
      <trkpt lat="44.75439" lon="-0.39761">
        <ele>64</ele>
        <time>2012-09-09T13:31:38Z</time>
      </trkpt>
      <trkpt lat="44.75421" lon="-0.39788">
        <ele>57</ele>
        <time>2012-09-09T13:31:43Z</time>
      </trkpt>
      <trkpt lat="44.75413" lon="-0.39801">
        <ele>53</ele>
        <time>2012-09-09T13:31:47Z</time>
      </trkpt>
      <trkpt lat="44.75414" lon="-0.39809">
        <ele>53</ele>
        <time>2012-09-09T13:31:49Z</time>
      </trkpt>
      <trkpt lat="44.75417" lon="-0.39815">
        <ele>53</ele>
        <time>2012-09-09T13:31:50Z</time>
      </trkpt>
      <trkpt lat="44.7542" lon="-0.39821">
        <ele>52</ele>
        <time>2012-09-09T13:31:51Z</time>
      </trkpt>
      <trkpt lat="44.75423" lon="-0.39827">
        <ele>52</ele>
        <time>2012-09-09T13:31:52Z</time>
      </trkpt>
      <trkpt lat="44.75426" lon="-0.39833">
        <ele>52</ele>
        <time>2012-09-09T13:31:53Z</time>
      </trkpt>
      <trkpt lat="44.75429" lon="-0.39838">
        <ele>52</ele>
        <time>2012-09-09T13:31:54Z</time>
      </trkpt>
      <trkpt lat="44.7543" lon="-0.39843">
        <ele>52</ele>
        <time>2012-09-09T13:31:55Z</time>
      </trkpt>
      <trkpt lat="44.75432" lon="-0.3985">
        <ele>51</ele>
        <time>2012-09-09T13:31:57Z</time>
      </trkpt>
      <trkpt lat="44.75434" lon="-0.39854">
        <ele>51</ele>
        <time>2012-09-09T13:32:00Z</time>
      </trkpt>
      <trkpt lat="44.75434" lon="-0.39858">
        <ele>51</ele>
        <time>2012-09-09T13:32:12Z</time>
      </trkpt>
      <trkpt lat="44.75437" lon="-0.39863">
        <ele>50</ele>
        <time>2012-09-09T13:32:25Z</time>
      </trkpt>
      <trkpt lat="44.75442" lon="-0.39861">
        <ele>51</ele>
        <time>2012-09-09T13:32:38Z</time>
      </trkpt>
      <trkpt lat="44.75445" lon="-0.39858">
        <ele>52</ele>
        <time>2012-09-09T13:32:47Z</time>
      </trkpt>
      <trkpt lat="44.75448" lon="-0.39852">
        <ele>53</ele>
        <time>2012-09-09T13:32:51Z</time>
      </trkpt>
      <trkpt lat="44.75452" lon="-0.39839">
        <ele>54</ele>
        <time>2012-09-09T13:33:04Z</time>
      </trkpt>
      <trkpt lat="44.75453" lon="-0.39838">
        <ele>54</ele>
        <time>2012-09-09T13:33:05Z</time>
      </trkpt>
      <trkpt lat="44.75458" lon="-0.39826">
        <ele>56</ele>
        <time>2012-09-09T13:33:11Z</time>
      </trkpt>
      <trkpt lat="44.75461" lon="-0.39824">
        <ele>56</ele>
        <time>2012-09-09T13:33:13Z</time>
      </trkpt>
      <trkpt lat="44.75469" lon="-0.39807">
        <ele>58</ele>
        <time>2012-09-09T13:33:20Z</time>
      </trkpt>
      <trkpt lat="44.75479" lon="-0.39797">
        <ele>60</ele>
        <time>2012-09-09T13:33:26Z</time>
      </trkpt>
      <trkpt lat="44.75497" lon="-0.39808">
        <ele>59</ele>
        <time>2012-09-09T13:33:38Z</time>
      </trkpt>
      <trkpt lat="44.75499" lon="-0.39811">
        <ele>59</ele>
        <time>2012-09-09T13:33:39Z</time>
      </trkpt>
      <trkpt lat="44.75504" lon="-0.3982">
        <ele>60</ele>
        <time>2012-09-09T13:33:46Z</time>
      </trkpt>
      <trkpt lat="44.75501" lon="-0.39823">
        <ele>59</ele>
        <time>2012-09-09T13:33:49Z</time>
      </trkpt>
      <trkpt lat="44.75487" lon="-0.3984">
        <ele>58</ele>
        <time>2012-09-09T13:33:58Z</time>
      </trkpt>
      <trkpt lat="44.75485" lon="-0.39853">
        <ele>57</ele>
        <time>2012-09-09T13:34:03Z</time>
      </trkpt>
      <trkpt lat="44.75492" lon="-0.39874">
        <ele>57</ele>
        <time>2012-09-09T13:34:11Z</time>
      </trkpt>
      <trkpt lat="44.75494" lon="-0.39884">
        <ele>58</ele>
        <time>2012-09-09T13:34:14Z</time>
      </trkpt>
      <trkpt lat="44.755" lon="-0.39897">
        <ele>59</ele>
        <time>2012-09-09T13:34:20Z</time>
      </trkpt>
      <trkpt lat="44.75514" lon="-0.39912">
        <ele>62</ele>
        <time>2012-09-09T13:34:31Z</time>
      </trkpt>
      <trkpt lat="44.75519" lon="-0.39917">
        <ele>63</ele>
        <time>2012-09-09T13:34:34Z</time>
      </trkpt>
      <trkpt lat="44.75531" lon="-0.3993">
        <ele>65</ele>
        <time>2012-09-09T13:34:46Z</time>
      </trkpt>
      <trkpt lat="44.75536" lon="-0.39942">
        <ele>66</ele>
        <time>2012-09-09T13:34:57Z</time>
      </trkpt>
      <trkpt lat="44.75538" lon="-0.39943">
        <ele>67</ele>
        <time>2012-09-09T13:35:13Z</time>
      </trkpt>
      <trkpt lat="44.75543" lon="-0.3994">
        <ele>68</ele>
        <time>2012-09-09T13:35:27Z</time>
      </trkpt>
      <trkpt lat="44.75547" lon="-0.39942">
        <ele>68</ele>
        <time>2012-09-09T13:35:40Z</time>
      </trkpt>
      <trkpt lat="44.7555" lon="-0.39945">
        <ele>69</ele>
        <time>2012-09-09T13:35:50Z</time>
      </trkpt>
      <trkpt lat="44.75556" lon="-0.39946">
        <ele>70</ele>
        <time>2012-09-09T13:36:05Z</time>
      </trkpt>
      <trkpt lat="44.75561" lon="-0.39946">
        <ele>71</ele>
        <time>2012-09-09T13:36:20Z</time>
      </trkpt>
      <trkpt lat="44.75565" lon="-0.39947">
        <ele>71</ele>
        <time>2012-09-09T13:36:34Z</time>
      </trkpt>
      <trkpt lat="44.75575" lon="-0.39943">
        <ele>74</ele>
        <time>2012-09-09T13:36:46Z</time>
      </trkpt>
      <trkpt lat="44.75577" lon="-0.39944">
        <ele>74</ele>
        <time>2012-09-09T13:37:01Z</time>
      </trkpt>
      <trkpt lat="44.75576" lon="-0.39944">
        <ele>74</ele>
        <time>2012-09-09T13:37:18Z</time>
      </trkpt>
      <trkpt lat="44.75577" lon="-0.39944">
        <ele>74</ele>
        <time>2012-09-09T13:37:38Z</time>
      </trkpt>
      <trkpt lat="44.75578" lon="-0.39942">
        <ele>74</ele>
        <time>2012-09-09T13:37:54Z</time>
      </trkpt>
      <trkpt lat="44.75579" lon="-0.39944">
        <ele>74</ele>
        <time>2012-09-09T13:38:14Z</time>
      </trkpt>
      <trkpt lat="44.7558" lon="-0.39942">
        <ele>75</ele>
        <time>2012-09-09T13:38:34Z</time>
      </trkpt>
      <trkpt lat="44.7558" lon="-0.39942">
        <ele>75</ele>
        <time>2012-09-09T13:38:52Z</time>
      </trkpt>
      <trkpt lat="44.75579" lon="-0.39943">
        <ele>75</ele>
        <time>2012-09-09T13:39:12Z</time>
      </trkpt>
      <trkpt lat="44.75579" lon="-0.39943">
        <ele>75</ele>
        <time>2012-09-09T13:39:35Z</time>
      </trkpt>
      <trkpt lat="44.75579" lon="-0.39942">
        <ele>75</ele>
        <time>2012-09-09T13:39:55Z</time>
      </trkpt>
      <trkpt lat="44.75579" lon="-0.39941">
        <ele>75</ele>
        <time>2012-09-09T13:40:20Z</time>
      </trkpt>
      <trkpt lat="44.75579" lon="-0.39941">
        <ele>75</ele>
        <time>2012-09-09T13:40:45Z</time>
      </trkpt>
      <trkpt lat="44.75579" lon="-0.39941">
        <ele>75</ele>
        <time>2012-09-09T13:41:11Z</time>
      </trkpt>
      <trkpt lat="44.75579" lon="-0.39942">
        <ele>75</ele>
        <time>2012-09-09T13:41:43Z</time>
      </trkpt>
      <trkpt lat="44.75579" lon="-0.39942">
        <ele>75</ele>
        <time>2012-09-09T13:42:13Z</time>
      </trkpt>
      <trkpt lat="44.75579" lon="-0.39942">
        <ele>75</ele>
        <time>2012-09-09T13:42:44Z</time>
      </trkpt>
      <trkpt lat="44.7558" lon="-0.39941">
        <ele>75</ele>
        <time>2012-09-09T13:43:07Z</time>
      </trkpt>
      <trkpt lat="44.7558" lon="-0.39942">
        <ele>75</ele>
        <time>2012-09-09T13:43:32Z</time>
      </trkpt>
      <trkpt lat="44.7558" lon="-0.39941">
        <ele>75</ele>
        <time>2012-09-09T13:43:56Z</time>
      </trkpt>
      <trkpt lat="44.7558" lon="-0.3994">
        <ele>75</ele>
        <time>2012-09-09T13:44:14Z</time>
      </trkpt>
      <trkpt lat="44.7558" lon="-0.3993">
        <ele>75</ele>
        <time>2012-09-09T13:44:19Z</time>
      </trkpt>
      <trkpt lat="44.75584" lon="-0.39926">
        <ele>75</ele>
        <time>2012-09-09T13:44:29Z</time>
      </trkpt>
      <trkpt lat="44.75585" lon="-0.39926">
        <ele>75</ele>
        <time>2012-09-09T13:44:46Z</time>
      </trkpt>
      <trkpt lat="44.75584" lon="-0.39926">
        <ele>75</ele>
        <time>2012-09-09T13:44:53Z</time>
      </trkpt>
      <trkpt lat="44.75581" lon="-0.39939">
        <ele>75</ele>
        <time>2012-09-09T13:45:04Z</time>
      </trkpt>
      <trkpt lat="44.75583" lon="-0.39957">
        <ele>74</ele>
        <time>2012-09-09T13:45:13Z</time>
      </trkpt>
      <trkpt lat="44.75583" lon="-0.39962">
        <ele>74</ele>
        <time>2012-09-09T13:45:15Z</time>
      </trkpt>
      <trkpt lat="44.75584" lon="-0.39967">
        <ele>73</ele>
        <time>2012-09-09T13:45:18Z</time>
      </trkpt>
      <trkpt lat="44.75583" lon="-0.39972">
        <ele>73</ele>
        <time>2012-09-09T13:45:30Z</time>
      </trkpt>
      <trkpt lat="44.75583" lon="-0.3998">
        <ele>72</ele>
        <time>2012-09-09T13:45:43Z</time>
      </trkpt>
      <trkpt lat="44.75583" lon="-0.39981">
        <ele>72</ele>
        <time>2012-09-09T13:45:44Z</time>
      </trkpt>
      <trkpt lat="44.75581" lon="-0.39986">
        <ele>72</ele>
        <time>2012-09-09T13:45:47Z</time>
      </trkpt>
      <trkpt lat="44.75579" lon="-0.39987">
        <ele>71</ele>
        <time>2012-09-09T13:45:49Z</time>
      </trkpt>
      <trkpt lat="44.75584" lon="-0.39998">
        <ele>71</ele>
        <time>2012-09-09T13:45:57Z</time>
      </trkpt>
      <trkpt lat="44.75601" lon="-0.40007">
        <ele>73</ele>
        <time>2012-09-09T13:46:08Z</time>
      </trkpt>
      <trkpt lat="44.75609" lon="-0.40009">
        <ele>74</ele>
        <time>2012-09-09T13:46:12Z</time>
      </trkpt>
      <trkpt lat="44.75623" lon="-0.40008">
        <ele>77</ele>
        <time>2012-09-09T13:46:25Z</time>
      </trkpt>
      <trkpt lat="44.75637" lon="-0.40008">
        <ele>78</ele>
        <time>2012-09-09T13:46:37Z</time>
      </trkpt>
      <trkpt lat="44.75655" lon="-0.40005">
        <ele>80</ele>
        <time>2012-09-09T13:46:48Z</time>
      </trkpt>
      <trkpt lat="44.75671" lon="-0.40015">
        <ele>81</ele>
        <time>2012-09-09T13:46:57Z</time>
      </trkpt>
      <trkpt lat="44.75671" lon="-0.40045">
        <ele>80</ele>
        <time>2012-09-09T13:47:10Z</time>
      </trkpt>
      <trkpt lat="44.75671" lon="-0.40049">
        <ele>80</ele>
        <time>2012-09-09T13:47:27Z</time>
      </trkpt>
      <trkpt lat="44.75672" lon="-0.40049">
        <ele>80</ele>
        <time>2012-09-09T13:47:29Z</time>
      </trkpt>
      <trkpt lat="44.75662" lon="-0.40057">
        <ele>79</ele>
        <time>2012-09-09T13:47:36Z</time>
      </trkpt>
      <trkpt lat="44.75655" lon="-0.40061">
        <ele>78</ele>
        <time>2012-09-09T13:47:39Z</time>
      </trkpt>
      <trkpt lat="44.7565" lon="-0.40063">
        <ele>77</ele>
        <time>2012-09-09T13:47:46Z</time>
      </trkpt>
      <trkpt lat="44.75644" lon="-0.40062">
        <ele>76</ele>
        <time>2012-09-09T13:47:54Z</time>
      </trkpt>
      <trkpt lat="44.75629" lon="-0.4006">
        <ele>74</ele>
        <time>2012-09-09T13:48:00Z</time>
      </trkpt>
      <trkpt lat="44.75623" lon="-0.40061">
        <ele>73</ele>
        <time>2012-09-09T13:48:02Z</time>
      </trkpt>
      <trkpt lat="44.75612" lon="-0.40058">
        <ele>71</ele>
        <time>2012-09-09T13:48:14Z</time>
      </trkpt>
      <trkpt lat="44.75606" lon="-0.40063">
        <ele>70</ele>
        <time>2012-09-09T13:48:23Z</time>
      </trkpt>
      <trkpt lat="44.75596" lon="-0.40071">
        <ele>68</ele>
        <time>2012-09-09T13:48:28Z</time>
      </trkpt>
      <trkpt lat="44.75585" lon="-0.40083">
        <ele>65</ele>
        <time>2012-09-09T13:48:32Z</time>
      </trkpt>
      <trkpt lat="44.75578" lon="-0.40093">
        <ele>63</ele>
        <time>2012-09-09T13:48:35Z</time>
      </trkpt>
      <trkpt lat="44.75576" lon="-0.40102">
        <ele>62</ele>
        <time>2012-09-09T13:48:39Z</time>
      </trkpt>
      <trkpt lat="44.75573" lon="-0.40113">
        <ele>61</ele>
        <time>2012-09-09T13:48:52Z</time>
      </trkpt>
      <trkpt lat="44.7557" lon="-0.40123">
        <ele>59</ele>
        <time>2012-09-09T13:49:05Z</time>
      </trkpt>
      <trkpt lat="44.75569" lon="-0.40131">
        <ele>58</ele>
        <time>2012-09-09T13:49:09Z</time>
      </trkpt>
      <trkpt lat="44.75573" lon="-0.40142">
        <ele>58</ele>
        <time>2012-09-09T13:49:16Z</time>
      </trkpt>
      <trkpt lat="44.75578" lon="-0.40155">
        <ele>59</ele>
        <time>2012-09-09T13:49:22Z</time>
      </trkpt>
      <trkpt lat="44.75583" lon="-0.4017">
        <ele>59</ele>
        <time>2012-09-09T13:49:29Z</time>
      </trkpt>
      <trkpt lat="44.7559" lon="-0.40183">
        <ele>60</ele>
        <time>2012-09-09T13:49:38Z</time>
      </trkpt>
      <trkpt lat="44.75594" lon="-0.402">
        <ele>61</ele>
        <time>2012-09-09T13:49:43Z</time>
      </trkpt>
      <trkpt lat="44.75603" lon="-0.4022">
        <ele>62</ele>
        <time>2012-09-09T13:49:49Z</time>
      </trkpt>
      <trkpt lat="44.75607" lon="-0.40231">
        <ele>63</ele>
        <time>2012-09-09T13:49:52Z</time>
      </trkpt>
      <trkpt lat="44.75607" lon="-0.40261">
        <ele>62</ele>
        <time>2012-09-09T13:50:04Z</time>
      </trkpt>
      <trkpt lat="44.75606" lon="-0.40278">
        <ele>62</ele>
        <time>2012-09-09T13:50:15Z</time>
      </trkpt>
      <trkpt lat="44.75607" lon="-0.40284">
        <ele>62</ele>
        <time>2012-09-09T13:50:25Z</time>
      </trkpt>
      <trkpt lat="44.75607" lon="-0.40286">
        <ele>62</ele>
        <time>2012-09-09T13:50:29Z</time>
      </trkpt>
      <trkpt lat="44.75608" lon="-0.40288">
        <ele>62</ele>
        <time>2012-09-09T13:50:31Z</time>
      </trkpt>
      <trkpt lat="44.75612" lon="-0.40294">
        <ele>63</ele>
        <time>2012-09-09T13:50:36Z</time>
      </trkpt>
      <trkpt lat="44.75623" lon="-0.40323">
        <ele>64</ele>
        <time>2012-09-09T13:50:47Z</time>
      </trkpt>
      <trkpt lat="44.75625" lon="-0.40335">
        <ele>64</ele>
        <time>2012-09-09T13:50:51Z</time>
      </trkpt>
      <trkpt lat="44.75639" lon="-0.40363">
        <ele>64</ele>
        <time>2012-09-09T13:51:04Z</time>
      </trkpt>
      <trkpt lat="44.75644" lon="-0.40373">
        <ele>65</ele>
        <time>2012-09-09T13:51:17Z</time>
      </trkpt>
      <trkpt lat="44.75647" lon="-0.40376">
        <ele>65</ele>
        <time>2012-09-09T13:51:22Z</time>
      </trkpt>
      <trkpt lat="44.75663" lon="-0.40381">
        <ele>66</ele>
        <time>2012-09-09T13:51:38Z</time>
      </trkpt>
      <trkpt lat="44.75665" lon="-0.40385">
        <ele>66</ele>
        <time>2012-09-09T13:51:50Z</time>
      </trkpt>
      <trkpt lat="44.75669" lon="-0.4039">
        <ele>66</ele>
        <time>2012-09-09T13:52:05Z</time>
      </trkpt>
      <trkpt lat="44.7567" lon="-0.40399">
        <ele>65</ele>
        <time>2012-09-09T13:52:09Z</time>
      </trkpt>
      <trkpt lat="44.75674" lon="-0.40417">
        <ele>64</ele>
        <time>2012-09-09T13:52:14Z</time>
      </trkpt>
      <trkpt lat="44.75682" lon="-0.40427">
        <ele>63</ele>
        <time>2012-09-09T13:52:20Z</time>
      </trkpt>
      <trkpt lat="44.75693" lon="-0.40425">
        <ele>63</ele>
        <time>2012-09-09T13:52:35Z</time>
      </trkpt>
      <trkpt lat="44.75701" lon="-0.40421">
        <ele>64</ele>
        <time>2012-09-09T13:52:47Z</time>
      </trkpt>
      <trkpt lat="44.75718" lon="-0.40413">
        <ele>66</ele>
        <time>2012-09-09T13:52:57Z</time>
      </trkpt>
      <trkpt lat="44.75719" lon="-0.40414">
        <ele>66</ele>
        <time>2012-09-09T13:52:58Z</time>
      </trkpt>
      <trkpt lat="44.75743" lon="-0.40417">
        <ele>67</ele>
        <time>2012-09-09T13:53:09Z</time>
      </trkpt>
      <trkpt lat="44.75751" lon="-0.4042">
        <ele>66</ele>
        <time>2012-09-09T13:53:13Z</time>
      </trkpt>
      <trkpt lat="44.75756" lon="-0.40423">
        <ele>66</ele>
        <time>2012-09-09T13:53:17Z</time>
      </trkpt>
      <trkpt lat="44.75763" lon="-0.40426">
        <ele>66</ele>
        <time>2012-09-09T13:53:33Z</time>
      </trkpt>
      <trkpt lat="44.75765" lon="-0.40427">
        <ele>66</ele>
        <time>2012-09-09T13:53:41Z</time>
      </trkpt>
      <trkpt lat="44.75768" lon="-0.4043">
        <ele>65</ele>
        <time>2012-09-09T13:53:46Z</time>
      </trkpt>
      <trkpt lat="44.75776" lon="-0.4043">
        <ele>66</ele>
        <time>2012-09-09T13:53:51Z</time>
      </trkpt>
      <trkpt lat="44.75793" lon="-0.40424">
        <ele>67</ele>
        <time>2012-09-09T13:54:02Z</time>
      </trkpt>
      <trkpt lat="44.75796" lon="-0.4042">
        <ele>67</ele>
        <time>2012-09-09T13:54:04Z</time>
      </trkpt>
      <trkpt lat="44.75805" lon="-0.40403">
        <ele>69</ele>
        <time>2012-09-09T13:54:18Z</time>
      </trkpt>
      <trkpt lat="44.75806" lon="-0.40399">
        <ele>70</ele>
        <time>2012-09-09T13:54:26Z</time>
      </trkpt>
      <trkpt lat="44.75807" lon="-0.40395">
        <ele>70</ele>
        <time>2012-09-09T13:54:29Z</time>
      </trkpt>
      <trkpt lat="44.75815" lon="-0.40381">
        <ele>71</ele>
        <time>2012-09-09T13:54:41Z</time>
      </trkpt>
      <trkpt lat="44.75817" lon="-0.40376">
        <ele>71</ele>
        <time>2012-09-09T13:54:53Z</time>
      </trkpt>
      <trkpt lat="44.7582" lon="-0.40373">
        <ele>71</ele>
        <time>2012-09-09T13:55:08Z</time>
      </trkpt>
      <trkpt lat="44.75825" lon="-0.40373">
        <ele>71</ele>
        <time>2012-09-09T13:55:18Z</time>
      </trkpt>
      <trkpt lat="44.75831" lon="-0.40377">
        <ele>70</ele>
        <time>2012-09-09T13:55:22Z</time>
      </trkpt>
      <trkpt lat="44.75843" lon="-0.40373">
        <ele>70</ele>
        <time>2012-09-09T13:55:28Z</time>
      </trkpt>
      <trkpt lat="44.7585" lon="-0.40376">
        <ele>70</ele>
        <time>2012-09-09T13:55:33Z</time>
      </trkpt>
      <trkpt lat="44.75852" lon="-0.40379">
        <ele>70</ele>
        <time>2012-09-09T13:55:35Z</time>
      </trkpt>
      <trkpt lat="44.75858" lon="-0.40387">
        <ele>69</ele>
        <time>2012-09-09T13:55:42Z</time>
      </trkpt>
      <trkpt lat="44.75859" lon="-0.40407">
        <ele>68</ele>
        <time>2012-09-09T13:55:49Z</time>
      </trkpt>
      <trkpt lat="44.75861" lon="-0.40418">
        <ele>67</ele>
        <time>2012-09-09T13:55:52Z</time>
      </trkpt>
      <trkpt lat="44.75863" lon="-0.40427">
        <ele>67</ele>
        <time>2012-09-09T13:55:55Z</time>
      </trkpt>
      <trkpt lat="44.75864" lon="-0.4043">
        <ele>67</ele>
        <time>2012-09-09T13:55:56Z</time>
      </trkpt>
      <trkpt lat="44.75877" lon="-0.40452">
        <ele>66</ele>
        <time>2012-09-09T13:56:03Z</time>
      </trkpt>
      <trkpt lat="44.75881" lon="-0.40463">
        <ele>66</ele>
        <time>2012-09-09T13:56:15Z</time>
      </trkpt>
      <trkpt lat="44.75884" lon="-0.40465">
        <ele>66</ele>
        <time>2012-09-09T13:56:32Z</time>
      </trkpt>
      <trkpt lat="44.75885" lon="-0.40468">
        <ele>66</ele>
        <time>2012-09-09T13:56:46Z</time>
      </trkpt>
      <trkpt lat="44.75901" lon="-0.40464">
        <ele>67</ele>
        <time>2012-09-09T13:56:57Z</time>
      </trkpt>
      <trkpt lat="44.75909" lon="-0.40472">
        <ele>68</ele>
        <time>2012-09-09T13:57:03Z</time>
      </trkpt>
      <trkpt lat="44.75917" lon="-0.40479">
        <ele>68</ele>
        <time>2012-09-09T13:57:10Z</time>
      </trkpt>
      <trkpt lat="44.75922" lon="-0.40484">
        <ele>68</ele>
        <time>2012-09-09T13:57:14Z</time>
      </trkpt>
      <trkpt lat="44.75926" lon="-0.40488">
        <ele>69</ele>
        <time>2012-09-09T13:57:17Z</time>
      </trkpt>
      <trkpt lat="44.75943" lon="-0.40501">
        <ele>71</ele>
        <time>2012-09-09T13:57:32Z</time>
      </trkpt>
      <trkpt lat="44.75947" lon="-0.405">
        <ele>72</ele>
        <time>2012-09-09T13:57:35Z</time>
      </trkpt>
      <trkpt lat="44.75956" lon="-0.40498">
        <ele>74</ele>
        <time>2012-09-09T13:57:42Z</time>
      </trkpt>
      <trkpt lat="44.75959" lon="-0.40497">
        <ele>74</ele>
        <time>2012-09-09T13:57:45Z</time>
      </trkpt>
      <trkpt lat="44.75962" lon="-0.40496">
        <ele>75</ele>
        <time>2012-09-09T13:57:47Z</time>
      </trkpt>
      <trkpt lat="44.75976" lon="-0.4049">
        <ele>76</ele>
        <time>2012-09-09T13:57:59Z</time>
      </trkpt>
      <trkpt lat="44.75982" lon="-0.40488">
        <ele>77</ele>
        <time>2012-09-09T13:58:03Z</time>
      </trkpt>
      <trkpt lat="44.75993" lon="-0.40484">
        <ele>78</ele>
        <time>2012-09-09T13:58:09Z</time>
      </trkpt>
      <trkpt lat="44.76002" lon="-0.40479">
        <ele>79</ele>
        <time>2012-09-09T13:58:13Z</time>
      </trkpt>
      <trkpt lat="44.7603" lon="-0.40471">
        <ele>81</ele>
        <time>2012-09-09T13:58:26Z</time>
      </trkpt>
      <trkpt lat="44.76056" lon="-0.40462">
        <ele>84</ele>
        <time>2012-09-09T13:58:39Z</time>
      </trkpt>
      <trkpt lat="44.76062" lon="-0.4046">
        <ele>84</ele>
        <time>2012-09-09T13:58:43Z</time>
      </trkpt>
      <trkpt lat="44.76067" lon="-0.40459">
        <ele>85</ele>
        <time>2012-09-09T13:58:46Z</time>
      </trkpt>
      <trkpt lat="44.76073" lon="-0.40457">
        <ele>85</ele>
        <time>2012-09-09T13:58:50Z</time>
      </trkpt>
      <trkpt lat="44.76092" lon="-0.40451">
        <ele>86</ele>
        <time>2012-09-09T13:59:03Z</time>
      </trkpt>
      <trkpt lat="44.76116" lon="-0.40447">
        <ele>88</ele>
        <time>2012-09-09T13:59:16Z</time>
      </trkpt>
      <trkpt lat="44.76147" lon="-0.40439">
        <ele>89</ele>
        <time>2012-09-09T13:59:30Z</time>
      </trkpt>
      <trkpt lat="44.76179" lon="-0.40429">
        <ele>89</ele>
        <time>2012-09-09T13:59:43Z</time>
      </trkpt>
      <trkpt lat="44.76183" lon="-0.40428">
        <ele>89</ele>
        <time>2012-09-09T13:59:45Z</time>
      </trkpt>
      <trkpt lat="44.76216" lon="-0.40421">
        <ele>89</ele>
        <time>2012-09-09T13:59:58Z</time>
      </trkpt>
      <trkpt lat="44.76234" lon="-0.40429">
        <ele>89</ele>
        <time>2012-09-09T14:00:04Z</time>
      </trkpt>
      <trkpt lat="44.76268" lon="-0.40432">
        <ele>88</ele>
        <time>2012-09-09T14:00:14Z</time>
      </trkpt>
      <trkpt lat="44.7628" lon="-0.40431">
        <ele>88</ele>
        <time>2012-09-09T14:00:26Z</time>
      </trkpt>
      <trkpt lat="44.76288" lon="-0.40431">
        <ele>88</ele>
        <time>2012-09-09T14:00:30Z</time>
      </trkpt>
      <trkpt lat="44.76294" lon="-0.40432">
        <ele>88</ele>
        <time>2012-09-09T14:00:34Z</time>
      </trkpt>
      <trkpt lat="44.76299" lon="-0.40442">
        <ele>87</ele>
        <time>2012-09-09T14:00:41Z</time>
      </trkpt>
      <trkpt lat="44.76325" lon="-0.40456">
        <ele>87</ele>
        <time>2012-09-09T14:00:51Z</time>
      </trkpt>
      <trkpt lat="44.76352" lon="-0.40458">
        <ele>86</ele>
        <time>2012-09-09T14:01:01Z</time>
      </trkpt>
      <trkpt lat="44.76354" lon="-0.40458">
        <ele>86</ele>
        <time>2012-09-09T14:01:02Z</time>
      </trkpt>
      <trkpt lat="44.76358" lon="-0.40458">
        <ele>85</ele>
        <time>2012-09-09T14:01:05Z</time>
      </trkpt>
      <trkpt lat="44.76366" lon="-0.40469">
        <ele>85</ele>
        <time>2012-09-09T14:01:13Z</time>
      </trkpt>
      <trkpt lat="44.76373" lon="-0.40476">
        <ele>84</ele>
        <time>2012-09-09T14:01:18Z</time>
      </trkpt>
      <trkpt lat="44.76382" lon="-0.40472">
        <ele>84</ele>
        <time>2012-09-09T14:01:28Z</time>
      </trkpt>
      <trkpt lat="44.76403" lon="-0.40468">
        <ele>85</ele>
        <time>2012-09-09T14:01:42Z</time>
      </trkpt>
      <trkpt lat="44.76429" lon="-0.40464">
        <ele>86</ele>
        <time>2012-09-09T14:01:54Z</time>
      </trkpt>
      <trkpt lat="44.76461" lon="-0.40456">
        <ele>86</ele>
        <time>2012-09-09T14:02:05Z</time>
      </trkpt>
      <trkpt lat="44.7651" lon="-0.40444">
        <ele>87</ele>
        <time>2012-09-09T14:02:18Z</time>
      </trkpt>
      <trkpt lat="44.76564" lon="-0.40433">
        <ele>87</ele>
        <time>2012-09-09T14:02:33Z</time>
      </trkpt>
      <trkpt lat="44.76616" lon="-0.40421">
        <ele>87</ele>
        <time>2012-09-09T14:02:47Z</time>
      </trkpt>
      <trkpt lat="44.76628" lon="-0.40417">
        <ele>86</ele>
        <time>2012-09-09T14:02:50Z</time>
      </trkpt>
      <trkpt lat="44.76702" lon="-0.40385">
        <ele>84</ele>
        <time>2012-09-09T14:03:06Z</time>
      </trkpt>
      <trkpt lat="44.76769" lon="-0.40359">
        <ele>84</ele>
        <time>2012-09-09T14:03:22Z</time>
      </trkpt>
      <trkpt lat="44.76764" lon="-0.40355">
        <ele>84</ele>
        <time>2012-09-09T14:04:02Z</time>
      </trkpt>
      <trkpt lat="44.76763" lon="-0.40354">
        <ele>84</ele>
        <time>2012-09-09T14:04:03Z</time>
      </trkpt>
      <trkpt lat="44.76762" lon="-0.40351">
        <ele>84</ele>
        <time>2012-09-09T14:04:05Z</time>
      </trkpt>
      <trkpt lat="44.76763" lon="-0.40342">
        <ele>83</ele>
        <time>2012-09-09T14:04:09Z</time>
      </trkpt>
      <trkpt lat="44.76764" lon="-0.40308">
        <ele>82</ele>
        <time>2012-09-09T14:04:17Z</time>
      </trkpt>
      <trkpt lat="44.76759" lon="-0.40264">
        <ele>81</ele>
        <time>2012-09-09T14:04:28Z</time>
      </trkpt>
      <trkpt lat="44.76759" lon="-0.4026">
        <ele>81</ele>
        <time>2012-09-09T14:04:40Z</time>
      </trkpt>
      <trkpt lat="44.76766" lon="-0.40249">
        <ele>80</ele>
        <time>2012-09-09T14:04:48Z</time>
      </trkpt>
      <trkpt lat="44.76769" lon="-0.40248">
        <ele>80</ele>
        <time>2012-09-09T14:04:50Z</time>
      </trkpt>
      <trkpt lat="44.76772" lon="-0.40246">
        <ele>80</ele>
        <time>2012-09-09T14:04:52Z</time>
      </trkpt>
      <trkpt lat="44.7678" lon="-0.40219">
        <ele>79</ele>
        <time>2012-09-09T14:05:03Z</time>
      </trkpt>
      <trkpt lat="44.76798" lon="-0.40185">
        <ele>78</ele>
        <time>2012-09-09T14:05:13Z</time>
      </trkpt>
      <trkpt lat="44.76803" lon="-0.40173">
        <ele>77</ele>
        <time>2012-09-09T14:05:16Z</time>
      </trkpt>
      <trkpt lat="44.76818" lon="-0.4015">
        <ele>76</ele>
        <time>2012-09-09T14:05:24Z</time>
      </trkpt>
      <trkpt lat="44.76821" lon="-0.40145">
        <ele>76</ele>
        <time>2012-09-09T14:05:25Z</time>
      </trkpt>
      <trkpt lat="44.76831" lon="-0.40127">
        <ele>74</ele>
        <time>2012-09-09T14:05:29Z</time>
      </trkpt>
      <trkpt lat="44.76831" lon="-0.40118">
        <ele>74</ele>
        <time>2012-09-09T14:05:32Z</time>
      </trkpt>
      <trkpt lat="44.7683" lon="-0.40112">
        <ele>74</ele>
        <time>2012-09-09T14:05:45Z</time>
      </trkpt>
      <trkpt lat="44.76826" lon="-0.40104">
        <ele>74</ele>
        <time>2012-09-09T14:05:56Z</time>
      </trkpt>
      <trkpt lat="44.76831" lon="-0.40092">
        <ele>73</ele>
        <time>2012-09-09T14:06:09Z</time>
      </trkpt>
      <trkpt lat="44.7684" lon="-0.40074">
        <ele>72</ele>
        <time>2012-09-09T14:06:18Z</time>
      </trkpt>
      <trkpt lat="44.76842" lon="-0.40072">
        <ele>72</ele>
        <time>2012-09-09T14:06:19Z</time>
      </trkpt>
      <trkpt lat="44.76852" lon="-0.40067">
        <ele>71</ele>
        <time>2012-09-09T14:06:28Z</time>
      </trkpt>
      <trkpt lat="44.76863" lon="-0.40054">
        <ele>71</ele>
        <time>2012-09-09T14:06:37Z</time>
      </trkpt>
      <trkpt lat="44.76865" lon="-0.40056">
        <ele>71</ele>
        <time>2012-09-09T14:06:40Z</time>
      </trkpt>
      <trkpt lat="44.76876" lon="-0.40054">
        <ele>70</ele>
        <time>2012-09-09T14:06:47Z</time>
      </trkpt>
      <trkpt lat="44.76889" lon="-0.40053">
        <ele>70</ele>
        <time>2012-09-09T14:06:58Z</time>
      </trkpt>
      <trkpt lat="44.76891" lon="-0.4006">
        <ele>70</ele>
        <time>2012-09-09T14:07:10Z</time>
      </trkpt>
      <trkpt lat="44.76892" lon="-0.40063">
        <ele>71</ele>
        <time>2012-09-09T14:07:23Z</time>
      </trkpt>
      <trkpt lat="44.76892" lon="-0.40063">
        <ele>71</ele>
        <time>2012-09-09T14:07:24Z</time>
      </trkpt>
      <trkpt lat="44.76895" lon="-0.40069">
        <ele>71</ele>
        <time>2012-09-09T14:07:28Z</time>
      </trkpt>
      <trkpt lat="44.76897" lon="-0.40072">
        <ele>71</ele>
        <time>2012-09-09T14:07:30Z</time>
      </trkpt>
      <trkpt lat="44.769" lon="-0.40087">
        <ele>72</ele>
        <time>2012-09-09T14:07:40Z</time>
      </trkpt>
      <trkpt lat="44.76888" lon="-0.40102">
        <ele>72</ele>
        <time>2012-09-09T14:07:46Z</time>
      </trkpt>
      <trkpt lat="44.76882" lon="-0.40106">
        <ele>72</ele>
        <time>2012-09-09T14:07:49Z</time>
      </trkpt>
      <trkpt lat="44.76879" lon="-0.40097">
        <ele>72</ele>
        <time>2012-09-09T14:07:56Z</time>
      </trkpt>
      <trkpt lat="44.76878" lon="-0.40087">
        <ele>71</ele>
        <time>2012-09-09T14:08:10Z</time>
      </trkpt>
      <trkpt lat="44.76875" lon="-0.40087">
        <ele>71</ele>
        <time>2012-09-09T14:08:23Z</time>
      </trkpt>
      <trkpt lat="44.76872" lon="-0.40089">
        <ele>72</ele>
        <time>2012-09-09T14:08:30Z</time>
      </trkpt>
      <trkpt lat="44.7687" lon="-0.40096">
        <ele>72</ele>
        <time>2012-09-09T14:08:35Z</time>
      </trkpt>
      <trkpt lat="44.76869" lon="-0.4011">
        <ele>73</ele>
        <time>2012-09-09T14:08:42Z</time>
      </trkpt>
      <trkpt lat="44.76861" lon="-0.40121">
        <ele>73</ele>
        <time>2012-09-09T14:08:47Z</time>
      </trkpt>
      <trkpt lat="44.76857" lon="-0.40137">
        <ele>74</ele>
        <time>2012-09-09T14:08:53Z</time>
      </trkpt>
      <trkpt lat="44.76858" lon="-0.40142">
        <ele>74</ele>
        <time>2012-09-09T14:08:56Z</time>
      </trkpt>
      <trkpt lat="44.76844" lon="-0.40169">
        <ele>76</ele>
        <time>2012-09-09T14:09:05Z</time>
      </trkpt>
      <trkpt lat="44.76842" lon="-0.4019">
        <ele>77</ele>
        <time>2012-09-09T14:09:13Z</time>
      </trkpt>
      <trkpt lat="44.76841" lon="-0.40195">
        <ele>77</ele>
        <time>2012-09-09T14:09:16Z</time>
      </trkpt>
      <trkpt lat="44.76834" lon="-0.40228">
        <ele>79</ele>
        <time>2012-09-09T14:09:27Z</time>
      </trkpt>
      <trkpt lat="44.76833" lon="-0.40231">
        <ele>79</ele>
        <time>2012-09-09T14:09:28Z</time>
      </trkpt>
      <trkpt lat="44.76816" lon="-0.40265">
        <ele>80</ele>
        <time>2012-09-09T14:09:37Z</time>
      </trkpt>
      <trkpt lat="44.76811" lon="-0.40269">
        <ele>80</ele>
        <time>2012-09-09T14:09:40Z</time>
      </trkpt>
      <trkpt lat="44.76811" lon="-0.40293">
        <ele>81</ele>
        <time>2012-09-09T14:09:50Z</time>
      </trkpt>
      <trkpt lat="44.76789" lon="-0.40302">
        <ele>82</ele>
        <time>2012-09-09T14:10:02Z</time>
      </trkpt>
      <trkpt lat="44.76776" lon="-0.40327">
        <ele>83</ele>
        <time>2012-09-09T14:10:12Z</time>
      </trkpt>
      <trkpt lat="44.76771" lon="-0.40346">
        <ele>84</ele>
        <time>2012-09-09T14:10:19Z</time>
      </trkpt>
      <trkpt lat="44.7677" lon="-0.40356">
        <ele>84</ele>
        <time>2012-09-09T14:10:31Z</time>
      </trkpt>
      <trkpt lat="44.76778" lon="-0.40354">
        <ele>84</ele>
        <time>2012-09-09T14:15:16Z</time>
      </trkpt>
      <trkpt lat="44.768" lon="-0.40336">
        <ele>83</ele>
        <time>2012-09-09T14:15:26Z</time>
      </trkpt>
      <trkpt lat="44.76806" lon="-0.40328">
        <ele>83</ele>
        <time>2012-09-09T14:15:28Z</time>
      </trkpt>
      <trkpt lat="44.76809" lon="-0.40323">
        <ele>83</ele>
        <time>2012-09-09T14:15:29Z</time>
      </trkpt>
      <trkpt lat="44.7682" lon="-0.40304">
        <ele>82</ele>
        <time>2012-09-09T14:15:32Z</time>
      </trkpt>
      <trkpt lat="44.76824" lon="-0.40298">
        <ele>82</ele>
        <time>2012-09-09T14:15:33Z</time>
      </trkpt>
      <trkpt lat="44.76828" lon="-0.40293">
        <ele>81</ele>
        <time>2012-09-09T14:15:34Z</time>
      </trkpt>
      <trkpt lat="44.76867" lon="-0.40245">
        <ele>79</ele>
        <time>2012-09-09T14:15:46Z</time>
      </trkpt>
      <trkpt lat="44.76899" lon="-0.40215">
        <ele>77</ele>
        <time>2012-09-09T14:15:57Z</time>
      </trkpt>
      <trkpt lat="44.76932" lon="-0.40199">
        <ele>77</ele>
        <time>2012-09-09T14:16:07Z</time>
      </trkpt>
      <trkpt lat="44.76977" lon="-0.40181">
        <ele>78</ele>
        <time>2012-09-09T14:16:19Z</time>
      </trkpt>
      <trkpt lat="44.77017" lon="-0.40148">
        <ele>77</ele>
        <time>2012-09-09T14:16:31Z</time>
      </trkpt>
      <trkpt lat="44.7703" lon="-0.40138">
        <ele>77</ele>
        <time>2012-09-09T14:16:34Z</time>
      </trkpt>
      <trkpt lat="44.77034" lon="-0.40134">
        <ele>77</ele>
        <time>2012-09-09T14:16:35Z</time>
      </trkpt>
      <trkpt lat="44.77073" lon="-0.40091">
        <ele>76</ele>
        <time>2012-09-09T14:16:45Z</time>
      </trkpt>
      <trkpt lat="44.77098" lon="-0.40073">
        <ele>75</ele>
        <time>2012-09-09T14:16:54Z</time>
      </trkpt>
      <trkpt lat="44.77132" lon="-0.40063">
        <ele>75</ele>
        <time>2012-09-09T14:17:03Z</time>
      </trkpt>
      <trkpt lat="44.77169" lon="-0.40059">
        <ele>75</ele>
        <time>2012-09-09T14:17:12Z</time>
      </trkpt>
      <trkpt lat="44.77212" lon="-0.40043">
        <ele>74</ele>
        <time>2012-09-09T14:17:23Z</time>
      </trkpt>
      <trkpt lat="44.77224" lon="-0.40039">
        <ele>74</ele>
        <time>2012-09-09T14:17:27Z</time>
      </trkpt>
      <trkpt lat="44.77227" lon="-0.40039">
        <ele>74</ele>
        <time>2012-09-09T14:17:29Z</time>
      </trkpt>
      <trkpt lat="44.77231" lon="-0.40041">
        <ele>74</ele>
        <time>2012-09-09T14:17:31Z</time>
      </trkpt>
      <trkpt lat="44.77242" lon="-0.40052">
        <ele>74</ele>
        <time>2012-09-09T14:17:38Z</time>
      </trkpt>
      <trkpt lat="44.77251" lon="-0.40046">
        <ele>74</ele>
        <time>2012-09-09T14:17:42Z</time>
      </trkpt>
      <trkpt lat="44.77264" lon="-0.40031">
        <ele>73</ele>
        <time>2012-09-09T14:17:46Z</time>
      </trkpt>
      <trkpt lat="44.77282" lon="-0.40011">
        <ele>72</ele>
        <time>2012-09-09T14:17:51Z</time>
      </trkpt>
      <trkpt lat="44.77291" lon="-0.40004">
        <ele>71</ele>
        <time>2012-09-09T14:17:53Z</time>
      </trkpt>
      <trkpt lat="44.77309" lon="-0.3998">
        <ele>70</ele>
        <time>2012-09-09T14:17:58Z</time>
      </trkpt>
      <trkpt lat="44.77318" lon="-0.39962">
        <ele>69</ele>
        <time>2012-09-09T14:18:01Z</time>
      </trkpt>
      <trkpt lat="44.77321" lon="-0.39957">
        <ele>69</ele>
        <time>2012-09-09T14:18:02Z</time>
      </trkpt>
      <trkpt lat="44.77341" lon="-0.3992">
        <ele>66</ele>
        <time>2012-09-09T14:18:08Z</time>
      </trkpt>
      <trkpt lat="44.77356" lon="-0.3989">
        <ele>64</ele>
        <time>2012-09-09T14:18:15Z</time>
      </trkpt>
      <trkpt lat="44.77357" lon="-0.39885">
        <ele>63</ele>
        <time>2012-09-09T14:18:16Z</time>
      </trkpt>
      <trkpt lat="44.77366" lon="-0.39864">
        <ele>60</ele>
        <time>2012-09-09T14:18:23Z</time>
      </trkpt>
      <trkpt lat="44.77379" lon="-0.39842">
        <ele>56</ele>
        <time>2012-09-09T14:18:32Z</time>
      </trkpt>
      <trkpt lat="44.7739" lon="-0.39821">
        <ele>55</ele>
        <time>2012-09-09T14:18:44Z</time>
      </trkpt>
      <trkpt lat="44.77422" lon="-0.39789">
        <ele>53</ele>
        <time>2012-09-09T14:18:56Z</time>
      </trkpt>
      <trkpt lat="44.77451" lon="-0.39757">
        <ele>51</ele>
        <time>2012-09-09T14:19:06Z</time>
      </trkpt>
      <trkpt lat="44.77453" lon="-0.39744">
        <ele>51</ele>
        <time>2012-09-09T14:19:16Z</time>
      </trkpt>
      <trkpt lat="44.77454" lon="-0.39728">
        <ele>51</ele>
        <time>2012-09-09T14:19:23Z</time>
      </trkpt>
      <trkpt lat="44.77451" lon="-0.39711">
        <ele>52</ele>
        <time>2012-09-09T14:19:29Z</time>
      </trkpt>
      <trkpt lat="44.77435" lon="-0.39662">
        <ele>53</ele>
        <time>2012-09-09T14:19:43Z</time>
      </trkpt>
      <trkpt lat="44.77433" lon="-0.3966">
        <ele>53</ele>
        <time>2012-09-09T14:19:44Z</time>
      </trkpt>
      <trkpt lat="44.77431" lon="-0.39652">
        <ele>53</ele>
        <time>2012-09-09T14:19:47Z</time>
      </trkpt>
      <trkpt lat="44.77424" lon="-0.39636">
        <ele>54</ele>
        <time>2012-09-09T14:19:51Z</time>
      </trkpt>
      <trkpt lat="44.77419" lon="-0.3963">
        <ele>54</ele>
        <time>2012-09-09T14:19:53Z</time>
      </trkpt>
      <trkpt lat="44.77416" lon="-0.39616">
        <ele>54</ele>
        <time>2012-09-09T14:19:56Z</time>
      </trkpt>
      <trkpt lat="44.77415" lon="-0.396">
        <ele>54</ele>
        <time>2012-09-09T14:20:00Z</time>
      </trkpt>
      <trkpt lat="44.77406" lon="-0.3957">
        <ele>54</ele>
        <time>2012-09-09T14:20:09Z</time>
      </trkpt>
      <trkpt lat="44.77406" lon="-0.39565">
        <ele>54</ele>
        <time>2012-09-09T14:20:11Z</time>
      </trkpt>
      <trkpt lat="44.77406" lon="-0.39536">
        <ele>54</ele>
        <time>2012-09-09T14:20:20Z</time>
      </trkpt>
      <trkpt lat="44.77402" lon="-0.39499">
        <ele>55</ele>
        <time>2012-09-09T14:20:31Z</time>
      </trkpt>
      <trkpt lat="44.77398" lon="-0.39491">
        <ele>55</ele>
        <time>2012-09-09T14:20:35Z</time>
      </trkpt>
      <trkpt lat="44.77398" lon="-0.39487">
        <ele>55</ele>
        <time>2012-09-09T14:20:37Z</time>
      </trkpt>
      <trkpt lat="44.77405" lon="-0.39476">
        <ele>55</ele>
        <time>2012-09-09T14:20:41Z</time>
      </trkpt>
      <trkpt lat="44.77404" lon="-0.3946">
        <ele>55</ele>
        <time>2012-09-09T14:20:47Z</time>
      </trkpt>
      <trkpt lat="44.77409" lon="-0.39443">
        <ele>55</ele>
        <time>2012-09-09T14:20:52Z</time>
      </trkpt>
      <trkpt lat="44.77407" lon="-0.3943">
        <ele>55</ele>
        <time>2012-09-09T14:20:56Z</time>
      </trkpt>
      <trkpt lat="44.77404" lon="-0.39397">
        <ele>55</ele>
        <time>2012-09-09T14:21:10Z</time>
      </trkpt>
      <trkpt lat="44.77406" lon="-0.3937">
        <ele>54</ele>
        <time>2012-09-09T14:21:19Z</time>
      </trkpt>
      <trkpt lat="44.77403" lon="-0.39355">
        <ele>54</ele>
        <time>2012-09-09T14:21:25Z</time>
      </trkpt>
      <trkpt lat="44.77392" lon="-0.39333">
        <ele>54</ele>
        <time>2012-09-09T14:21:35Z</time>
      </trkpt>
      <trkpt lat="44.7739" lon="-0.3932">
        <ele>54</ele>
        <time>2012-09-09T14:21:39Z</time>
      </trkpt>
      <trkpt lat="44.77382" lon="-0.39306">
        <ele>55</ele>
        <time>2012-09-09T14:21:46Z</time>
      </trkpt>
      <trkpt lat="44.77375" lon="-0.39286">
        <ele>55</ele>
        <time>2012-09-09T14:21:53Z</time>
      </trkpt>
      <trkpt lat="44.77374" lon="-0.39281">
        <ele>55</ele>
        <time>2012-09-09T14:21:55Z</time>
      </trkpt>
      <trkpt lat="44.7737" lon="-0.39261">
        <ele>55</ele>
        <time>2012-09-09T14:22:00Z</time>
      </trkpt>
      <trkpt lat="44.77361" lon="-0.39222">
        <ele>55</ele>
        <time>2012-09-09T14:22:09Z</time>
      </trkpt>
      <trkpt lat="44.77356" lon="-0.39202">
        <ele>55</ele>
        <time>2012-09-09T14:22:14Z</time>
      </trkpt>
      <trkpt lat="44.77345" lon="-0.39188">
        <ele>56</ele>
        <time>2012-09-09T14:22:20Z</time>
      </trkpt>
      <trkpt lat="44.77344" lon="-0.39172">
        <ele>56</ele>
        <time>2012-09-09T14:22:27Z</time>
      </trkpt>
      <trkpt lat="44.77348" lon="-0.39167">
        <ele>55</ele>
        <time>2012-09-09T14:22:30Z</time>
      </trkpt>
      <trkpt lat="44.7735" lon="-0.39167">
        <ele>55</ele>
        <time>2012-09-09T14:22:32Z</time>
      </trkpt>
      <trkpt lat="44.77353" lon="-0.39174">
        <ele>55</ele>
        <time>2012-09-09T14:22:37Z</time>
      </trkpt>
      <trkpt lat="44.77336" lon="-0.39171">
        <ele>57</ele>
        <time>2012-09-09T14:22:49Z</time>
      </trkpt>
      <trkpt lat="44.77334" lon="-0.3917">
        <ele>57</ele>
        <time>2012-09-09T14:22:51Z</time>
      </trkpt>
      <trkpt lat="44.7733" lon="-0.39165">
        <ele>58</ele>
        <time>2012-09-09T14:22:55Z</time>
      </trkpt>
      <trkpt lat="44.7733" lon="-0.39155">
        <ele>57</ele>
        <time>2012-09-09T14:23:08Z</time>
      </trkpt>
      <trkpt lat="44.77332" lon="-0.39154">
        <ele>57</ele>
        <time>2012-09-09T14:23:38Z</time>
      </trkpt>
      <trkpt lat="44.77332" lon="-0.39152">
        <ele>57</ele>
        <time>2012-09-09T14:23:51Z</time>
      </trkpt>
      <trkpt lat="44.77339" lon="-0.39131">
        <ele>56</ele>
        <time>2012-09-09T14:24:00Z</time>
      </trkpt>
      <trkpt lat="44.77339" lon="-0.39114">
        <ele>56</ele>
        <time>2012-09-09T14:24:05Z</time>
      </trkpt>
      <trkpt lat="44.77335" lon="-0.39078">
        <ele>56</ele>
        <time>2012-09-09T14:24:16Z</time>
      </trkpt>
      <trkpt lat="44.77313" lon="-0.39041">
        <ele>57</ele>
        <time>2012-09-09T14:24:26Z</time>
      </trkpt>
      <trkpt lat="44.7731" lon="-0.39036">
        <ele>58</ele>
        <time>2012-09-09T14:24:27Z</time>
      </trkpt>
      <trkpt lat="44.77296" lon="-0.39">
        <ele>59</ele>
        <time>2012-09-09T14:24:35Z</time>
      </trkpt>
      <trkpt lat="44.77281" lon="-0.38971">
        <ele>59</ele>
        <time>2012-09-09T14:24:46Z</time>
      </trkpt>
      <trkpt lat="44.77279" lon="-0.38958">
        <ele>59</ele>
        <time>2012-09-09T14:24:57Z</time>
      </trkpt>
      <trkpt lat="44.77278" lon="-0.38954">
        <ele>59</ele>
        <time>2012-09-09T14:25:15Z</time>
      </trkpt>
      <trkpt lat="44.77278" lon="-0.38952">
        <ele>59</ele>
        <time>2012-09-09T14:25:26Z</time>
      </trkpt>
      <trkpt lat="44.77274" lon="-0.38932">
        <ele>59</ele>
        <time>2012-09-09T14:25:36Z</time>
      </trkpt>
      <trkpt lat="44.77273" lon="-0.38929">
        <ele>59</ele>
        <time>2012-09-09T14:25:38Z</time>
      </trkpt>
      <trkpt lat="44.77264" lon="-0.38879">
        <ele>61</ele>
        <time>2012-09-09T14:25:50Z</time>
      </trkpt>
      <trkpt lat="44.77257" lon="-0.3885">
        <ele>61</ele>
        <time>2012-09-09T14:25:56Z</time>
      </trkpt>
      <trkpt lat="44.77239" lon="-0.38824">
        <ele>63</ele>
        <time>2012-09-09T14:26:05Z</time>
      </trkpt>
      <trkpt lat="44.77225" lon="-0.38788">
        <ele>66</ele>
        <time>2012-09-09T14:26:13Z</time>
      </trkpt>
      <trkpt lat="44.77203" lon="-0.38759">
        <ele>69</ele>
        <time>2012-09-09T14:26:23Z</time>
      </trkpt>
      <trkpt lat="44.77193" lon="-0.38742">
        <ele>70</ele>
        <time>2012-09-09T14:26:29Z</time>
      </trkpt>
      <trkpt lat="44.77192" lon="-0.38732">
        <ele>70</ele>
        <time>2012-09-09T14:26:33Z</time>
      </trkpt>
      <trkpt lat="44.77192" lon="-0.38708">
        <ele>70</ele>
        <time>2012-09-09T14:26:39Z</time>
      </trkpt>
      <trkpt lat="44.77192" lon="-0.38699">
        <ele>69</ele>
        <time>2012-09-09T14:26:41Z</time>
      </trkpt>
      <trkpt lat="44.77186" lon="-0.38651">
        <ele>68</ele>
        <time>2012-09-09T14:26:50Z</time>
      </trkpt>
      <trkpt lat="44.77184" lon="-0.38629">
        <ele>67</ele>
        <time>2012-09-09T14:26:55Z</time>
      </trkpt>
      <trkpt lat="44.77178" lon="-0.38592">
        <ele>67</ele>
        <time>2012-09-09T14:27:08Z</time>
      </trkpt>
      <trkpt lat="44.77175" lon="-0.38585">
        <ele>67</ele>
        <time>2012-09-09T14:27:10Z</time>
      </trkpt>
      <trkpt lat="44.77172" lon="-0.38573">
        <ele>67</ele>
        <time>2012-09-09T14:27:13Z</time>
      </trkpt>
      <trkpt lat="44.77166" lon="-0.38547">
        <ele>66</ele>
        <time>2012-09-09T14:27:19Z</time>
      </trkpt>
      <trkpt lat="44.77164" lon="-0.38539">
        <ele>66</ele>
        <time>2012-09-09T14:27:21Z</time>
      </trkpt>
      <trkpt lat="44.7715" lon="-0.38525">
        <ele>67</ele>
        <time>2012-09-09T14:27:26Z</time>
      </trkpt>
      <trkpt lat="44.77138" lon="-0.38508">
        <ele>67</ele>
        <time>2012-09-09T14:27:32Z</time>
      </trkpt>
      <trkpt lat="44.77144" lon="-0.38488">
        <ele>66</ele>
        <time>2012-09-09T14:27:40Z</time>
      </trkpt>
      <trkpt lat="44.77174" lon="-0.38478">
        <ele>63</ele>
        <time>2012-09-09T14:27:51Z</time>
      </trkpt>
      <trkpt lat="44.77186" lon="-0.38473">
        <ele>62</ele>
        <time>2012-09-09T14:27:57Z</time>
      </trkpt>
      <trkpt lat="44.77195" lon="-0.38472">
        <ele>62</ele>
        <time>2012-09-09T14:28:02Z</time>
      </trkpt>
      <trkpt lat="44.77194" lon="-0.3846">
        <ele>62</ele>
        <time>2012-09-09T14:28:08Z</time>
      </trkpt>
      <trkpt lat="44.77186" lon="-0.38465">
        <ele>62</ele>
        <time>2012-09-09T14:28:14Z</time>
      </trkpt>
      <trkpt lat="44.77171" lon="-0.3847">
        <ele>63</ele>
        <time>2012-09-09T14:28:22Z</time>
      </trkpt>
      <trkpt lat="44.77163" lon="-0.38474">
        <ele>64</ele>
        <time>2012-09-09T14:28:26Z</time>
      </trkpt>
      <trkpt lat="44.77131" lon="-0.3848">
        <ele>67</ele>
        <time>2012-09-09T14:28:39Z</time>
      </trkpt>
      <trkpt lat="44.77101" lon="-0.38487">
        <ele>69</ele>
        <time>2012-09-09T14:28:49Z</time>
      </trkpt>
      <trkpt lat="44.77065" lon="-0.3849">
        <ele>70</ele>
        <time>2012-09-09T14:29:01Z</time>
      </trkpt>
      <trkpt lat="44.77028" lon="-0.38496">
        <ele>71</ele>
        <time>2012-09-09T14:29:14Z</time>
      </trkpt>
      <trkpt lat="44.77004" lon="-0.38505">
        <ele>73</ele>
        <time>2012-09-09T14:29:23Z</time>
      </trkpt>
      <trkpt lat="44.76978" lon="-0.38516">
        <ele>75</ele>
        <time>2012-09-09T14:29:34Z</time>
      </trkpt>
      <trkpt lat="44.76955" lon="-0.38529">
        <ele>76</ele>
        <time>2012-09-09T14:29:45Z</time>
      </trkpt>
      <trkpt lat="44.76926" lon="-0.38548">
        <ele>78</ele>
        <time>2012-09-09T14:29:57Z</time>
      </trkpt>
      <trkpt lat="44.76901" lon="-0.38568">
        <ele>80</ele>
        <time>2012-09-09T14:30:09Z</time>
      </trkpt>
      <trkpt lat="44.7688" lon="-0.38574">
        <ele>81</ele>
        <time>2012-09-09T14:30:21Z</time>
      </trkpt>
      <trkpt lat="44.76855" lon="-0.38575">
        <ele>83</ele>
        <time>2012-09-09T14:30:35Z</time>
      </trkpt>
      <trkpt lat="44.76831" lon="-0.38566">
        <ele>85</ele>
        <time>2012-09-09T14:30:48Z</time>
      </trkpt>
      <trkpt lat="44.76796" lon="-0.38558">
        <ele>86</ele>
        <time>2012-09-09T14:31:04Z</time>
      </trkpt>
      <trkpt lat="44.76767" lon="-0.38555">
        <ele>87</ele>
        <time>2012-09-09T14:31:16Z</time>
      </trkpt>
      <trkpt lat="44.76736" lon="-0.38559">
        <ele>87</ele>
        <time>2012-09-09T14:31:28Z</time>
      </trkpt>
      <trkpt lat="44.7669" lon="-0.38567">
        <ele>88</ele>
        <time>2012-09-09T14:31:43Z</time>
      </trkpt>
      <trkpt lat="44.76635" lon="-0.38577">
        <ele>88</ele>
        <time>2012-09-09T14:32:01Z</time>
      </trkpt>
      <trkpt lat="44.76584" lon="-0.38579">
        <ele>88</ele>
        <time>2012-09-09T14:32:17Z</time>
      </trkpt>
      <trkpt lat="44.76538" lon="-0.38575">
        <ele>89</ele>
        <time>2012-09-09T14:32:32Z</time>
      </trkpt>
      <trkpt lat="44.76502" lon="-0.38572">
        <ele>89</ele>
        <time>2012-09-09T14:32:44Z</time>
      </trkpt>
      <trkpt lat="44.76467" lon="-0.38571">
        <ele>88</ele>
        <time>2012-09-09T14:32:58Z</time>
      </trkpt>
      <trkpt lat="44.76468" lon="-0.3857">
        <ele>88</ele>
        <time>2012-09-09T14:33:26Z</time>
      </trkpt>
      <trkpt lat="44.76468" lon="-0.38569">
        <ele>88</ele>
        <time>2012-09-09T14:33:47Z</time>
      </trkpt>
      <trkpt lat="44.76468" lon="-0.38568">
        <ele>88</ele>
        <time>2012-09-09T14:34:11Z</time>
      </trkpt>
      <trkpt lat="44.76468" lon="-0.38568">
        <ele>88</ele>
        <time>2012-09-09T14:34:41Z</time>
      </trkpt>
      <trkpt lat="44.76467" lon="-0.38568">
        <ele>88</ele>
        <time>2012-09-09T14:35:16Z</time>
      </trkpt>
      <trkpt lat="44.76468" lon="-0.38567">
        <ele>88</ele>
        <time>2012-09-09T14:35:50Z</time>
      </trkpt>
      <trkpt lat="44.76466" lon="-0.38567">
        <ele>88</ele>
        <time>2012-09-09T14:36:13Z</time>
      </trkpt>
      <trkpt lat="44.7646" lon="-0.38572">
        <ele>88</ele>
        <time>2012-09-09T14:36:18Z</time>
      </trkpt>
      <trkpt lat="44.76458" lon="-0.38592">
        <ele>88</ele>
        <time>2012-09-09T14:36:25Z</time>
      </trkpt>
      <trkpt lat="44.76448" lon="-0.38644">
        <ele>88</ele>
        <time>2012-09-09T14:36:41Z</time>
      </trkpt>
      <trkpt lat="44.76435" lon="-0.38697">
        <ele>88</ele>
        <time>2012-09-09T14:36:53Z</time>
      </trkpt>
      <trkpt lat="44.76416" lon="-0.3877">
        <ele>87</ele>
        <time>2012-09-09T14:37:09Z</time>
      </trkpt>
      <trkpt lat="44.76415" lon="-0.38776">
        <ele>87</ele>
        <time>2012-09-09T14:37:10Z</time>
      </trkpt>
      <trkpt lat="44.76414" lon="-0.38781">
        <ele>87</ele>
        <time>2012-09-09T14:37:11Z</time>
      </trkpt>
      <trkpt lat="44.76387" lon="-0.38893">
        <ele>88</ele>
        <time>2012-09-09T14:37:29Z</time>
      </trkpt>
      <trkpt lat="44.76364" lon="-0.38997">
        <ele>87</ele>
        <time>2012-09-09T14:37:43Z</time>
      </trkpt>
      <trkpt lat="44.76348" lon="-0.39109">
        <ele>84</ele>
        <time>2012-09-09T14:37:57Z</time>
      </trkpt>
      <trkpt lat="44.76331" lon="-0.39247">
        <ele>84</ele>
        <time>2012-09-09T14:38:15Z</time>
      </trkpt>
      <trkpt lat="44.76317" lon="-0.39355">
        <ele>83</ele>
        <time>2012-09-09T14:38:30Z</time>
      </trkpt>
      <trkpt lat="44.76304" lon="-0.39456">
        <ele>83</ele>
        <time>2012-09-09T14:38:44Z</time>
      </trkpt>
      <trkpt lat="44.76293" lon="-0.39572">
        <ele>84</ele>
        <time>2012-09-09T14:39:01Z</time>
      </trkpt>
      <trkpt lat="44.76292" lon="-0.39695">
        <ele>86</ele>
        <time>2012-09-09T14:39:17Z</time>
      </trkpt>
      <trkpt lat="44.76294" lon="-0.39813">
        <ele>86</ele>
        <time>2012-09-09T14:39:33Z</time>
      </trkpt>
      <trkpt lat="44.76295" lon="-0.39841">
        <ele>86</ele>
        <time>2012-09-09T14:39:38Z</time>
      </trkpt>
      <trkpt lat="44.76295" lon="-0.39848">
        <ele>86</ele>
        <time>2012-09-09T14:39:39Z</time>
      </trkpt>
      <trkpt lat="44.76295" lon="-0.39853">
        <ele>86</ele>
        <time>2012-09-09T14:39:40Z</time>
      </trkpt>
      <trkpt lat="44.76295" lon="-0.39859">
        <ele>86</ele>
        <time>2012-09-09T14:39:41Z</time>
      </trkpt>
      <trkpt lat="44.76296" lon="-0.39865">
        <ele>86</ele>
        <time>2012-09-09T14:39:42Z</time>
      </trkpt>
      <trkpt lat="44.76296" lon="-0.39872">
        <ele>86</ele>
        <time>2012-09-09T14:39:43Z</time>
      </trkpt>
      <trkpt lat="44.76299" lon="-0.39981">
        <ele>86</ele>
        <time>2012-09-09T14:39:58Z</time>
      </trkpt>
      <trkpt lat="44.76308" lon="-0.40097">
        <ele>88</ele>
        <time>2012-09-09T14:40:14Z</time>
      </trkpt>
      <trkpt lat="44.76319" lon="-0.40226">
        <ele>88</ele>
        <time>2012-09-09T14:40:31Z</time>
      </trkpt>
      <trkpt lat="44.76333" lon="-0.40332">
        <ele>88</ele>
        <time>2012-09-09T14:40:47Z</time>
      </trkpt>
      <trkpt lat="44.7634" lon="-0.40365">
        <ele>88</ele>
        <time>2012-09-09T14:40:52Z</time>
      </trkpt>
      <trkpt lat="44.76346" lon="-0.40395">
        <ele>87</ele>
        <time>2012-09-09T14:40:56Z</time>
      </trkpt>
      <trkpt lat="44.76346" lon="-0.40403">
        <ele>87</ele>
        <time>2012-09-09T14:40:57Z</time>
      </trkpt>
      <trkpt lat="44.76343" lon="-0.40409">
        <ele>88</ele>
        <time>2012-09-09T14:40:58Z</time>
      </trkpt>
      <trkpt lat="44.76339" lon="-0.40414">
        <ele>88</ele>
        <time>2012-09-09T14:40:59Z</time>
      </trkpt>
      <trkpt lat="44.76334" lon="-0.40416">
        <ele>88</ele>
        <time>2012-09-09T14:41:00Z</time>
      </trkpt>
      <trkpt lat="44.76329" lon="-0.40417">
        <ele>88</ele>
        <time>2012-09-09T14:41:01Z</time>
      </trkpt>
      <trkpt lat="44.76324" lon="-0.40417">
        <ele>88</ele>
        <time>2012-09-09T14:41:02Z</time>
      </trkpt>
      <trkpt lat="44.76305" lon="-0.40412">
        <ele>89</ele>
        <time>2012-09-09T14:41:06Z</time>
      </trkpt>
      <trkpt lat="44.76302" lon="-0.40409">
        <ele>89</ele>
        <time>2012-09-09T14:41:07Z</time>
      </trkpt>
      <trkpt lat="44.76277" lon="-0.4036">
        <ele>89</ele>
        <time>2012-09-09T14:41:18Z</time>
      </trkpt>
      <trkpt lat="44.76238" lon="-0.40257">
        <ele>90</ele>
        <time>2012-09-09T14:50:39Z</time>
      </trkpt>
      <trkpt lat="44.76228" lon="-0.40234">
        <ele>90</ele>
        <time>2012-09-09T14:50:44Z</time>
      </trkpt>
      <trkpt lat="44.76225" lon="-0.4023">
        <ele>90</ele>
        <time>2012-09-09T14:50:45Z</time>
      </trkpt>
      <trkpt lat="44.76221" lon="-0.40228">
        <ele>90</ele>
        <time>2012-09-09T14:50:46Z</time>
      </trkpt>
      <trkpt lat="44.76218" lon="-0.40227">
        <ele>90</ele>
        <time>2012-09-09T14:50:47Z</time>
      </trkpt>
      <trkpt lat="44.76214" lon="-0.40226">
        <ele>90</ele>
        <time>2012-09-09T14:50:48Z</time>
      </trkpt>
      <trkpt lat="44.7621" lon="-0.40227">
        <ele>90</ele>
        <time>2012-09-09T14:50:49Z</time>
      </trkpt>
      <trkpt lat="44.76206" lon="-0.40228">
        <ele>90</ele>
        <time>2012-09-09T14:50:50Z</time>
      </trkpt>
      <trkpt lat="44.76198" lon="-0.4023">
        <ele>90</ele>
        <time>2012-09-09T14:50:52Z</time>
      </trkpt>
      <trkpt lat="44.76194" lon="-0.40229">
        <ele>90</ele>
        <time>2012-09-09T14:50:53Z</time>
      </trkpt>
      <trkpt lat="44.7619" lon="-0.40228">
        <ele>90</ele>
        <time>2012-09-09T14:50:54Z</time>
      </trkpt>
      <trkpt lat="44.76182" lon="-0.40225">
        <ele>91</ele>
        <time>2012-09-09T14:50:56Z</time>
      </trkpt>
      <trkpt lat="44.76165" lon="-0.40215">
        <ele>91</ele>
        <time>2012-09-09T14:51:00Z</time>
      </trkpt>
      <trkpt lat="44.76129" lon="-0.40174">
        <ele>91</ele>
        <time>2012-09-09T14:51:11Z</time>
      </trkpt>
      <trkpt lat="44.76121" lon="-0.40159">
        <ele>91</ele>
        <time>2012-09-09T14:51:14Z</time>
      </trkpt>
      <trkpt lat="44.76118" lon="-0.40154">
        <ele>91</ele>
        <time>2012-09-09T14:51:15Z</time>
      </trkpt>
      <trkpt lat="44.76066" lon="-0.40066">
        <ele>91</ele>
        <time>2012-09-09T14:51:31Z</time>
      </trkpt>
      <trkpt lat="44.76005" lon="-0.39989">
        <ele>89</ele>
        <time>2012-09-09T14:51:45Z</time>
      </trkpt>
      <trkpt lat="44.75946" lon="-0.39921">
        <ele>87</ele>
        <time>2012-09-09T14:51:56Z</time>
      </trkpt>
      <trkpt lat="44.759" lon="-0.39864">
        <ele>83</ele>
        <time>2012-09-09T14:52:03Z</time>
      </trkpt>
      <trkpt lat="44.75862" lon="-0.39788">
        <ele>80</ele>
        <time>2012-09-09T14:52:11Z</time>
      </trkpt>
      <trkpt lat="44.75859" lon="-0.39781">
        <ele>80</ele>
        <time>2012-09-09T14:52:12Z</time>
      </trkpt>
      <trkpt lat="44.75846" lon="-0.39751">
        <ele>79</ele>
        <time>2012-09-09T14:52:20Z</time>
      </trkpt>
      <trkpt lat="44.75822" lon="-0.39702">
        <ele>79</ele>
        <time>2012-09-09T14:52:33Z</time>
      </trkpt>
      <trkpt lat="44.75785" lon="-0.39616">
        <ele>79</ele>
        <time>2012-09-09T14:52:49Z</time>
      </trkpt>
      <trkpt lat="44.75772" lon="-0.39582">
        <ele>79</ele>
        <time>2012-09-09T14:52:55Z</time>
      </trkpt>
      <trkpt lat="44.75766" lon="-0.39564">
        <ele>79</ele>
        <time>2012-09-09T14:52:58Z</time>
      </trkpt>
      <trkpt lat="44.75752" lon="-0.39528">
        <ele>78</ele>
        <time>2012-09-09T14:53:04Z</time>
      </trkpt>
      <trkpt lat="44.75733" lon="-0.39485">
        <ele>78</ele>
        <time>2012-09-09T14:53:11Z</time>
      </trkpt>
      <trkpt lat="44.7573" lon="-0.3948">
        <ele>78</ele>
        <time>2012-09-09T14:53:12Z</time>
      </trkpt>
      <trkpt lat="44.75726" lon="-0.39475">
        <ele>78</ele>
        <time>2012-09-09T14:53:13Z</time>
      </trkpt>
      <trkpt lat="44.75722" lon="-0.3947">
        <ele>78</ele>
        <time>2012-09-09T14:53:14Z</time>
      </trkpt>
      <trkpt lat="44.75718" lon="-0.39466">
        <ele>78</ele>
        <time>2012-09-09T14:53:15Z</time>
      </trkpt>
      <trkpt lat="44.75714" lon="-0.39463">
        <ele>78</ele>
        <time>2012-09-09T14:53:16Z</time>
      </trkpt>
      <trkpt lat="44.75709" lon="-0.3946">
        <ele>78</ele>
        <time>2012-09-09T14:53:17Z</time>
      </trkpt>
      <trkpt lat="44.75705" lon="-0.39457">
        <ele>78</ele>
        <time>2012-09-09T14:53:18Z</time>
      </trkpt>
      <trkpt lat="44.757" lon="-0.39456">
        <ele>78</ele>
        <time>2012-09-09T14:53:19Z</time>
      </trkpt>
      <trkpt lat="44.75695" lon="-0.39455">
        <ele>78</ele>
        <time>2012-09-09T14:53:20Z</time>
      </trkpt>
      <trkpt lat="44.7569" lon="-0.39455">
        <ele>78</ele>
        <time>2012-09-09T14:53:21Z</time>
      </trkpt>
      <trkpt lat="44.75685" lon="-0.39456">
        <ele>78</ele>
        <time>2012-09-09T14:53:22Z</time>
      </trkpt>
      <trkpt lat="44.75622" lon="-0.39471">
        <ele>79</ele>
        <time>2012-09-09T14:53:36Z</time>
      </trkpt>
      <trkpt lat="44.75587" lon="-0.3948">
        <ele>79</ele>
        <time>2012-09-09T14:53:50Z</time>
      </trkpt>
      <trkpt lat="44.75549" lon="-0.39498">
        <ele>78</ele>
        <time>2012-09-09T14:54:04Z</time>
      </trkpt>
      <trkpt lat="44.75535" lon="-0.39506">
        <ele>78</ele>
        <time>2012-09-09T14:54:08Z</time>
      </trkpt>
      <trkpt lat="44.75528" lon="-0.39512">
        <ele>78</ele>
        <time>2012-09-09T14:54:10Z</time>
      </trkpt>
      <trkpt lat="44.75496" lon="-0.39531">
        <ele>78</ele>
        <time>2012-09-09T14:54:21Z</time>
      </trkpt>
      <trkpt lat="44.75476" lon="-0.39548">
        <ele>80</ele>
        <time>2012-09-09T14:54:34Z</time>
      </trkpt>
      <trkpt lat="44.7547" lon="-0.39554">
        <ele>80</ele>
        <time>2012-09-09T14:54:45Z</time>
      </trkpt>
      <trkpt lat="44.75465" lon="-0.39559">
        <ele>80</ele>
        <time>2012-09-09T14:54:56Z</time>
      </trkpt>
      <trkpt lat="44.7546" lon="-0.39563">
        <ele>80</ele>
        <time>2012-09-09T14:55:08Z</time>
      </trkpt>
      <trkpt lat="44.75448" lon="-0.39572">
        <ele>81</ele>
        <time>2012-09-09T14:55:20Z</time>
      </trkpt>
      <trkpt lat="44.75444" lon="-0.39577">
        <ele>81</ele>
        <time>2012-09-09T14:55:27Z</time>
      </trkpt>
      <trkpt lat="44.75443" lon="-0.39577">
        <ele>81</ele>
        <time>2012-09-09T14:55:28Z</time>
      </trkpt>
      <trkpt lat="44.75441" lon="-0.39578">
        <ele>81</ele>
        <time>2012-09-09T14:55:29Z</time>
      </trkpt>
      <trkpt lat="44.7544" lon="-0.39579">
        <ele>80</ele>
        <time>2012-09-09T14:55:30Z</time>
      </trkpt>
      <trkpt lat="44.75438" lon="-0.3958">
        <ele>80</ele>
        <time>2012-09-09T14:55:31Z</time>
      </trkpt>
      <trkpt lat="44.75413" lon="-0.39564">
        <ele>79</ele>
        <time>2012-09-09T14:55:41Z</time>
      </trkpt>
      <trkpt lat="44.75394" lon="-0.39489">
        <ele>74</ele>
        <time>2012-09-09T14:55:52Z</time>
      </trkpt>
      <trkpt lat="44.75384" lon="-0.39426">
        <ele>69</ele>
        <time>2012-09-09T14:55:59Z</time>
      </trkpt>
      <trkpt lat="44.75382" lon="-0.39419">
        <ele>68</ele>
        <time>2012-09-09T14:56:00Z</time>
      </trkpt>
      <trkpt lat="44.75379" lon="-0.39412">
        <ele>68</ele>
        <time>2012-09-09T14:56:01Z</time>
      </trkpt>
      <trkpt lat="44.75375" lon="-0.39407">
        <ele>68</ele>
        <time>2012-09-09T14:56:02Z</time>
      </trkpt>
      <trkpt lat="44.75371" lon="-0.39403">
        <ele>67</ele>
        <time>2012-09-09T14:56:03Z</time>
      </trkpt>
      <trkpt lat="44.75366" lon="-0.394">
        <ele>67</ele>
        <time>2012-09-09T14:56:04Z</time>
      </trkpt>
      <trkpt lat="44.75361" lon="-0.394">
        <ele>67</ele>
        <time>2012-09-09T14:56:05Z</time>
      </trkpt>
      <trkpt lat="44.75356" lon="-0.394">
        <ele>67</ele>
        <time>2012-09-09T14:56:06Z</time>
      </trkpt>
      <trkpt lat="44.75352" lon="-0.39401">
        <ele>66</ele>
        <time>2012-09-09T14:56:07Z</time>
      </trkpt>
      <trkpt lat="44.75341" lon="-0.39407">
        <ele>66</ele>
        <time>2012-09-09T14:56:13Z</time>
      </trkpt>
      <trkpt lat="44.75338" lon="-0.39406">
        <ele>65</ele>
        <time>2012-09-09T14:56:24Z</time>
      </trkpt>
      <trkpt lat="44.75339" lon="-0.39405">
        <ele>66</ele>
        <time>2012-09-09T14:56:50Z</time>
      </trkpt>
      <trkpt lat="44.75337" lon="-0.39405">
        <ele>65</ele>
        <time>2012-09-09T14:57:02Z</time>
      </trkpt>
      <trkpt lat="44.75334" lon="-0.39379">
        <ele>63</ele>
        <time>2012-09-09T14:57:10Z</time>
      </trkpt>
      <trkpt lat="44.75334" lon="-0.39376">
        <ele>63</ele>
        <time>2012-09-09T14:57:11Z</time>
      </trkpt>
      <trkpt lat="44.75324" lon="-0.39358">
        <ele>61</ele>
        <time>2012-09-09T14:57:19Z</time>
      </trkpt>
      <trkpt lat="44.75321" lon="-0.39351">
        <ele>60</ele>
        <time>2012-09-09T14:57:28Z</time>
      </trkpt>
      <trkpt lat="44.75324" lon="-0.39338">
        <ele>58</ele>
        <time>2012-09-09T14:57:40Z</time>
      </trkpt>
      <trkpt lat="44.75332" lon="-0.39317">
        <ele>56</ele>
        <time>2012-09-09T14:57:49Z</time>
      </trkpt>
      <trkpt lat="44.75335" lon="-0.39309">
        <ele>55</ele>
        <time>2012-09-09T14:58:06Z</time>
      </trkpt>
      <trkpt lat="44.75338" lon="-0.39303">
        <ele>55</ele>
        <time>2012-09-09T14:58:19Z</time>
      </trkpt>
      <trkpt lat="44.75338" lon="-0.39302">
        <ele>54</ele>
        <time>2012-09-09T14:58:26Z</time>
      </trkpt>
      <trkpt lat="44.75337" lon="-0.39297">
        <ele>53</ele>
        <time>2012-09-09T14:58:30Z</time>
      </trkpt>
      <trkpt lat="44.75338" lon="-0.39295">
        <ele>53</ele>
        <time>2012-09-09T14:58:48Z</time>
      </trkpt>
      <trkpt lat="44.75338" lon="-0.39295">
        <ele>53</ele>
        <time>2012-09-09T14:58:49Z</time>
      </trkpt>
      <trkpt lat="44.7534" lon="-0.39288">
        <ele>53</ele>
        <time>2012-09-09T14:58:54Z</time>
      </trkpt>
      <trkpt lat="44.7534" lon="-0.39284">
        <ele>52</ele>
        <time>2012-09-09T14:58:56Z</time>
      </trkpt>
      <trkpt lat="44.75338" lon="-0.3928">
        <ele>51</ele>
        <time>2012-09-09T14:58:59Z</time>
      </trkpt>
      <trkpt lat="44.75337" lon="-0.39278">
        <ele>51</ele>
        <time>2012-09-09T14:59:01Z</time>
      </trkpt>
      <trkpt lat="44.75335" lon="-0.3926">
        <ele>48</ele>
        <time>2012-09-09T14:59:16Z</time>
      </trkpt>
      <trkpt lat="44.75331" lon="-0.39249">
        <ele>46</ele>
        <time>2012-09-09T14:59:26Z</time>
      </trkpt>
      <trkpt lat="44.7533" lon="-0.39237">
        <ele>44</ele>
        <time>2012-09-09T14:59:34Z</time>
      </trkpt>
      <trkpt lat="44.75328" lon="-0.39232">
        <ele>44</ele>
        <time>2012-09-09T14:59:38Z</time>
      </trkpt>
      <trkpt lat="44.75321" lon="-0.39223">
        <ele>43</ele>
        <time>2012-09-09T14:59:43Z</time>
      </trkpt>
      <trkpt lat="44.75319" lon="-0.39223">
        <ele>43</ele>
        <time>2012-09-09T15:00:03Z</time>
      </trkpt>
      <trkpt lat="44.75318" lon="-0.39222">
        <ele>42</ele>
        <time>2012-09-09T15:00:30Z</time>
      </trkpt>
      <trkpt lat="44.75318" lon="-0.39221">
        <ele>42</ele>
        <time>2012-09-09T15:00:57Z</time>
      </trkpt>
      <trkpt lat="44.75321" lon="-0.39213">
        <ele>43</ele>
        <time>2012-09-09T15:06:01Z</time>
      </trkpt>
      <trkpt lat="44.75322" lon="-0.39213">
        <ele>43</ele>
        <time>2012-09-09T15:06:03Z</time>
      </trkpt>
      <trkpt lat="44.75335" lon="-0.39192">
        <ele>43</ele>
        <time>2012-09-09T15:06:14Z</time>
      </trkpt>
      <trkpt lat="44.75361" lon="-0.3916">
        <ele>44</ele>
        <time>2012-09-09T15:06:25Z</time>
      </trkpt>
      <trkpt lat="44.75397" lon="-0.3913">
        <ele>44</ele>
        <time>2012-09-09T15:06:35Z</time>
      </trkpt>
      <trkpt lat="44.75423" lon="-0.39082">
        <ele>44</ele>
        <time>2012-09-09T15:06:45Z</time>
      </trkpt>
      <trkpt lat="44.75448" lon="-0.39039">
        <ele>44</ele>
        <time>2012-09-09T15:06:55Z</time>
      </trkpt>
      <trkpt lat="44.75453" lon="-0.39023">
        <ele>45</ele>
        <time>2012-09-09T15:06:59Z</time>
      </trkpt>
      <trkpt lat="44.75476" lon="-0.38995">
        <ele>45</ele>
        <time>2012-09-09T15:07:10Z</time>
      </trkpt>
      <trkpt lat="44.7549" lon="-0.38986">
        <ele>45</ele>
        <time>2012-09-09T15:07:13Z</time>
      </trkpt>
      <trkpt lat="44.75536" lon="-0.38966">
        <ele>47</ele>
        <time>2012-09-09T15:07:24Z</time>
      </trkpt>
      <trkpt lat="44.75542" lon="-0.3896">
        <ele>47</ele>
        <time>2012-09-09T15:07:29Z</time>
      </trkpt>
      <trkpt lat="44.7554" lon="-0.38942">
        <ele>46</ele>
        <time>2012-09-09T15:09:22Z</time>
      </trkpt>
      <trkpt lat="44.75546" lon="-0.38919">
        <ele>46</ele>
        <time>2012-09-09T15:09:32Z</time>
      </trkpt>
      <trkpt lat="44.7555" lon="-0.38909">
        <ele>46</ele>
        <time>2012-09-09T15:09:38Z</time>
      </trkpt>
      <trkpt lat="44.75554" lon="-0.38904">
        <ele>46</ele>
        <time>2012-09-09T15:09:41Z</time>
      </trkpt>
      <trkpt lat="44.75557" lon="-0.38902">
        <ele>46</ele>
        <time>2012-09-09T15:09:43Z</time>
      </trkpt>
      <trkpt lat="44.75574" lon="-0.38895">
        <ele>46</ele>
        <time>2012-09-09T15:09:52Z</time>
      </trkpt>
      <trkpt lat="44.75582" lon="-0.38881">
        <ele>46</ele>
        <time>2012-09-09T15:09:58Z</time>
      </trkpt>
      <trkpt lat="44.75595" lon="-0.38873">
        <ele>45</ele>
        <time>2012-09-09T15:10:05Z</time>
      </trkpt>
      <trkpt lat="44.75613" lon="-0.38872">
        <ele>46</ele>
        <time>2012-09-09T15:10:18Z</time>
      </trkpt>
      <trkpt lat="44.7562" lon="-0.38864">
        <ele>46</ele>
        <time>2012-09-09T15:10:24Z</time>
      </trkpt>
      <trkpt lat="44.75644" lon="-0.38835">
        <ele>48</ele>
        <time>2012-09-09T15:10:37Z</time>
      </trkpt>
      <trkpt lat="44.75655" lon="-0.38822">
        <ele>48</ele>
        <time>2012-09-09T15:10:43Z</time>
      </trkpt>
      <trkpt lat="44.75659" lon="-0.38821">
        <ele>49</ele>
        <time>2012-09-09T15:10:45Z</time>
      </trkpt>
      <trkpt lat="44.75669" lon="-0.38816">
        <ele>49</ele>
        <time>2012-09-09T15:10:49Z</time>
      </trkpt>
      <trkpt lat="44.75703" lon="-0.38815">
        <ele>51</ele>
        <time>2012-09-09T15:11:00Z</time>
      </trkpt>
      <trkpt lat="44.75741" lon="-0.38819">
        <ele>52</ele>
        <time>2012-09-09T15:11:10Z</time>
      </trkpt>
      <trkpt lat="44.75771" lon="-0.38824">
        <ele>52</ele>
        <time>2012-09-09T15:11:21Z</time>
      </trkpt>
      <trkpt lat="44.75793" lon="-0.38833">
        <ele>52</ele>
        <time>2012-09-09T15:11:29Z</time>
      </trkpt>
      <trkpt lat="44.75799" lon="-0.38833">
        <ele>52</ele>
        <time>2012-09-09T15:11:44Z</time>
      </trkpt>
      <trkpt lat="44.75807" lon="-0.38837">
        <ele>52</ele>
        <time>2012-09-09T15:11:57Z</time>
      </trkpt>
      <trkpt lat="44.75813" lon="-0.3884">
        <ele>53</ele>
        <time>2012-09-09T15:12:07Z</time>
      </trkpt>
      <trkpt lat="44.75819" lon="-0.38844">
        <ele>53</ele>
        <time>2012-09-09T15:12:19Z</time>
      </trkpt>
      <trkpt lat="44.75827" lon="-0.38844">
        <ele>53</ele>
        <time>2012-09-09T15:12:30Z</time>
      </trkpt>
      <trkpt lat="44.75829" lon="-0.38844">
        <ele>53</ele>
        <time>2012-09-09T15:12:31Z</time>
      </trkpt>
      <trkpt lat="44.75845" lon="-0.38848">
        <ele>53</ele>
        <time>2012-09-09T15:12:43Z</time>
      </trkpt>
      <trkpt lat="44.75873" lon="-0.3885">
        <ele>52</ele>
        <time>2012-09-09T15:12:57Z</time>
      </trkpt>
      <trkpt lat="44.75882" lon="-0.38848">
        <ele>51</ele>
        <time>2012-09-09T15:13:10Z</time>
      </trkpt>
      <trkpt lat="44.7589" lon="-0.38849">
        <ele>51</ele>
        <time>2012-09-09T15:13:21Z</time>
      </trkpt>
      <trkpt lat="44.75898" lon="-0.38843">
        <ele>51</ele>
        <time>2012-09-09T15:13:31Z</time>
      </trkpt>
      <trkpt lat="44.75908" lon="-0.38838">
        <ele>50</ele>
        <time>2012-09-09T15:13:38Z</time>
      </trkpt>
      <trkpt lat="44.75922" lon="-0.38835">
        <ele>50</ele>
        <time>2012-09-09T15:13:47Z</time>
      </trkpt>
      <trkpt lat="44.75933" lon="-0.38831">
        <ele>51</ele>
        <time>2012-09-09T15:13:52Z</time>
      </trkpt>
      <trkpt lat="44.75939" lon="-0.38829">
        <ele>51</ele>
        <time>2012-09-09T15:14:04Z</time>
      </trkpt>
      <trkpt lat="44.75943" lon="-0.38828">
        <ele>51</ele>
        <time>2012-09-09T15:16:12Z</time>
      </trkpt>
      <trkpt lat="44.75942" lon="-0.38823">
        <ele>51</ele>
        <time>2012-09-09T15:16:37Z</time>
      </trkpt>
      <trkpt lat="44.75943" lon="-0.3882">
        <ele>51</ele>
        <time>2012-09-09T15:16:41Z</time>
      </trkpt>
      <trkpt lat="44.75945" lon="-0.38813">
        <ele>51</ele>
        <time>2012-09-09T15:16:45Z</time>
      </trkpt>
      <trkpt lat="44.75941" lon="-0.38784">
        <ele>54</ele>
        <time>2012-09-09T15:16:55Z</time>
      </trkpt>
      <trkpt lat="44.75936" lon="-0.38753">
        <ele>59</ele>
        <time>2012-09-09T15:17:06Z</time>
      </trkpt>
      <trkpt lat="44.75934" lon="-0.38728">
        <ele>62</ele>
        <time>2012-09-09T15:17:19Z</time>
      </trkpt>
      <trkpt lat="44.75935" lon="-0.38698">
        <ele>66</ele>
        <time>2012-09-09T15:17:33Z</time>
      </trkpt>
      <trkpt lat="44.75935" lon="-0.38675">
        <ele>68</ele>
        <time>2012-09-09T15:17:47Z</time>
      </trkpt>
      <trkpt lat="44.75936" lon="-0.38647">
        <ele>71</ele>
        <time>2012-09-09T15:18:03Z</time>
      </trkpt>
      <trkpt lat="44.75935" lon="-0.38641">
        <ele>71</ele>
        <time>2012-09-09T15:18:13Z</time>
      </trkpt>
      <trkpt lat="44.75935" lon="-0.38631">
        <ele>72</ele>
        <time>2012-09-09T15:18:27Z</time>
      </trkpt>
      <trkpt lat="44.75936" lon="-0.38618">
        <ele>73</ele>
        <time>2012-09-09T15:18:40Z</time>
      </trkpt>
      <trkpt lat="44.75935" lon="-0.38606">
        <ele>75</ele>
        <time>2012-09-09T15:18:53Z</time>
      </trkpt>
      <trkpt lat="44.75936" lon="-0.38603">
        <ele>75</ele>
        <time>2012-09-09T15:19:00Z</time>
      </trkpt>
      <trkpt lat="44.75937" lon="-0.38602">
        <ele>75</ele>
        <time>2012-09-09T15:19:02Z</time>
      </trkpt>
      <trkpt lat="44.75932" lon="-0.38574">
        <ele>78</ele>
        <time>2012-09-09T15:19:16Z</time>
      </trkpt>
      <trkpt lat="44.75932" lon="-0.38548">
        <ele>80</ele>
        <time>2012-09-09T15:19:27Z</time>
      </trkpt>
      <trkpt lat="44.75932" lon="-0.38545">
        <ele>80</ele>
        <time>2012-09-09T15:19:29Z</time>
      </trkpt>
      <trkpt lat="44.75931" lon="-0.38531">
        <ele>81</ele>
        <time>2012-09-09T15:19:44Z</time>
      </trkpt>
      <trkpt lat="44.75931" lon="-0.38531">
        <ele>81</ele>
        <time>2012-09-09T15:20:10Z</time>
      </trkpt>
      <trkpt lat="44.7593" lon="-0.3853">
        <ele>81</ele>
        <time>2012-09-09T15:20:38Z</time>
      </trkpt>
      <trkpt lat="44.7593" lon="-0.3853">
        <ele>81</ele>
        <time>2012-09-09T15:21:08Z</time>
      </trkpt>
      <trkpt lat="44.75929" lon="-0.3853">
        <ele>81</ele>
        <time>2012-09-09T15:21:22Z</time>
      </trkpt>
      <trkpt lat="44.7593" lon="-0.3853">
        <ele>81</ele>
        <time>2012-09-09T15:21:42Z</time>
      </trkpt>
      <trkpt lat="44.75931" lon="-0.38529">
        <ele>81</ele>
        <time>2012-09-09T15:22:05Z</time>
      </trkpt>
      <trkpt lat="44.75931" lon="-0.38529">
        <ele>81</ele>
        <time>2012-09-09T15:22:20Z</time>
      </trkpt>
      <trkpt lat="44.75931" lon="-0.38528">
        <ele>81</ele>
        <time>2012-09-09T15:22:41Z</time>
      </trkpt>
      <trkpt lat="44.75931" lon="-0.38523">
        <ele>81</ele>
        <time>2012-09-09T15:22:52Z</time>
      </trkpt>
      <trkpt lat="44.75932" lon="-0.38517">
        <ele>81</ele>
        <time>2012-09-09T15:22:55Z</time>
      </trkpt>
      <trkpt lat="44.75935" lon="-0.38506">
        <ele>82</ele>
        <time>2012-09-09T15:23:00Z</time>
      </trkpt>
      <trkpt lat="44.75931" lon="-0.38465">
        <ele>82</ele>
        <time>2012-09-09T15:23:13Z</time>
      </trkpt>
      <trkpt lat="44.75931" lon="-0.38391">
        <ele>80</ele>
        <time>2012-09-09T15:23:28Z</time>
      </trkpt>
      <trkpt lat="44.75918" lon="-0.38324">
        <ele>78</ele>
        <time>2012-09-09T15:23:41Z</time>
      </trkpt>
      <trkpt lat="44.75881" lon="-0.38293">
        <ele>76</ele>
        <time>2012-09-09T15:23:53Z</time>
      </trkpt>
      <trkpt lat="44.7583" lon="-0.38259">
        <ele>75</ele>
        <time>2012-09-09T15:24:07Z</time>
      </trkpt>
      <trkpt lat="44.75826" lon="-0.38255">
        <ele>75</ele>
        <time>2012-09-09T15:24:08Z</time>
      </trkpt>
      <trkpt lat="44.75822" lon="-0.38252">
        <ele>75</ele>
        <time>2012-09-09T15:24:09Z</time>
      </trkpt>
      <trkpt lat="44.75817" lon="-0.38249">
        <ele>74</ele>
        <time>2012-09-09T15:24:10Z</time>
      </trkpt>
      <trkpt lat="44.75813" lon="-0.38246">
        <ele>74</ele>
        <time>2012-09-09T15:24:11Z</time>
      </trkpt>
      <trkpt lat="44.75809" lon="-0.38243">
        <ele>74</ele>
        <time>2012-09-09T15:24:12Z</time>
      </trkpt>
      <trkpt lat="44.75794" lon="-0.38233">
        <ele>73</ele>
        <time>2012-09-09T15:24:15Z</time>
      </trkpt>
      <trkpt lat="44.75776" lon="-0.38217">
        <ele>72</ele>
        <time>2012-09-09T15:24:19Z</time>
      </trkpt>
      <trkpt lat="44.75772" lon="-0.38213">
        <ele>72</ele>
        <time>2012-09-09T15:24:20Z</time>
      </trkpt>
      <trkpt lat="44.75748" lon="-0.38199">
        <ele>72</ele>
        <time>2012-09-09T15:24:26Z</time>
      </trkpt>
      <trkpt lat="44.75744" lon="-0.38198">
        <ele>72</ele>
        <time>2012-09-09T15:24:27Z</time>
      </trkpt>
      <trkpt lat="44.7574" lon="-0.38198">
        <ele>73</ele>
        <time>2012-09-09T15:24:28Z</time>
      </trkpt>
      <trkpt lat="44.75737" lon="-0.38199">
        <ele>73</ele>
        <time>2012-09-09T15:24:29Z</time>
      </trkpt>
      <trkpt lat="44.75733" lon="-0.382">
        <ele>73</ele>
        <time>2012-09-09T15:24:30Z</time>
      </trkpt>
      <trkpt lat="44.7573" lon="-0.38201">
        <ele>73</ele>
        <time>2012-09-09T15:24:31Z</time>
      </trkpt>
      <trkpt lat="44.757" lon="-0.38221">
        <ele>72</ele>
        <time>2012-09-09T15:24:42Z</time>
      </trkpt>
      <trkpt lat="44.75673" lon="-0.38233">
        <ele>72</ele>
        <time>2012-09-09T15:24:53Z</time>
      </trkpt>
      <trkpt lat="44.75667" lon="-0.38236">
        <ele>72</ele>
        <time>2012-09-09T15:25:01Z</time>
      </trkpt>
      <trkpt lat="44.75659" lon="-0.38239">
        <ele>72</ele>
        <time>2012-09-09T15:25:12Z</time>
      </trkpt>
      <trkpt lat="44.75655" lon="-0.38239">
        <ele>72</ele>
        <time>2012-09-09T15:25:19Z</time>
      </trkpt>
      <trkpt lat="44.75654" lon="-0.38238">
        <ele>73</ele>
        <time>2012-09-09T15:25:20Z</time>
      </trkpt>
      <trkpt lat="44.75653" lon="-0.38237">
        <ele>73</ele>
        <time>2012-09-09T15:25:21Z</time>
      </trkpt>
      <trkpt lat="44.75651" lon="-0.38236">
        <ele>73</ele>
        <time>2012-09-09T15:25:22Z</time>
      </trkpt>
      <trkpt lat="44.7565" lon="-0.38235">
        <ele>73</ele>
        <time>2012-09-09T15:25:23Z</time>
      </trkpt>
      <trkpt lat="44.75648" lon="-0.38233">
        <ele>73</ele>
        <time>2012-09-09T15:25:24Z</time>
      </trkpt>
      <trkpt lat="44.75647" lon="-0.38232">
        <ele>73</ele>
        <time>2012-09-09T15:25:25Z</time>
      </trkpt>
      <trkpt lat="44.75643" lon="-0.38227">
        <ele>74</ele>
        <time>2012-09-09T15:25:28Z</time>
      </trkpt>
      <trkpt lat="44.75635" lon="-0.38222">
        <ele>74</ele>
        <time>2012-09-09T15:25:32Z</time>
      </trkpt>
      <trkpt lat="44.75633" lon="-0.38221">
        <ele>74</ele>
        <time>2012-09-09T15:25:33Z</time>
      </trkpt>
      <trkpt lat="44.7563" lon="-0.3822">
        <ele>74</ele>
        <time>2012-09-09T15:25:34Z</time>
      </trkpt>
      <trkpt lat="44.75608" lon="-0.382">
        <ele>76</ele>
        <time>2012-09-09T15:25:44Z</time>
      </trkpt>
      <trkpt lat="44.75604" lon="-0.38196">
        <ele>77</ele>
        <time>2012-09-09T15:25:47Z</time>
      </trkpt>
      <trkpt lat="44.75602" lon="-0.38194">
        <ele>77</ele>
        <time>2012-09-09T15:25:48Z</time>
      </trkpt>
      <trkpt lat="44.75601" lon="-0.38193">
        <ele>77</ele>
        <time>2012-09-09T15:25:49Z</time>
      </trkpt>
      <trkpt lat="44.75598" lon="-0.38192">
        <ele>77</ele>
        <time>2012-09-09T15:25:51Z</time>
      </trkpt>
      <trkpt lat="44.75597" lon="-0.38192">
        <ele>77</ele>
        <time>2012-09-09T15:25:52Z</time>
      </trkpt>
      <trkpt lat="44.75596" lon="-0.3819">
        <ele>77</ele>
        <time>2012-09-09T15:25:53Z</time>
      </trkpt>
      <trkpt lat="44.75595" lon="-0.38188">
        <ele>77</ele>
        <time>2012-09-09T15:25:54Z</time>
      </trkpt>
      <trkpt lat="44.75593" lon="-0.38186">
        <ele>78</ele>
        <time>2012-09-09T15:25:55Z</time>
      </trkpt>
      <trkpt lat="44.75592" lon="-0.38183">
        <ele>78</ele>
        <time>2012-09-09T15:25:56Z</time>
      </trkpt>
      <trkpt lat="44.75591" lon="-0.3818">
        <ele>78</ele>
        <time>2012-09-09T15:25:57Z</time>
      </trkpt>
      <trkpt lat="44.75589" lon="-0.38175">
        <ele>78</ele>
        <time>2012-09-09T15:25:59Z</time>
      </trkpt>
      <trkpt lat="44.75588" lon="-0.38173">
        <ele>78</ele>
        <time>2012-09-09T15:26:00Z</time>
      </trkpt>
      <trkpt lat="44.75577" lon="-0.38142">
        <ele>80</ele>
        <time>2012-09-09T15:26:12Z</time>
      </trkpt>
      <trkpt lat="44.75565" lon="-0.38103">
        <ele>83</ele>
        <time>2012-09-09T15:26:25Z</time>
      </trkpt>
      <trkpt lat="44.75554" lon="-0.38065">
        <ele>85</ele>
        <time>2012-09-09T15:26:39Z</time>
      </trkpt>
      <trkpt lat="44.75553" lon="-0.38061">
        <ele>85</ele>
        <time>2012-09-09T15:26:41Z</time>
      </trkpt>
      <trkpt lat="44.75552" lon="-0.3806">
        <ele>85</ele>
        <time>2012-09-09T15:26:42Z</time>
      </trkpt>
      <trkpt lat="44.7555" lon="-0.38059">
        <ele>85</ele>
        <time>2012-09-09T15:26:43Z</time>
      </trkpt>
      <trkpt lat="44.75539" lon="-0.38054">
        <ele>86</ele>
        <time>2012-09-09T15:26:50Z</time>
      </trkpt>
      <trkpt lat="44.75537" lon="-0.38054">
        <ele>86</ele>
        <time>2012-09-09T15:26:51Z</time>
      </trkpt>
      <trkpt lat="44.75536" lon="-0.38055">
        <ele>86</ele>
        <time>2012-09-09T15:26:52Z</time>
      </trkpt>
      <trkpt lat="44.75536" lon="-0.38056">
        <ele>85</ele>
        <time>2012-09-09T15:26:53Z</time>
      </trkpt>
      <trkpt lat="44.75535" lon="-0.38058">
        <ele>85</ele>
        <time>2012-09-09T15:26:54Z</time>
      </trkpt>
      <trkpt lat="44.75534" lon="-0.38059">
        <ele>85</ele>
        <time>2012-09-09T15:26:55Z</time>
      </trkpt>
      <trkpt lat="44.75525" lon="-0.38073">
        <ele>85</ele>
        <time>2012-09-09T15:27:11Z</time>
      </trkpt>
      <trkpt lat="44.75525" lon="-0.38073">
        <ele>85</ele>
        <time>2012-09-09T15:27:32Z</time>
      </trkpt>
      <trkpt lat="44.75524" lon="-0.38074">
        <ele>85</ele>
        <time>2012-09-09T15:27:48Z</time>
      </trkpt>
      <trkpt lat="44.75525" lon="-0.38074">
        <ele>85</ele>
        <time>2012-09-09T15:28:08Z</time>
      </trkpt>
      <trkpt lat="44.75525" lon="-0.38075">
        <ele>85</ele>
        <time>2012-09-09T15:28:37Z</time>
      </trkpt>
      <trkpt lat="44.75523" lon="-0.38077">
        <ele>86</ele>
        <time>2012-09-09T15:28:43Z</time>
      </trkpt>
      <trkpt lat="44.75521" lon="-0.38077">
        <ele>86</ele>
        <time>2012-09-09T15:28:44Z</time>
      </trkpt>
      <trkpt lat="44.7552" lon="-0.38079">
        <ele>86</ele>
        <time>2012-09-09T15:28:45Z</time>
      </trkpt>
      <trkpt lat="44.75519" lon="-0.3808">
        <ele>86</ele>
        <time>2012-09-09T15:28:46Z</time>
      </trkpt>
      <trkpt lat="44.75518" lon="-0.38082">
        <ele>86</ele>
        <time>2012-09-09T15:28:47Z</time>
      </trkpt>
      <trkpt lat="44.75499" lon="-0.38081">
        <ele>87</ele>
        <time>2012-09-09T15:28:59Z</time>
      </trkpt>
      <trkpt lat="44.75488" lon="-0.38058">
        <ele>88</ele>
        <time>2012-09-09T15:29:07Z</time>
      </trkpt>
      <trkpt lat="44.75487" lon="-0.38056">
        <ele>88</ele>
        <time>2012-09-09T15:29:08Z</time>
      </trkpt>
      <trkpt lat="44.75485" lon="-0.38053">
        <ele>88</ele>
        <time>2012-09-09T15:29:09Z</time>
      </trkpt>
      <trkpt lat="44.75459" lon="-0.38005">
        <ele>89</ele>
        <time>2012-09-09T15:29:24Z</time>
      </trkpt>
      <trkpt lat="44.75422" lon="-0.37945">
        <ele>87</ele>
        <time>2012-09-09T15:29:39Z</time>
      </trkpt>
      <trkpt lat="44.75397" lon="-0.37846">
        <ele>84</ele>
        <time>2012-09-09T15:29:54Z</time>
      </trkpt>
      <trkpt lat="44.75393" lon="-0.37754">
        <ele>81</ele>
        <time>2012-09-09T15:30:05Z</time>
      </trkpt>
      <trkpt lat="44.75383" lon="-0.37626">
        <ele>79</ele>
        <time>2012-09-09T15:30:18Z</time>
      </trkpt>
      <trkpt lat="44.75367" lon="-0.37515">
        <ele>80</ele>
        <time>2012-09-09T15:30:31Z</time>
      </trkpt>
      <trkpt lat="44.75363" lon="-0.37498">
        <ele>79</ele>
        <time>2012-09-09T15:30:33Z</time>
      </trkpt>
      <trkpt lat="44.7536" lon="-0.37489">
        <ele>79</ele>
        <time>2012-09-09T15:30:34Z</time>
      </trkpt>
      <trkpt lat="44.75316" lon="-0.37423">
        <ele>79</ele>
        <time>2012-09-09T15:30:45Z</time>
      </trkpt>
      <trkpt lat="44.75305" lon="-0.37405">
        <ele>80</ele>
        <time>2012-09-09T15:31:05Z</time>
      </trkpt>
      <trkpt lat="44.75305" lon="-0.37406">
        <ele>79</ele>
        <time>2012-09-09T15:31:06Z</time>
      </trkpt>
      <trkpt lat="44.75306" lon="-0.37408">
        <ele>79</ele>
        <time>2012-09-09T15:31:07Z</time>
      </trkpt>
      <trkpt lat="44.75307" lon="-0.3741">
        <ele>79</ele>
        <time>2012-09-09T15:31:08Z</time>
      </trkpt>
      <trkpt lat="44.75313" lon="-0.37419">
        <ele>79</ele>
        <time>2012-09-09T15:31:13Z</time>
      </trkpt>
      <trkpt lat="44.75313" lon="-0.37421">
        <ele>79</ele>
        <time>2012-09-09T15:31:14Z</time>
      </trkpt>
      <trkpt lat="44.75308" lon="-0.3743">
        <ele>80</ele>
        <time>2012-09-09T15:31:19Z</time>
      </trkpt>
      <trkpt lat="44.75281" lon="-0.37459">
        <ele>80</ele>
        <time>2012-09-09T15:31:30Z</time>
      </trkpt>
      <trkpt lat="44.75276" lon="-0.37461">
        <ele>79</ele>
        <time>2012-09-09T15:31:31Z</time>
      </trkpt>
      <trkpt lat="44.75224" lon="-0.37461">
        <ele>76</ele>
        <time>2012-09-09T15:31:39Z</time>
      </trkpt>
      <trkpt lat="44.75215" lon="-0.3746">
        <ele>75</ele>
        <time>2012-09-09T15:31:41Z</time>
      </trkpt>
      <trkpt lat="44.75209" lon="-0.37455">
        <ele>75</ele>
        <time>2012-09-09T15:31:43Z</time>
      </trkpt>
      <trkpt lat="44.75193" lon="-0.37439">
        <ele>74</ele>
        <time>2012-09-09T15:31:48Z</time>
      </trkpt>
      <trkpt lat="44.7518" lon="-0.37423">
        <ele>74</ele>
        <time>2012-09-09T15:31:52Z</time>
      </trkpt>
      <trkpt lat="44.75155" lon="-0.37383">
        <ele>73</ele>
        <time>2012-09-09T15:32:01Z</time>
      </trkpt>
      <trkpt lat="44.75135" lon="-0.37347">
        <ele>69</ele>
        <time>2012-09-09T15:32:08Z</time>
      </trkpt>
      <trkpt lat="44.75124" lon="-0.37334">
        <ele>68</ele>
        <time>2012-09-09T15:32:11Z</time>
      </trkpt>
      <trkpt lat="44.75106" lon="-0.37337">
        <ele>67</ele>
        <time>2012-09-09T15:32:16Z</time>
      </trkpt>
      <trkpt lat="44.75103" lon="-0.37333">
        <ele>66</ele>
        <time>2012-09-09T15:32:17Z</time>
      </trkpt>
      <trkpt lat="44.75079" lon="-0.37297">
        <ele>60</ele>
        <time>2012-09-09T15:32:24Z</time>
      </trkpt>
      <trkpt lat="44.75062" lon="-0.37292">
        <ele>58</ele>
        <time>2012-09-09T15:32:29Z</time>
      </trkpt>
      <trkpt lat="44.75058" lon="-0.37295">
        <ele>58</ele>
        <time>2012-09-09T15:32:30Z</time>
      </trkpt>
      <trkpt lat="44.75056" lon="-0.37299">
        <ele>58</ele>
        <time>2012-09-09T15:32:31Z</time>
      </trkpt>
      <trkpt lat="44.75053" lon="-0.37303">
        <ele>58</ele>
        <time>2012-09-09T15:32:32Z</time>
      </trkpt>
      <trkpt lat="44.75019" lon="-0.37346">
        <ele>57</ele>
        <time>2012-09-09T15:32:42Z</time>
      </trkpt>
      <trkpt lat="44.75009" lon="-0.37357">
        <ele>56</ele>
        <time>2012-09-09T15:32:45Z</time>
      </trkpt>
      <trkpt lat="44.74973" lon="-0.374">
        <ele>53</ele>
        <time>2012-09-09T15:32:54Z</time>
      </trkpt>
      <trkpt lat="44.74967" lon="-0.37408">
        <ele>53</ele>
        <time>2012-09-09T15:32:56Z</time>
      </trkpt>
      <trkpt lat="44.74964" lon="-0.37408">
        <ele>52</ele>
        <time>2012-09-09T15:32:57Z</time>
      </trkpt>
      <trkpt lat="44.74965" lon="-0.37397">
        <ele>52</ele>
        <time>2012-09-09T15:33:01Z</time>
      </trkpt>
      <trkpt lat="44.74976" lon="-0.37383">
        <ele>54</ele>
        <time>2012-09-09T15:33:13Z</time>
      </trkpt>
      <trkpt lat="44.74976" lon="-0.37383">
        <ele>54</ele>
        <time>2012-09-09T15:33:28Z</time>
      </trkpt>
      <trkpt lat="44.74976" lon="-0.37384">
        <ele>54</ele>
        <time>2012-09-09T15:33:36Z</time>
      </trkpt>
      <trkpt lat="44.74976" lon="-0.37384">
        <ele>54</ele>
        <time>2012-09-09T15:33:59Z</time>
      </trkpt>
      <trkpt lat="44.74978" lon="-0.37379">
        <ele>54</ele>
        <time>2012-09-09T15:34:12Z</time>
      </trkpt>
      <trkpt lat="44.7499" lon="-0.37358">
        <ele>54</ele>
        <time>2012-09-09T15:34:23Z</time>
      </trkpt>
      <trkpt lat="44.75006" lon="-0.37336">
        <ele>55</ele>
        <time>2012-09-09T15:34:33Z</time>
      </trkpt>
      <trkpt lat="44.75018" lon="-0.37321">
        <ele>56</ele>
        <time>2012-09-09T15:48:04Z</time>
      </trkpt>
      <trkpt lat="44.75047" lon="-0.37279">
        <ele>54</ele>
        <time>2012-09-09T15:48:21Z</time>
      </trkpt>
      <trkpt lat="44.75082" lon="-0.37231">
        <ele>53</ele>
        <time>2012-09-09T15:48:36Z</time>
      </trkpt>
      <trkpt lat="44.75108" lon="-0.37194">
        <ele>53</ele>
        <time>2012-09-09T15:48:46Z</time>
      </trkpt>
      <trkpt lat="44.75124" lon="-0.37142">
        <ele>53</ele>
        <time>2012-09-09T15:48:59Z</time>
      </trkpt>
      <trkpt lat="44.75126" lon="-0.37112">
        <ele>53</ele>
        <time>2012-09-09T15:49:04Z</time>
      </trkpt>
      <trkpt lat="44.75136" lon="-0.37038">
        <ele>50</ele>
        <time>2012-09-09T15:49:16Z</time>
      </trkpt>
      <trkpt lat="44.75139" lon="-0.37032">
        <ele>50</ele>
        <time>2012-09-09T15:49:17Z</time>
      </trkpt>
      <trkpt lat="44.75141" lon="-0.37026">
        <ele>49</ele>
        <time>2012-09-09T15:49:18Z</time>
      </trkpt>
      <trkpt lat="44.75145" lon="-0.3702">
        <ele>49</ele>
        <time>2012-09-09T15:49:19Z</time>
      </trkpt>
      <trkpt lat="44.75148" lon="-0.37014">
        <ele>50</ele>
        <time>2012-09-09T15:49:20Z</time>
      </trkpt>
      <trkpt lat="44.75201" lon="-0.36951">
        <ele>49</ele>
        <time>2012-09-09T15:49:32Z</time>
      </trkpt>
      <trkpt lat="44.7522" lon="-0.36916">
        <ele>49</ele>
        <time>2012-09-09T15:49:37Z</time>
      </trkpt>
      <trkpt lat="44.75223" lon="-0.36907">
        <ele>48</ele>
        <time>2012-09-09T15:49:38Z</time>
      </trkpt>
      <trkpt lat="44.75225" lon="-0.36897">
        <ele>48</ele>
        <time>2012-09-09T15:49:39Z</time>
      </trkpt>
      <trkpt lat="44.75227" lon="-0.36886">
        <ele>48</ele>
        <time>2012-09-09T15:49:40Z</time>
      </trkpt>
      <trkpt lat="44.75229" lon="-0.36875">
        <ele>48</ele>
        <time>2012-09-09T15:49:41Z</time>
      </trkpt>
      <trkpt lat="44.75229" lon="-0.36864">
        <ele>47</ele>
        <time>2012-09-09T15:49:42Z</time>
      </trkpt>
      <trkpt lat="44.75229" lon="-0.36852">
        <ele>47</ele>
        <time>2012-09-09T15:49:43Z</time>
      </trkpt>
      <trkpt lat="44.75228" lon="-0.36839">
        <ele>46</ele>
        <time>2012-09-09T15:49:44Z</time>
      </trkpt>
      <trkpt lat="44.75226" lon="-0.36827">
        <ele>45</ele>
        <time>2012-09-09T15:49:45Z</time>
      </trkpt>
      <trkpt lat="44.75224" lon="-0.36815">
        <ele>45</ele>
        <time>2012-09-09T15:49:46Z</time>
      </trkpt>
      <trkpt lat="44.7522" lon="-0.36803">
        <ele>44</ele>
        <time>2012-09-09T15:49:47Z</time>
      </trkpt>
      <trkpt lat="44.75213" lon="-0.3678">
        <ele>43</ele>
        <time>2012-09-09T15:49:49Z</time>
      </trkpt>
      <trkpt lat="44.75207" lon="-0.36769">
        <ele>43</ele>
        <time>2012-09-09T15:49:50Z</time>
      </trkpt>
      <trkpt lat="44.75201" lon="-0.3676">
        <ele>43</ele>
        <time>2012-09-09T15:49:51Z</time>
      </trkpt>
      <trkpt lat="44.75194" lon="-0.36751">
        <ele>43</ele>
        <time>2012-09-09T15:49:52Z</time>
      </trkpt>
      <trkpt lat="44.75186" lon="-0.36742">
        <ele>43</ele>
        <time>2012-09-09T15:49:53Z</time>
      </trkpt>
      <trkpt lat="44.75179" lon="-0.36734">
        <ele>43</ele>
        <time>2012-09-09T15:49:54Z</time>
      </trkpt>
      <trkpt lat="44.75111" lon="-0.36654">
        <ele>45</ele>
        <time>2012-09-09T15:50:06Z</time>
      </trkpt>
      <trkpt lat="44.75103" lon="-0.36648">
        <ele>45</ele>
        <time>2012-09-09T15:50:09Z</time>
      </trkpt>
      <trkpt lat="44.751" lon="-0.36641">
        <ele>45</ele>
        <time>2012-09-09T15:50:12Z</time>
      </trkpt>
      <trkpt lat="44.751" lon="-0.36636">
        <ele>45</ele>
        <time>2012-09-09T15:50:13Z</time>
      </trkpt>
      <trkpt lat="44.75101" lon="-0.36632">
        <ele>45</ele>
        <time>2012-09-09T15:50:14Z</time>
      </trkpt>
      <trkpt lat="44.75103" lon="-0.36627">
        <ele>45</ele>
        <time>2012-09-09T15:50:15Z</time>
      </trkpt>
      <trkpt lat="44.75104" lon="-0.36622">
        <ele>45</ele>
        <time>2012-09-09T15:50:16Z</time>
      </trkpt>
      <trkpt lat="44.75129" lon="-0.36527">
        <ele>45</ele>
        <time>2012-09-09T15:50:33Z</time>
      </trkpt>
      <trkpt lat="44.75147" lon="-0.36455">
        <ele>45</ele>
        <time>2012-09-09T15:50:45Z</time>
      </trkpt>
      <trkpt lat="44.75154" lon="-0.36425">
        <ele>46</ele>
        <time>2012-09-09T15:50:50Z</time>
      </trkpt>
      <trkpt lat="44.75157" lon="-0.36414">
        <ele>46</ele>
        <time>2012-09-09T15:50:52Z</time>
      </trkpt>
      <trkpt lat="44.75158" lon="-0.36408">
        <ele>46</ele>
        <time>2012-09-09T15:50:53Z</time>
      </trkpt>
      <trkpt lat="44.75178" lon="-0.36346">
        <ele>46</ele>
        <time>2012-09-09T15:51:07Z</time>
      </trkpt>
      <trkpt lat="44.75208" lon="-0.36308">
        <ele>46</ele>
        <time>2012-09-09T15:51:20Z</time>
      </trkpt>
      <trkpt lat="44.7522" lon="-0.36307">
        <ele>45</ele>
        <time>2012-09-09T15:51:26Z</time>
      </trkpt>
      <trkpt lat="44.75222" lon="-0.36305">
        <ele>45</ele>
        <time>2012-09-09T15:51:27Z</time>
      </trkpt>
      <trkpt lat="44.75224" lon="-0.36304">
        <ele>45</ele>
        <time>2012-09-09T15:51:28Z</time>
      </trkpt>
      <trkpt lat="44.75226" lon="-0.36301">
        <ele>45</ele>
        <time>2012-09-09T15:51:29Z</time>
      </trkpt>
      <trkpt lat="44.75227" lon="-0.36299">
        <ele>45</ele>
        <time>2012-09-09T15:51:30Z</time>
      </trkpt>
      <trkpt lat="44.75227" lon="-0.36296">
        <ele>45</ele>
        <time>2012-09-09T15:51:31Z</time>
      </trkpt>
      <trkpt lat="44.75228" lon="-0.36293">
        <ele>46</ele>
        <time>2012-09-09T15:51:32Z</time>
      </trkpt>
      <trkpt lat="44.75232" lon="-0.36287">
        <ele>46</ele>
        <time>2012-09-09T15:51:35Z</time>
      </trkpt>
      <trkpt lat="44.75235" lon="-0.36285">
        <ele>46</ele>
        <time>2012-09-09T15:51:38Z</time>
      </trkpt>
      <trkpt lat="44.75238" lon="-0.36285">
        <ele>45</ele>
        <time>2012-09-09T15:51:39Z</time>
      </trkpt>
      <trkpt lat="44.7524" lon="-0.36285">
        <ele>45</ele>
        <time>2012-09-09T15:51:40Z</time>
      </trkpt>
      <trkpt lat="44.75242" lon="-0.36285">
        <ele>45</ele>
        <time>2012-09-09T15:51:41Z</time>
      </trkpt>
      <trkpt lat="44.75245" lon="-0.36284">
        <ele>45</ele>
        <time>2012-09-09T15:51:42Z</time>
      </trkpt>
      <trkpt lat="44.75249" lon="-0.36282">
        <ele>45</ele>
        <time>2012-09-09T15:51:43Z</time>
      </trkpt>
      <trkpt lat="44.75287" lon="-0.36274">
        <ele>44</ele>
        <time>2012-09-09T15:51:54Z</time>
      </trkpt>
      <trkpt lat="44.75324" lon="-0.36249">
        <ele>45</ele>
        <time>2012-09-09T15:52:08Z</time>
      </trkpt>
      <trkpt lat="44.75351" lon="-0.36211">
        <ele>45</ele>
        <time>2012-09-09T15:52:22Z</time>
      </trkpt>
      <trkpt lat="44.75379" lon="-0.36167">
        <ele>45</ele>
        <time>2012-09-09T15:52:36Z</time>
      </trkpt>
      <trkpt lat="44.75402" lon="-0.36128">
        <ele>45</ele>
        <time>2012-09-09T15:52:47Z</time>
      </trkpt>
      <trkpt lat="44.75428" lon="-0.36084">
        <ele>45</ele>
        <time>2012-09-09T15:53:00Z</time>
      </trkpt>
      <trkpt lat="44.75441" lon="-0.36043">
        <ele>45</ele>
        <time>2012-09-09T15:53:11Z</time>
      </trkpt>
      <trkpt lat="44.75451" lon="-0.35998">
        <ele>45</ele>
        <time>2012-09-09T15:53:22Z</time>
      </trkpt>
      <trkpt lat="44.75465" lon="-0.35945">
        <ele>45</ele>
        <time>2012-09-09T15:53:33Z</time>
      </trkpt>
      <trkpt lat="44.75477" lon="-0.35901">
        <ele>46</ele>
        <time>2012-09-09T15:53:43Z</time>
      </trkpt>
      <trkpt lat="44.75488" lon="-0.35853">
        <ele>46</ele>
        <time>2012-09-09T15:53:54Z</time>
      </trkpt>
      <trkpt lat="44.75491" lon="-0.35839">
        <ele>46</ele>
        <time>2012-09-09T15:53:58Z</time>
      </trkpt>
      <trkpt lat="44.75507" lon="-0.35796">
        <ele>47</ele>
        <time>2012-09-09T15:54:09Z</time>
      </trkpt>
      <trkpt lat="44.75518" lon="-0.3575">
        <ele>48</ele>
        <time>2012-09-09T15:54:20Z</time>
      </trkpt>
      <trkpt lat="44.75527" lon="-0.35725">
        <ele>49</ele>
        <time>2012-09-09T15:54:28Z</time>
      </trkpt>
      <trkpt lat="44.75533" lon="-0.35711">
        <ele>49</ele>
        <time>2012-09-09T15:54:39Z</time>
      </trkpt>
      <trkpt lat="44.75537" lon="-0.35707">
        <ele>49</ele>
        <time>2012-09-09T15:55:02Z</time>
      </trkpt>
      <trkpt lat="44.75538" lon="-0.35705">
        <ele>49</ele>
        <time>2012-09-09T15:55:04Z</time>
      </trkpt>
      <trkpt lat="44.7554" lon="-0.35703">
        <ele>49</ele>
        <time>2012-09-09T15:55:05Z</time>
      </trkpt>
      <trkpt lat="44.75541" lon="-0.357">
        <ele>49</ele>
        <time>2012-09-09T15:55:06Z</time>
      </trkpt>
      <trkpt lat="44.75547" lon="-0.35672">
        <ele>49</ele>
        <time>2012-09-09T15:55:16Z</time>
      </trkpt>
      <trkpt lat="44.75547" lon="-0.35668">
        <ele>49</ele>
        <time>2012-09-09T15:55:17Z</time>
      </trkpt>
      <trkpt lat="44.75548" lon="-0.35665">
        <ele>49</ele>
        <time>2012-09-09T15:55:18Z</time>
      </trkpt>
      <trkpt lat="44.75548" lon="-0.35662">
        <ele>49</ele>
        <time>2012-09-09T15:55:19Z</time>
      </trkpt>
      <trkpt lat="44.75548" lon="-0.35658">
        <ele>50</ele>
        <time>2012-09-09T15:55:20Z</time>
      </trkpt>
      <trkpt lat="44.75548" lon="-0.35656">
        <ele>50</ele>
        <time>2012-09-09T15:55:21Z</time>
      </trkpt>
      <trkpt lat="44.7555" lon="-0.35626">
        <ele>50</ele>
        <time>2012-09-09T15:55:30Z</time>
      </trkpt>
      <trkpt lat="44.75551" lon="-0.35624">
        <ele>50</ele>
        <time>2012-09-09T15:55:31Z</time>
      </trkpt>
      <trkpt lat="44.75551" lon="-0.35621">
        <ele>51</ele>
        <time>2012-09-09T15:55:32Z</time>
      </trkpt>
      <trkpt lat="44.75552" lon="-0.35583">
        <ele>52</ele>
        <time>2012-09-09T15:55:42Z</time>
      </trkpt>
      <trkpt lat="44.75554" lon="-0.35547">
        <ele>52</ele>
        <time>2012-09-09T15:55:52Z</time>
      </trkpt>
      <trkpt lat="44.75554" lon="-0.35543">
        <ele>52</ele>
        <time>2012-09-09T15:55:53Z</time>
      </trkpt>
      <trkpt lat="44.75555" lon="-0.3554">
        <ele>52</ele>
        <time>2012-09-09T15:55:54Z</time>
      </trkpt>
      <trkpt lat="44.75566" lon="-0.35494">
        <ele>52</ele>
        <time>2012-09-09T15:56:05Z</time>
      </trkpt>
      <trkpt lat="44.75568" lon="-0.35487">
        <ele>52</ele>
        <time>2012-09-09T15:56:07Z</time>
      </trkpt>
      <trkpt lat="44.7557" lon="-0.35485">
        <ele>52</ele>
        <time>2012-09-09T15:56:08Z</time>
      </trkpt>
      <trkpt lat="44.75581" lon="-0.3547">
        <ele>51</ele>
        <time>2012-09-09T15:56:14Z</time>
      </trkpt>
      <trkpt lat="44.75583" lon="-0.35468">
        <ele>51</ele>
        <time>2012-09-09T15:56:15Z</time>
      </trkpt>
      <trkpt lat="44.7561" lon="-0.35445">
        <ele>51</ele>
        <time>2012-09-09T15:56:27Z</time>
      </trkpt>
      <trkpt lat="44.75612" lon="-0.35443">
        <ele>51</ele>
        <time>2012-09-09T15:56:28Z</time>
      </trkpt>
      <trkpt lat="44.75614" lon="-0.35442">
        <ele>51</ele>
        <time>2012-09-09T15:56:29Z</time>
      </trkpt>
      <trkpt lat="44.75622" lon="-0.35437">
        <ele>51</ele>
        <time>2012-09-09T15:56:33Z</time>
      </trkpt>
      <trkpt lat="44.75624" lon="-0.35436">
        <ele>51</ele>
        <time>2012-09-09T15:56:34Z</time>
      </trkpt>
      <trkpt lat="44.75627" lon="-0.35434">
        <ele>51</ele>
        <time>2012-09-09T15:56:35Z</time>
      </trkpt>
      <trkpt lat="44.7563" lon="-0.35433">
        <ele>51</ele>
        <time>2012-09-09T15:56:36Z</time>
      </trkpt>
      <trkpt lat="44.75632" lon="-0.35432">
        <ele>51</ele>
        <time>2012-09-09T15:56:37Z</time>
      </trkpt>
      <trkpt lat="44.75641" lon="-0.35426">
        <ele>51</ele>
        <time>2012-09-09T15:56:41Z</time>
      </trkpt>
      <trkpt lat="44.75646" lon="-0.35423">
        <ele>51</ele>
        <time>2012-09-09T15:56:44Z</time>
      </trkpt>
      <trkpt lat="44.75648" lon="-0.35421">
        <ele>51</ele>
        <time>2012-09-09T15:56:45Z</time>
      </trkpt>
      <trkpt lat="44.7565" lon="-0.35419">
        <ele>51</ele>
        <time>2012-09-09T15:56:46Z</time>
      </trkpt>
      <trkpt lat="44.75659" lon="-0.35409">
        <ele>52</ele>
        <time>2012-09-09T15:56:51Z</time>
      </trkpt>
      <trkpt lat="44.75662" lon="-0.35405">
        <ele>52</ele>
        <time>2012-09-09T15:56:53Z</time>
      </trkpt>
      <trkpt lat="44.75664" lon="-0.35404">
        <ele>52</ele>
        <time>2012-09-09T15:56:54Z</time>
      </trkpt>
      <trkpt lat="44.75667" lon="-0.35402">
        <ele>52</ele>
        <time>2012-09-09T15:56:55Z</time>
      </trkpt>
      <trkpt lat="44.75668" lon="-0.354">
        <ele>52</ele>
        <time>2012-09-09T15:56:56Z</time>
      </trkpt>
      <trkpt lat="44.75671" lon="-0.35397">
        <ele>52</ele>
        <time>2012-09-09T15:56:57Z</time>
      </trkpt>
      <trkpt lat="44.75673" lon="-0.35395">
        <ele>52</ele>
        <time>2012-09-09T15:56:58Z</time>
      </trkpt>
      <trkpt lat="44.75675" lon="-0.35393">
        <ele>52</ele>
        <time>2012-09-09T15:56:59Z</time>
      </trkpt>
      <trkpt lat="44.75686" lon="-0.35379">
        <ele>53</ele>
        <time>2012-09-09T15:57:05Z</time>
      </trkpt>
      <trkpt lat="44.75688" lon="-0.35377">
        <ele>53</ele>
        <time>2012-09-09T15:57:06Z</time>
      </trkpt>
      <trkpt lat="44.75691" lon="-0.35375">
        <ele>53</ele>
        <time>2012-09-09T15:57:07Z</time>
      </trkpt>
      <trkpt lat="44.75692" lon="-0.35372">
        <ele>53</ele>
        <time>2012-09-09T15:57:08Z</time>
      </trkpt>
      <trkpt lat="44.75693" lon="-0.3537">
        <ele>53</ele>
        <time>2012-09-09T15:57:09Z</time>
      </trkpt>
      <trkpt lat="44.75695" lon="-0.35367">
        <ele>53</ele>
        <time>2012-09-09T15:57:10Z</time>
      </trkpt>
      <trkpt lat="44.75696" lon="-0.35365">
        <ele>54</ele>
        <time>2012-09-09T15:57:11Z</time>
      </trkpt>
      <trkpt lat="44.75698" lon="-0.35362">
        <ele>54</ele>
        <time>2012-09-09T15:57:12Z</time>
      </trkpt>
      <trkpt lat="44.75699" lon="-0.3536">
        <ele>54</ele>
        <time>2012-09-09T15:57:13Z</time>
      </trkpt>
      <trkpt lat="44.757" lon="-0.35358">
        <ele>54</ele>
        <time>2012-09-09T15:57:14Z</time>
      </trkpt>
      <trkpt lat="44.75701" lon="-0.35356">
        <ele>54</ele>
        <time>2012-09-09T15:57:15Z</time>
      </trkpt>
      <trkpt lat="44.75703" lon="-0.35354">
        <ele>54</ele>
        <time>2012-09-09T15:57:16Z</time>
      </trkpt>
      <trkpt lat="44.75705" lon="-0.35351">
        <ele>54</ele>
        <time>2012-09-09T15:57:17Z</time>
      </trkpt>
      <trkpt lat="44.75706" lon="-0.35349">
        <ele>54</ele>
        <time>2012-09-09T15:57:18Z</time>
      </trkpt>
      <trkpt lat="44.75709" lon="-0.35346">
        <ele>54</ele>
        <time>2012-09-09T15:57:19Z</time>
      </trkpt>
      <trkpt lat="44.75711" lon="-0.35345">
        <ele>54</ele>
        <time>2012-09-09T15:57:20Z</time>
      </trkpt>
      <trkpt lat="44.75714" lon="-0.35343">
        <ele>54</ele>
        <time>2012-09-09T15:57:21Z</time>
      </trkpt>
      <trkpt lat="44.75732" lon="-0.35331">
        <ele>54</ele>
        <time>2012-09-09T15:57:26Z</time>
      </trkpt>
      <trkpt lat="44.75735" lon="-0.35328">
        <ele>54</ele>
        <time>2012-09-09T15:57:27Z</time>
      </trkpt>
      <trkpt lat="44.75759" lon="-0.35305">
        <ele>54</ele>
        <time>2012-09-09T15:57:39Z</time>
      </trkpt>
      <trkpt lat="44.75784" lon="-0.35264">
        <ele>53</ele>
        <time>2012-09-09T15:57:51Z</time>
      </trkpt>
      <trkpt lat="44.75803" lon="-0.3523">
        <ele>53</ele>
        <time>2012-09-09T15:58:00Z</time>
      </trkpt>
      <trkpt lat="44.75804" lon="-0.35226">
        <ele>53</ele>
        <time>2012-09-09T15:58:02Z</time>
      </trkpt>
      <trkpt lat="44.75824" lon="-0.35189">
        <ele>52</ele>
        <time>2012-09-09T15:58:14Z</time>
      </trkpt>
      <trkpt lat="44.75844" lon="-0.35162">
        <ele>52</ele>
        <time>2012-09-09T15:58:25Z</time>
      </trkpt>
      <trkpt lat="44.75848" lon="-0.35154">
        <ele>52</ele>
        <time>2012-09-09T15:58:38Z</time>
      </trkpt>
      <trkpt lat="44.75848" lon="-0.35153">
        <ele>52</ele>
        <time>2012-09-09T15:58:52Z</time>
      </trkpt>
      <trkpt lat="44.75847" lon="-0.35154">
        <ele>52</ele>
        <time>2012-09-09T15:59:15Z</time>
      </trkpt>
      <trkpt lat="44.75847" lon="-0.35154">
        <ele>52</ele>
        <time>2012-09-09T15:59:39Z</time>
      </trkpt>
      <trkpt lat="44.75848" lon="-0.35154">
        <ele>52</ele>
        <time>2012-09-09T16:00:09Z</time>
      </trkpt>
      <trkpt lat="44.75848" lon="-0.35153">
        <ele>52</ele>
        <time>2012-09-09T16:00:38Z</time>
      </trkpt>
      <trkpt lat="44.75847" lon="-0.35152">
        <ele>52</ele>
        <time>2012-09-09T16:01:07Z</time>
      </trkpt>
      <trkpt lat="44.75847" lon="-0.35154">
        <ele>52</ele>
        <time>2012-09-09T16:01:40Z</time>
      </trkpt>
      <trkpt lat="44.75847" lon="-0.35153">
        <ele>52</ele>
        <time>2012-09-09T16:02:06Z</time>
      </trkpt>
      <trkpt lat="44.75847" lon="-0.35153">
        <ele>52</ele>
        <time>2012-09-09T16:02:31Z</time>
      </trkpt>
      <trkpt lat="44.75848" lon="-0.35153">
        <ele>52</ele>
        <time>2012-09-09T16:02:49Z</time>
      </trkpt>
      <trkpt lat="44.75847" lon="-0.35153">
        <ele>52</ele>
        <time>2012-09-09T16:03:09Z</time>
      </trkpt>
      <trkpt lat="44.75847" lon="-0.35153">
        <ele>52</ele>
        <time>2012-09-09T16:03:28Z</time>
      </trkpt>
      <trkpt lat="44.75847" lon="-0.35149">
        <ele>52</ele>
        <time>2012-09-09T16:03:35Z</time>
      </trkpt>
      <trkpt lat="44.75847" lon="-0.35147">
        <ele>52</ele>
        <time>2012-09-09T16:03:36Z</time>
      </trkpt>
      <trkpt lat="44.75847" lon="-0.35145">
        <ele>52</ele>
        <time>2012-09-09T16:03:37Z</time>
      </trkpt>
      <trkpt lat="44.7584" lon="-0.35118">
        <ele>53</ele>
        <time>2012-09-09T16:03:48Z</time>
      </trkpt>
      <trkpt lat="44.7582" lon="-0.35092">
        <ele>55</ele>
        <time>2012-09-09T16:04:01Z</time>
      </trkpt>
      <trkpt lat="44.75813" lon="-0.35064">
        <ele>57</ele>
        <time>2012-09-09T16:04:12Z</time>
      </trkpt>
      <trkpt lat="44.75808" lon="-0.35008">
        <ele>58</ele>
        <time>2012-09-09T16:04:26Z</time>
      </trkpt>
      <trkpt lat="44.7581" lon="-0.34986">
        <ele>57</ele>
        <time>2012-09-09T16:04:31Z</time>
      </trkpt>
      <trkpt lat="44.75814" lon="-0.34944">
        <ele>57</ele>
        <time>2012-09-09T16:04:39Z</time>
      </trkpt>
      <trkpt lat="44.75814" lon="-0.34926">
        <ele>58</ele>
        <time>2012-09-09T16:04:44Z</time>
      </trkpt>
      <trkpt lat="44.75844" lon="-0.34885">
        <ele>58</ele>
        <time>2012-09-09T16:04:57Z</time>
      </trkpt>
      <trkpt lat="44.75868" lon="-0.3485">
        <ele>57</ele>
        <time>2012-09-09T16:05:07Z</time>
      </trkpt>
      <trkpt lat="44.75872" lon="-0.34814">
        <ele>57</ele>
        <time>2012-09-09T16:05:15Z</time>
      </trkpt>
      <trkpt lat="44.75853" lon="-0.34772">
        <ele>59</ele>
        <time>2012-09-09T16:05:26Z</time>
      </trkpt>
      <trkpt lat="44.75847" lon="-0.34758">
        <ele>59</ele>
        <time>2012-09-09T16:05:30Z</time>
      </trkpt>
      <trkpt lat="44.75826" lon="-0.3471">
        <ele>59</ele>
        <time>2012-09-09T16:05:43Z</time>
      </trkpt>
      <trkpt lat="44.75807" lon="-0.34663">
        <ele>60</ele>
        <time>2012-09-09T16:05:55Z</time>
      </trkpt>
      <trkpt lat="44.75788" lon="-0.34616">
        <ele>61</ele>
        <time>2012-09-09T16:06:07Z</time>
      </trkpt>
      <trkpt lat="44.75786" lon="-0.34609">
        <ele>61</ele>
        <time>2012-09-09T16:06:09Z</time>
      </trkpt>
      <trkpt lat="44.75789" lon="-0.34602">
        <ele>61</ele>
        <time>2012-09-09T16:06:20Z</time>
      </trkpt>
      <trkpt lat="44.75792" lon="-0.34597">
        <ele>61</ele>
        <time>2012-09-09T16:06:31Z</time>
      </trkpt>
      <trkpt lat="44.75792" lon="-0.34596">
        <ele>60</ele>
        <time>2012-09-09T16:06:33Z</time>
      </trkpt>
      <trkpt lat="44.75796" lon="-0.34584">
        <ele>60</ele>
        <time>2012-09-09T16:06:39Z</time>
      </trkpt>
      <trkpt lat="44.75786" lon="-0.34552">
        <ele>61</ele>
        <time>2012-09-09T16:06:52Z</time>
      </trkpt>
      <trkpt lat="44.75778" lon="-0.34513">
        <ele>61</ele>
        <time>2012-09-09T16:07:05Z</time>
      </trkpt>
      <trkpt lat="44.75777" lon="-0.34473">
        <ele>62</ele>
        <time>2012-09-09T16:07:17Z</time>
      </trkpt>
      <trkpt lat="44.75777" lon="-0.3447">
        <ele>62</ele>
        <time>2012-09-09T16:07:18Z</time>
      </trkpt>
      <trkpt lat="44.75781" lon="-0.34455">
        <ele>62</ele>
        <time>2012-09-09T16:07:23Z</time>
      </trkpt>
      <trkpt lat="44.7578" lon="-0.34422">
        <ele>63</ele>
        <time>2012-09-09T16:07:34Z</time>
      </trkpt>
      <trkpt lat="44.75782" lon="-0.34399">
        <ele>64</ele>
        <time>2012-09-09T16:07:43Z</time>
      </trkpt>
      <trkpt lat="44.75787" lon="-0.34357">
        <ele>66</ele>
        <time>2012-09-09T16:07:54Z</time>
      </trkpt>
      <trkpt lat="44.75789" lon="-0.34339">
        <ele>66</ele>
        <time>2012-09-09T16:07:58Z</time>
      </trkpt>
      <trkpt lat="44.75798" lon="-0.34296">
        <ele>67</ele>
        <time>2012-09-09T16:08:09Z</time>
      </trkpt>
      <trkpt lat="44.75796" lon="-0.34276">
        <ele>66</ele>
        <time>2012-09-09T16:08:17Z</time>
      </trkpt>
      <trkpt lat="44.75795" lon="-0.34268">
        <ele>66</ele>
        <time>2012-09-09T16:08:30Z</time>
      </trkpt>
      <trkpt lat="44.75793" lon="-0.34258">
        <ele>65</ele>
        <time>2012-09-09T16:08:33Z</time>
      </trkpt>
      <trkpt lat="44.75793" lon="-0.34243">
        <ele>65</ele>
        <time>2012-09-09T16:08:39Z</time>
      </trkpt>
      <trkpt lat="44.75794" lon="-0.34235">
        <ele>65</ele>
        <time>2012-09-09T16:08:43Z</time>
      </trkpt>
      <trkpt lat="44.7579" lon="-0.34207">
        <ele>65</ele>
        <time>2012-09-09T16:08:55Z</time>
      </trkpt>
      <trkpt lat="44.7579" lon="-0.34203">
        <ele>65</ele>
        <time>2012-09-09T16:08:56Z</time>
      </trkpt>
      <trkpt lat="44.75791" lon="-0.3418">
        <ele>66</ele>
        <time>2012-09-09T16:09:02Z</time>
      </trkpt>
      <trkpt lat="44.7579" lon="-0.34172">
        <ele>66</ele>
        <time>2012-09-09T16:09:04Z</time>
      </trkpt>
      <trkpt lat="44.75779" lon="-0.34131">
        <ele>67</ele>
        <time>2012-09-09T16:09:17Z</time>
      </trkpt>
      <trkpt lat="44.75777" lon="-0.34122">
        <ele>67</ele>
        <time>2012-09-09T16:09:20Z</time>
      </trkpt>
      <trkpt lat="44.75779" lon="-0.34117">
        <ele>67</ele>
        <time>2012-09-09T16:09:22Z</time>
      </trkpt>
      <trkpt lat="44.75777" lon="-0.34109">
        <ele>68</ele>
        <time>2012-09-09T16:09:27Z</time>
      </trkpt>
      <trkpt lat="44.75769" lon="-0.34078">
        <ele>68</ele>
        <time>2012-09-09T16:09:38Z</time>
      </trkpt>
      <trkpt lat="44.7577" lon="-0.34072">
        <ele>68</ele>
        <time>2012-09-09T16:09:40Z</time>
      </trkpt>
      <trkpt lat="44.75771" lon="-0.34066">
        <ele>69</ele>
        <time>2012-09-09T16:09:42Z</time>
      </trkpt>
      <trkpt lat="44.7577" lon="-0.34046">
        <ele>69</ele>
        <time>2012-09-09T16:09:48Z</time>
      </trkpt>
      <trkpt lat="44.75769" lon="-0.34027">
        <ele>69</ele>
        <time>2012-09-09T16:09:55Z</time>
      </trkpt>
      <trkpt lat="44.75766" lon="-0.34021">
        <ele>70</ele>
        <time>2012-09-09T16:09:58Z</time>
      </trkpt>
      <trkpt lat="44.75765" lon="-0.34">
        <ele>70</ele>
        <time>2012-09-09T16:10:04Z</time>
      </trkpt>
      <trkpt lat="44.7577" lon="-0.33952">
        <ele>71</ele>
        <time>2012-09-09T16:10:15Z</time>
      </trkpt>
      <trkpt lat="44.75772" lon="-0.33941">
        <ele>71</ele>
        <time>2012-09-09T16:10:18Z</time>
      </trkpt>
      <trkpt lat="44.75783" lon="-0.33886">
        <ele>73</ele>
        <time>2012-09-09T16:10:30Z</time>
      </trkpt>
      <trkpt lat="44.7579" lon="-0.33845">
        <ele>75</ele>
        <time>2012-09-09T16:10:40Z</time>
      </trkpt>
      <trkpt lat="44.75793" lon="-0.33815">
        <ele>76</ele>
        <time>2012-09-09T16:10:48Z</time>
      </trkpt>
      <trkpt lat="44.758" lon="-0.33791">
        <ele>78</ele>
        <time>2012-09-09T16:10:57Z</time>
      </trkpt>
      <trkpt lat="44.7581" lon="-0.33789">
        <ele>79</ele>
        <time>2012-09-09T16:11:07Z</time>
      </trkpt>
      <trkpt lat="44.75813" lon="-0.33787">
        <ele>79</ele>
        <time>2012-09-09T16:11:09Z</time>
      </trkpt>
      <trkpt lat="44.7582" lon="-0.33785">
        <ele>80</ele>
        <time>2012-09-09T16:11:22Z</time>
      </trkpt>
      <trkpt lat="44.75824" lon="-0.33784">
        <ele>80</ele>
        <time>2012-09-09T16:11:36Z</time>
      </trkpt>
      <trkpt lat="44.75825" lon="-0.33783">
        <ele>81</ele>
        <time>2012-09-09T16:11:48Z</time>
      </trkpt>
      <trkpt lat="44.75835" lon="-0.3378">
        <ele>83</ele>
        <time>2012-09-09T16:12:01Z</time>
      </trkpt>
      <trkpt lat="44.75843" lon="-0.33776">
        <ele>84</ele>
        <time>2012-09-09T16:12:13Z</time>
      </trkpt>
      <trkpt lat="44.75846" lon="-0.33776">
        <ele>85</ele>
        <time>2012-09-09T16:12:25Z</time>
      </trkpt>
      <trkpt lat="44.75852" lon="-0.33772">
        <ele>86</ele>
        <time>2012-09-09T16:12:37Z</time>
      </trkpt>
      <trkpt lat="44.75865" lon="-0.33766">
        <ele>89</ele>
        <time>2012-09-09T16:12:50Z</time>
      </trkpt>
      <trkpt lat="44.75875" lon="-0.33763">
        <ele>90</ele>
        <time>2012-09-09T16:13:04Z</time>
      </trkpt>
      <trkpt lat="44.75881" lon="-0.33761">
        <ele>92</ele>
        <time>2012-09-09T16:13:15Z</time>
      </trkpt>
      <trkpt lat="44.75889" lon="-0.33758">
        <ele>93</ele>
        <time>2012-09-09T16:13:29Z</time>
      </trkpt>
      <trkpt lat="44.75897" lon="-0.33758">
        <ele>94</ele>
        <time>2012-09-09T16:13:42Z</time>
      </trkpt>
      <trkpt lat="44.75908" lon="-0.33757">
        <ele>96</ele>
        <time>2012-09-09T16:13:56Z</time>
      </trkpt>
      <trkpt lat="44.75909" lon="-0.33758">
        <ele>96</ele>
        <time>2012-09-09T16:13:59Z</time>
      </trkpt>
      <trkpt lat="44.75913" lon="-0.33764">
        <ele>96</ele>
        <time>2012-09-09T16:14:12Z</time>
      </trkpt>
      <trkpt lat="44.7592" lon="-0.33765">
        <ele>96</ele>
        <time>2012-09-09T16:14:19Z</time>
      </trkpt>
      <trkpt lat="44.75929" lon="-0.33758">
        <ele>97</ele>
        <time>2012-09-09T16:14:27Z</time>
      </trkpt>
      <trkpt lat="44.75935" lon="-0.33745">
        <ele>97</ele>
        <time>2012-09-09T16:14:37Z</time>
      </trkpt>
      <trkpt lat="44.75935" lon="-0.33705">
        <ele>98</ele>
        <time>2012-09-09T16:14:52Z</time>
      </trkpt>
      <trkpt lat="44.7594" lon="-0.3365">
        <ele>99</ele>
        <time>2012-09-09T16:15:06Z</time>
      </trkpt>
      <trkpt lat="44.75944" lon="-0.33589">
        <ele>100</ele>
        <time>2012-09-09T16:15:20Z</time>
      </trkpt>
      <trkpt lat="44.75949" lon="-0.3352">
        <ele>101</ele>
        <time>2012-09-09T16:15:35Z</time>
      </trkpt>
      <trkpt lat="44.75955" lon="-0.33438">
        <ele>102</ele>
        <time>2012-09-09T16:15:52Z</time>
      </trkpt>
      <trkpt lat="44.75954" lon="-0.33353">
        <ele>104</ele>
        <time>2012-09-09T16:16:09Z</time>
      </trkpt>
      <trkpt lat="44.75953" lon="-0.33266">
        <ele>105</ele>
        <time>2012-09-09T16:16:26Z</time>
      </trkpt>
      <trkpt lat="44.7594" lon="-0.33218">
        <ele>105</ele>
        <time>2012-09-09T16:16:38Z</time>
      </trkpt>
      <trkpt lat="44.75923" lon="-0.33157">
        <ele>106</ele>
        <time>2012-09-09T16:16:52Z</time>
      </trkpt>
      <trkpt lat="44.75904" lon="-0.33107">
        <ele>106</ele>
        <time>2012-09-09T16:17:04Z</time>
      </trkpt>
      <trkpt lat="44.75873" lon="-0.33065">
        <ele>106</ele>
        <time>2012-09-09T16:17:16Z</time>
      </trkpt>
      <trkpt lat="44.75846" lon="-0.33039">
        <ele>106</ele>
        <time>2012-09-09T16:17:28Z</time>
      </trkpt>
      <trkpt lat="44.75834" lon="-0.33033">
        <ele>106</ele>
        <time>2012-09-09T16:17:32Z</time>
      </trkpt>
      <trkpt lat="44.75832" lon="-0.3303">
        <ele>106</ele>
        <time>2012-09-09T16:17:33Z</time>
      </trkpt>
      <trkpt lat="44.75831" lon="-0.33026">
        <ele>106</ele>
        <time>2012-09-09T16:17:34Z</time>
      </trkpt>
      <trkpt lat="44.7583" lon="-0.33023">
        <ele>106</ele>
        <time>2012-09-09T16:17:35Z</time>
      </trkpt>
      <trkpt lat="44.7583" lon="-0.33019">
        <ele>106</ele>
        <time>2012-09-09T16:17:36Z</time>
      </trkpt>
      <trkpt lat="44.75829" lon="-0.33017">
        <ele>107</ele>
        <time>2012-09-09T16:17:37Z</time>
      </trkpt>
      <trkpt lat="44.75824" lon="-0.32999">
        <ele>107</ele>
        <time>2012-09-09T16:17:44Z</time>
      </trkpt>
      <trkpt lat="44.75823" lon="-0.32997">
        <ele>107</ele>
        <time>2012-09-09T16:17:45Z</time>
      </trkpt>
      <trkpt lat="44.75818" lon="-0.32962">
        <ele>107</ele>
        <time>2012-09-09T16:17:57Z</time>
      </trkpt>
      <trkpt lat="44.75811" lon="-0.32931">
        <ele>107</ele>
        <time>2012-09-09T16:18:09Z</time>
      </trkpt>
      <trkpt lat="44.75809" lon="-0.3293">
        <ele>107</ele>
        <time>2012-09-09T16:18:10Z</time>
      </trkpt>
      <trkpt lat="44.75806" lon="-0.3293">
        <ele>107</ele>
        <time>2012-09-09T16:18:11Z</time>
      </trkpt>
      <trkpt lat="44.75803" lon="-0.32929">
        <ele>107</ele>
        <time>2012-09-09T16:18:12Z</time>
      </trkpt>
      <trkpt lat="44.758" lon="-0.32929">
        <ele>107</ele>
        <time>2012-09-09T16:18:13Z</time>
      </trkpt>
      <trkpt lat="44.75748" lon="-0.32915">
        <ele>107</ele>
        <time>2012-09-09T16:18:27Z</time>
      </trkpt>
      <trkpt lat="44.75744" lon="-0.32912">
        <ele>107</ele>
        <time>2012-09-09T16:18:28Z</time>
      </trkpt>
      <trkpt lat="44.757" lon="-0.32863">
        <ele>107</ele>
        <time>2012-09-09T16:18:40Z</time>
      </trkpt>
      <trkpt lat="44.75675" lon="-0.3284">
        <ele>107</ele>
        <time>2012-09-09T16:18:48Z</time>
      </trkpt>
      <trkpt lat="44.75674" lon="-0.32835">
        <ele>107</ele>
        <time>2012-09-09T16:18:49Z</time>
      </trkpt>
      <trkpt lat="44.75675" lon="-0.3283">
        <ele>107</ele>
        <time>2012-09-09T16:18:50Z</time>
      </trkpt>
      <trkpt lat="44.75678" lon="-0.32824">
        <ele>107</ele>
        <time>2012-09-09T16:18:51Z</time>
      </trkpt>
      <trkpt lat="44.75682" lon="-0.32819">
        <ele>106</ele>
        <time>2012-09-09T16:18:52Z</time>
      </trkpt>
      <trkpt lat="44.75686" lon="-0.32815">
        <ele>106</ele>
        <time>2012-09-09T16:18:53Z</time>
      </trkpt>
      <trkpt lat="44.7569" lon="-0.32812">
        <ele>106</ele>
        <time>2012-09-09T16:18:54Z</time>
      </trkpt>
      <trkpt lat="44.75696" lon="-0.32808">
        <ele>106</ele>
        <time>2012-09-09T16:18:55Z</time>
      </trkpt>
      <trkpt lat="44.75711" lon="-0.32796">
        <ele>105</ele>
        <time>2012-09-09T16:18:58Z</time>
      </trkpt>
      <trkpt lat="44.75716" lon="-0.32792">
        <ele>104</ele>
        <time>2012-09-09T16:18:59Z</time>
      </trkpt>
      <trkpt lat="44.75722" lon="-0.32787">
        <ele>104</ele>
        <time>2012-09-09T16:19:00Z</time>
      </trkpt>
      <trkpt lat="44.75727" lon="-0.32782">
        <ele>104</ele>
        <time>2012-09-09T16:19:01Z</time>
      </trkpt>
      <trkpt lat="44.75731" lon="-0.32776">
        <ele>104</ele>
        <time>2012-09-09T16:19:02Z</time>
      </trkpt>
      <trkpt lat="44.75736" lon="-0.32771">
        <ele>103</ele>
        <time>2012-09-09T16:19:03Z</time>
      </trkpt>
      <trkpt lat="44.7574" lon="-0.32764">
        <ele>103</ele>
        <time>2012-09-09T16:19:04Z</time>
      </trkpt>
      <trkpt lat="44.75783" lon="-0.32655">
        <ele>101</ele>
        <time>2012-09-09T16:19:17Z</time>
      </trkpt>
      <trkpt lat="44.75789" lon="-0.32638">
        <ele>101</ele>
        <time>2012-09-09T16:19:19Z</time>
      </trkpt>
      <trkpt lat="44.75806" lon="-0.32587">
        <ele>103</ele>
        <time>2012-09-09T16:19:25Z</time>
      </trkpt>
      <trkpt lat="44.75828" lon="-0.3252">
        <ele>104</ele>
        <time>2012-09-09T16:19:33Z</time>
      </trkpt>
      <trkpt lat="44.75846" lon="-0.32451">
        <ele>105</ele>
        <time>2012-09-09T16:19:41Z</time>
      </trkpt>
      <trkpt lat="44.7587" lon="-0.32323">
        <ele>106</ele>
        <time>2012-09-09T16:19:55Z</time>
      </trkpt>
      <trkpt lat="44.75884" lon="-0.32271">
        <ele>107</ele>
        <time>2012-09-09T16:20:03Z</time>
      </trkpt>
      <trkpt lat="44.75907" lon="-0.32217">
        <ele>107</ele>
        <time>2012-09-09T16:20:15Z</time>
      </trkpt>
      <trkpt lat="44.75915" lon="-0.32189">
        <ele>107</ele>
        <time>2012-09-09T16:20:21Z</time>
      </trkpt>
      <trkpt lat="44.75915" lon="-0.32183">
        <ele>107</ele>
        <time>2012-09-09T16:20:22Z</time>
      </trkpt>
      <trkpt lat="44.75918" lon="-0.32157">
        <ele>107</ele>
        <time>2012-09-09T16:20:26Z</time>
      </trkpt>
      <trkpt lat="44.7592" lon="-0.32144">
        <ele>107</ele>
        <time>2012-09-09T16:20:28Z</time>
      </trkpt>
      <trkpt lat="44.75924" lon="-0.32081">
        <ele>107</ele>
        <time>2012-09-09T16:20:37Z</time>
      </trkpt>
      <trkpt lat="44.75931" lon="-0.31979">
        <ele>107</ele>
        <time>2012-09-09T16:20:51Z</time>
      </trkpt>
      <trkpt lat="44.75927" lon="-0.31857">
        <ele>107</ele>
        <time>2012-09-09T16:21:07Z</time>
      </trkpt>
      <trkpt lat="44.75945" lon="-0.31734">
        <ele>109</ele>
        <time>2012-09-09T16:21:24Z</time>
      </trkpt>
      <trkpt lat="44.75981" lon="-0.3166">
        <ele>108</ele>
        <time>2012-09-09T16:21:37Z</time>
      </trkpt>
      <trkpt lat="44.75983" lon="-0.31654">
        <ele>108</ele>
        <time>2012-09-09T16:21:38Z</time>
      </trkpt>
      <trkpt lat="44.75991" lon="-0.31628">
        <ele>108</ele>
        <time>2012-09-09T16:21:42Z</time>
      </trkpt>
      <trkpt lat="44.75992" lon="-0.31622">
        <ele>108</ele>
        <time>2012-09-09T16:21:43Z</time>
      </trkpt>
      <trkpt lat="44.76" lon="-0.31553">
        <ele>107</ele>
        <time>2012-09-09T16:21:53Z</time>
      </trkpt>
      <trkpt lat="44.76004" lon="-0.31524">
        <ele>107</ele>
        <time>2012-09-09T16:21:57Z</time>
      </trkpt>
      <trkpt lat="44.76011" lon="-0.31453">
        <ele>108</ele>
        <time>2012-09-09T16:22:07Z</time>
      </trkpt>
      <trkpt lat="44.76014" lon="-0.31426">
        <ele>108</ele>
        <time>2012-09-09T16:22:11Z</time>
      </trkpt>
      <trkpt lat="44.76019" lon="-0.31383">
        <ele>109</ele>
        <time>2012-09-09T16:22:18Z</time>
      </trkpt>
      <trkpt lat="44.76018" lon="-0.31378">
        <ele>110</ele>
        <time>2012-09-09T16:22:19Z</time>
      </trkpt>
      <trkpt lat="44.76015" lon="-0.31373">
        <ele>110</ele>
        <time>2012-09-09T16:22:20Z</time>
      </trkpt>
      <trkpt lat="44.76011" lon="-0.3137">
        <ele>110</ele>
        <time>2012-09-09T16:22:21Z</time>
      </trkpt>
      <trkpt lat="44.76006" lon="-0.31368">
        <ele>110</ele>
        <time>2012-09-09T16:22:22Z</time>
      </trkpt>
      <trkpt lat="44.76001" lon="-0.31367">
        <ele>110</ele>
        <time>2012-09-09T16:22:23Z</time>
      </trkpt>
      <trkpt lat="44.7598" lon="-0.31364">
        <ele>110</ele>
        <time>2012-09-09T16:22:27Z</time>
      </trkpt>
      <trkpt lat="44.75974" lon="-0.31362">
        <ele>110</ele>
        <time>2012-09-09T16:22:28Z</time>
      </trkpt>
      <trkpt lat="44.75877" lon="-0.31344">
        <ele>110</ele>
        <time>2012-09-09T16:22:44Z</time>
      </trkpt>
      <trkpt lat="44.75775" lon="-0.31326">
        <ele>106</ele>
        <time>2012-09-09T16:22:59Z</time>
      </trkpt>
      <trkpt lat="44.75727" lon="-0.31318">
        <ele>105</ele>
        <time>2012-09-09T16:23:05Z</time>
      </trkpt>
      <trkpt lat="44.75699" lon="-0.31314">
        <ele>104</ele>
        <time>2012-09-09T16:23:08Z</time>
      </trkpt>
      <trkpt lat="44.75641" lon="-0.31304">
        <ele>102</ele>
        <time>2012-09-09T16:23:15Z</time>
      </trkpt>
      <trkpt lat="44.75634" lon="-0.313">
        <ele>102</ele>
        <time>2012-09-09T16:23:16Z</time>
      </trkpt>
      <trkpt lat="44.75591" lon="-0.31276">
        <ele>102</ele>
        <time>2012-09-09T16:23:25Z</time>
      </trkpt>
      <trkpt lat="44.7556" lon="-0.31266">
        <ele>102</ele>
        <time>2012-09-09T16:23:35Z</time>
      </trkpt>
      <trkpt lat="44.75558" lon="-0.31263">
        <ele>102</ele>
        <time>2012-09-09T16:23:36Z</time>
      </trkpt>
      <trkpt lat="44.75549" lon="-0.31243">
        <ele>103</ele>
        <time>2012-09-09T16:23:44Z</time>
      </trkpt>
      <trkpt lat="44.75522" lon="-0.31245">
        <ele>101</ele>
        <time>2012-09-09T16:23:55Z</time>
      </trkpt>
      <trkpt lat="44.75521" lon="-0.31244">
        <ele>101</ele>
        <time>2012-09-09T16:24:09Z</time>
      </trkpt>
      <trkpt lat="44.75521" lon="-0.31244">
        <ele>101</ele>
        <time>2012-09-09T16:24:11Z</time>
      </trkpt>
    </trkseg>
  </trk>
</gpx>